GFSSGP_925_rhum_003.txt.gz
RH
36 34 32 29 36 39 43 34 32 28 26 23 21 25 26 26 32 35 63 64 61 61 75 85 80 79 90 97 97 91 96 86 83 93 82 70 71 61 74 86 83 82 80 79 78 82 75 75 75
40 34 30 42 39 42 38 32 30 27 24 23 25 26 26 31 43 48 59 66 64 63 75 82 85 78 87 95 97 92 94 94 83 81 77 69 73 76 80 77 77 78 82 78 75 75 87 85 80
43 36 40 43 48 42 39 31 28 29 27 22 25 30 29 34 47 51 49 66 58 66 76 82 90 80 88 89 95 97 96 90 85 81 81 78 81 74 78 68 71 74 74 67 68 65 79 95 96
43 43 43 44 46 44 36 27 30 31 26 23 24 26 31 37 46 50 51 69 73 62 74 82 94 85 86 85 91 94 97 90 85 84 76 73 80 87 86 72 73 73 74 68 71 80 94 95 96
45 51 53 57 49 42 38 34 32 31 31 26 24 25 31 39 47 44 59 70 64 67 83 83 87 84 84 85 88 90 93 96 88 83 72 73 83 84 81 82 72 72 75 79 91 88 87 89 91
58 53 62 61 50 44 38 33 32 31 29 25 25 28 29 39 51 60 66 66 62 69 89 82 85 76 86 84 83 85 92 94 92 79 78 82 76 77 80 81 76 79 82 85 87 84 89 93 95
65 62 64 61 53 48 40 33 33 31 29 24 25 28 26 32 50 61 68 72 70 69 77 81 83 75 80 83 83 84 88 91 85 80 89 83 73 73 79 83 84 84 88 77 81 90 93 90 90
66 60 72 64 52 49 36 37 31 29 26 22 26 27 25 32 52 60 70 76 75 73 80 82 85 79 81 89 87 82 78 88 84 83 84 78 69 69 66 69 86 77 72 80 89 92 91 89 84
62 77 77 64 60 48 39 38 33 27 26 28 27 25 28 34 57 65 82 87 90 87 90 96 92 85 81 89 88 84 74 84 84 84 81 78 66 60 67 69 71 73 80 87 90 90 88 85 82
76 86 76 61 53 49 42 42 39 36 34 34 31 28 29 42 63 64 71 83 98 98 100 98 99 99 87 88 88 85 75 81 88 83 82 71 61 63 77 76 75 81 86 89 89 88 80 66 56
80 76 68 61 51 49 52 49 42 40 44 38 35 30 30 43 56 63 64 68 82 90 98 99 98 98 96 91 90 87 82 83 84 84 82 74 75 76 77 83 86 88 89 84 87 74 56 51 44
84 78 74 64 57 62 62 56 60 46 43 35 32 34 33 31 38 56 61 64 73 80 90 98 98 98 99 95 91 91 84 85 84 84 79 80 81 83 86 89 81 85 83 81 58 50 41 34 27
83 78 70 65 66 66 65 68 64 64 46 43 44 45 40 35 33 39 54 58 58 64 68 80 98 98 99 99 95 93 84 86 84 81 78 86 86 88 94 76 71 59 53 48 40 31 23 19 17
69 72 69 63 60 61 63 59 63 54 52 52 48 42 37 37 34 34 32 39 50 47 49 61 78 96 98 92 93 85 83 86 84 81 83 87 80 87 83 67 52 44 37 25 17 16 17 18 17
72 78 69 65 59 58 57 66 68 48 50 50 48 44 42 38 37 36 30 28 27 27 30 36 54 77 91 88 91 85 86 86 84 84 88 82 84 88 72 57 40 23 17 18 18 17 16 16 15
74 75 86 61 61 58 54 62 53 45 48 50 48 48 45 40 37 35 31 31 26 26 27 30 39 61 89 91 88 88 91 87 88 82 82 88 88 72 54 38 20 22 22 20 16 15 13 13 13
82 82 88 69 57 56 65 68 51 46 51 52 48 46 47 42 39 37 32 31 28 27 27 31 55 71 92 93 94 96 96 94 90 85 90 81 73 53 32 22 26 23 20 16 13 12 11 15 14
80 96 78 71 58 62 67 68 55 52 50 48 50 50 50 46 41 37 35 33 29 29 34 40 70 90 99 98 100 100 100 96 92 92 77 60 46 25 25 30 26 22 19 15 12 11 12 16 13
81 86 81 66 60 68 64 61 53 48 51 50 47 44 44 47 42 40 38 34 33 39 47 62 94 99 99 100 99 95 92 91 86 70 52 37 22 27 32 30 25 21 19 13 12 13 14 24 15
78 82 78 58 63 63 63 63 50 46 46 44 43 45 49 50 45 42 42 40 41 50 65 99 100 100 99 99 90 86 84 67 60 46 34 22 28 31 30 27 23 19 15 14 14 13 15 26 25
71 76 65 66 64 60 62 55 38 30 31 37 39 38 36 36 36 37 43 47 50 63 85 99 99 99 97 92 85 79 73 54 41 27 25 26 28 28 28 24 22 17 15 14 14 14 13 29 28
84 73 75 78 84 83 60 71 39 38 36 34 37 36 35 38 40 37 42 51 63 63 82 98 98 94 89 88 83 83 62 44 34 27 25 25 25 25 24 22 18 16 14 14 14 15 17 22 33
74 69 75 80 88 92 72 84 54 46 45 40 36 41 41 39 42 41 44 45 53 70 81 100 91 86 84 84 79 73 50 40 29 26 26 24 22 22 20 18 16 15 13 13 13 17 22 24 32
64 74 71 74 78 92 66 73 55 38 35 36 37 35 41 38 44 48 44 54 81 77 84 94 81 78 79 76 68 65 56 35 28 27 25 23 21 20 18 16 15 14 12 12 14 21 24 26 26
70 98 94 95 96 81 59 75 52 37 33 33 30 35 40 41 44 51 62 77 87 89 85 81 74 70 70 66 61 66 55 38 26 26 24 22 21 20 17 16 15 14 12 13 18 23 25 25 26
82 80 91 88 83 72 64 77 56 42 34 33 30 27 27 38 43 57 65 75 84 89 81 76 70 64 62 60 57 52 55 32 26 26 25 24 22 20 18 16 15 13 14 17 22 25 24 24 27
99 97 68 95 87 93 68 58 41 37 34 36 35 31 31 33 47 55 74 79 89 86 78 74 68 64 63 69 53 56 43 29 26 25 24 23 22 19 18 15 14 15 18 23 26 24 23 27 32
81 78 96 97 95 90 64 61 58 37 25 30 40 40 37 35 49 62 76 86 90 84 78 71 67 66 72 65 53 46 32 26 26 24 22 22 20 18 16 15 16 19 25 27 25 23 26 30 35
93 98 100 98 96 87 69 45 41 34 35 44 47 43 44 42 50 63 80 84 87 81 75 71 68 68 62 49 43 33 29 28 26 23 22 21 19 17 16 17 20 26 29 27 24 26 32 38 42
64 72 72 90 88 88 83 60 31 33 56 50 48 50 56 59 56 78 78 74 75 72 70 67 65 61 52 45 41 37 33 29 24 22 20 19 19 18 18 21 27 30 27 26 27 33 41 46 50

GFSSGP_925_rhum_006.txt.gz
RH
46 40 33 25 27 25 26 22 19 21 22 18 16 18 21 20 26 28 56 60 64 63 75 85 77 76 89 95 87 86 88 79 95 82 66 59 60 62 72 85 79 79 81 78 82 83 79 77 63
47 35 28 24 29 29 22 20 20 20 20 16 18 20 21 22 25 33 42 65 64 63 74 78 82 81 84 95 96 96 96 83 86 85 61 70 74 67 81 82 76 80 83 80 85 90 93 92 93
45 33 26 28 28 29 25 21 16 21 20 18 19 21 22 24 34 34 52 61 63 66 73 77 81 82 83 90 93 97 96 89 79 66 74 80 80 84 85 72 77 77 63 66 75 82 93 94 94
36 28 27 31 29 25 24 20 21 22 19 18 17 19 20 27 33 40 55 72 61 64 72 88 80 84 81 82 84 92 95 88 85 82 76 80 82 84 80 73 73 71 72 69 78 84 84 84 88
37 30 31 35 28 22 23 21 22 22 21 19 18 19 18 29 42 48 61 65 61 67 74 92 80 85 82 82 80 86 88 91 85 76 72 81 89 86 82 84 74 73 76 79 89 82 84 87 90
36 30 35 33 27 24 26 21 21 21 19 19 19 18 17 31 41 55 64 64 65 72 76 83 84 88 78 87 81 81 80 92 82 74 76 89 86 78 79 82 76 81 84 86 71 84 88 89 93
36 36 31 29 27 26 26 21 23 21 20 20 18 20 17 22 44 62 62 65 73 74 74 76 90 87 79 88 85 77 77 91 75 71 76 81 79 72 84 88 86 94 85 68 85 90 91 90 86
40 36 34 35 31 30 23 26 22 22 20 17 18 19 18 27 51 62 64 66 69 72 73 72 74 76 93 90 87 78 80 82 70 80 81 76 72 69 66 80 92 82 70 83 90 91 88 86 83
46 43 39 35 35 28 27 29 24 21 21 21 20 20 22 34 52 59 62 68 68 72 72 71 71 76 83 91 89 81 79 89 76 79 76 71 73 76 76 69 68 70 80 86 88 88 84 77 63
46 45 35 27 31 31 28 29 25 28 26 24 23 20 24 32 42 48 51 54 62 68 76 85 75 78 80 87 91 85 80 86 84 84 85 75 74 70 80 75 68 79 85 86 84 84 68 53 49
47 48 32 43 38 35 34 36 30 31 30 26 24 22 24 26 30 37 38 39 52 60 69 88 89 86 82 83 86 88 77 82 83 84 81 73 73 79 77 78 81 88 89 73 65 55 47 43 36
56 46 42 41 43 48 48 40 42 35 28 22 26 25 29 29 26 26 34 38 46 59 67 77 93 99 92 83 82 80 76 78 80 83 80 73 72 80 78 82 84 74 69 57 49 43 35 28 24
59 44 48 46 53 49 44 46 45 40 33 33 32 33 34 31 28 25 27 34 42 53 62 70 83 96 96 96 82 81 73 77 79 82 75 73 77 81 78 69 69 52 45 40 36 29 23 21 21
49 55 51 48 46 44 49 44 40 38 32 33 31 30 30 29 27 25 26 28 38 44 52 62 73 95 100 96 88 82 74 76 82 78 76 81 79 84 84 71 60 43 33 25 23 24 25 22 20
55 60 44 42 43 46 44 49 43 31 29 31 32 27 26 25 27 27 26 26 25 30 38 50 65 81 99 98 94 80 80 85 82 78 83 87 81 82 78 61 43 30 27 26 25 23 24 22 20
58 57 58 41 44 39 41 46 30 35 34 34 32 28 26 25 24 25 25 27 28 26 28 33 52 72 99 100 92 88 82 83 78 80 90 89 81 83 68 45 32 29 28 26 24 22 22 22 22
54 49 58 46 40 43 46 45 36 30 36 37 30 29 29 29 25 24 25 27 29 28 27 34 42 57 75 86 97 92 86 93 96 88 90 88 85 72 46 33 31 28 26 25 22 23 24 24 23
42 58 48 43 39 47 48 44 36 34 35 34 31 30 31 33 31 27 26 27 30 29 30 32 45 57 72 91 99 100 97 93 93 88 89 85 69 45 33 32 29 27 27 24 24 24 26 26 23
47 51 50 42 41 50 44 42 36 32 32 33 33 31 28 28 28 30 31 31 32 33 37 41 51 70 93 99 100 96 87 93 91 88 80 66 46 28 32 31 30 29 28 27 25 26 25 25 25
54 54 50 41 39 46 42 42 35 32 32 30 29 28 27 26 26 27 30 29 32 33 43 50 59 86 98 98 97 94 84 76 74 76 53 38 26 32 33 32 30 29 29 30 29 29 24 24 27
58 59 54 53 43 42 49 46 27 22 21 22 24 24 23 23 24 25 24 26 31 35 44 56 69 90 87 99 91 80 68 69 58 41 32 28 30 31 31 30 30 29 31 32 30 28 24 22 27
62 45 51 59 61 63 45 53 29 24 23 23 24 24 24 24 22 23 24 23 26 35 46 64 84 82 92 92 78 68 68 64 53 43 37 29 30 31 29 28 29 28 30 30 25 26 27 27 26
58 52 53 54 60 62 53 84 36 30 30 27 23 20 19 20 21 24 24 24 24 32 56 77 91 82 91 85 79 72 67 62 44 36 30 30 32 31 28 28 26 27 28 28 28 30 29 30 28
52 58 58 57 62 87 52 50 41 28 24 21 21 20 17 21 23 25 29 28 28 35 66 87 90 83 82 85 80 71 57 46 39 35 32 32 31 30 28 27 27 27 28 30 31 34 35 33 32
59 71 73 82 90 63 29 41 40 25 24 22 20 16 17 19 22 24 28 31 35 52 72 81 80 77 80 83 77 62 53 52 40 34 31 30 30 29 28 26 26 28 29 29 32 34 35 33 32
66 62 64 58 43 40 32 53 34 21 22 22 21 20 18 20 20 18 24 33 40 57 67 75 73 72 76 74 67 56 52 46 34 31 31 29 29 28 28 26 26 26 27 29 32 34 34 34 34
71 91 55 75 68 89 46 42 28 24 28 24 21 19 28 28 29 27 22 38 46 58 66 68 68 68 70 66 57 56 50 38 34 32 30 29 29 28 27 27 27 28 29 30 32 31 31 33 36
66 57 87 95 82 69 43 46 35 24 22 18 19 26 29 30 33 31 26 39 51 60 64 65 64 64 61 59 59 63 45 38 34 31 31 30 27 25 27 27 28 29 31 32 32 31 34 35 37
82 91 95 77 75 67 54 32 20 25 29 36 33 30 34 38 39 39 29 42 58 63 65 64 62 63 63 62 67 49 38 34 30 30 29 27 26 26 26 27 28 30 31 31 30 32 36 39 41
45 57 62 94 88 88 62 50 20 23 21 32 32 33 34 42 46 45 37 53 62 64 64 63 64 66 65 65 58 48 38 30 29 27 26 25 25 26 27 29 31 32 31 30 30 34 39 42 43

GFSSGP_925_rhum_009.txt.gz
RH
46 32 26 23 27 24 24 19 13 17 16 14 15 16 18 18 21 32 44 48 46 58 73 83 73 71 91 96 89 86 88 92 89 76 72 74 81 85 83 77 78 80 77 80 84 85 83 84 78
43 28 25 22 31 27 22 16 17 12 16 15 14 16 18 20 18 32 41 50 45 56 69 74 76 77 82 96 96 95 84 92 88 75 63 74 77 84 82 80 78 80 78 80 86 89 91 92 92
44 27 25 27 28 27 21 17 15 15 15 16 17 16 18 21 25 28 40 47 45 55 63 72 77 79 78 86 91 95 90 78 80 64 77 77 81 85 79 77 82 71 65 76 81 87 88 86 89
32 25 22 31 28 20 18 16 14 17 14 16 16 17 17 21 26 31 43 46 44 53 58 80 76 80 74 76 80 94 92 79 74 83 87 84 83 86 80 78 75 72 68 71 81 83 83 82 91
33 24 31 29 25 18 15 16 16 17 15 16 16 18 17 22 32 40 46 46 44 52 63 84 78 79 79 77 74 78 89 86 84 80 83 91 96 84 82 87 75 76 79 84 76 81 84 82 92
30 24 32 28 23 18 15 16 16 16 15 14 16 17 16 26 30 40 48 44 42 52 62 83 81 82 80 78 83 77 78 88 78 84 87 94 84 77 79 83 77 85 90 83 83 88 88 92 90
36 31 30 25 22 18 16 16 19 18 16 15 13 18 15 18 36 44 46 44 47 52 58 82 88 90 79 83 88 78 74 84 77 84 90 86 76 77 89 86 85 91 89 73 88 90 86 84 81
33 30 32 28 23 22 15 16 18 17 17 13 14 18 17 27 42 45 45 47 49 52 55 61 79 82 88 89 87 79 68 73 66 74 79 77 73 68 75 83 91 84 72 84 85 85 82 79 72
36 44 37 31 24 21 16 19 18 16 17 14 14 15 20 28 41 43 45 49 50 54 55 54 57 62 81 93 88 81 71 77 69 74 72 66 72 74 77 84 72 69 78 82 84 82 72 57 52
43 42 33 20 18 20 20 22 20 23 21 17 17 16 20 24 30 38 41 43 47 52 54 54 55 58 78 84 92 86 84 90 82 81 73 65 61 64 72 74 66 75 82 81 76 71 53 47 44
38 43 25 22 29 28 27 23 20 23 26 20 18 17 17 21 24 28 31 33 40 46 52 59 57 62 67 77 87 78 70 76 74 71 72 60 61 69 71 73 77 81 82 68 60 51 44 38 30
41 32 29 27 26 36 36 27 27 26 24 18 17 17 18 22 21 21 25 27 29 42 49 64 64 67 68 71 82 72 70 70 73 69 67 60 63 68 64 66 75 70 60 54 49 42 32 23 21
43 39 28 30 34 35 34 37 34 33 27 23 22 24 25 24 22 22 21 24 28 37 46 57 66 78 71 67 74 76 70 64 64 67 68 58 62 68 68 65 60 52 46 41 34 26 24 22 22
36 39 37 36 37 37 42 37 34 30 26 26 26 26 25 25 24 22 22 22 25 32 42 51 61 78 86 80 74 76 69 61 64 68 66 61 63 69 65 60 52 43 35 26 24 24 24 22 20
45 52 40 36 36 38 35 43 39 29 26 26 24 24 23 22 21 22 22 22 22 26 34 42 52 64 85 88 84 74 66 62 72 71 64 64 74 70 62 62 48 34 29 27 25 22 22 22 21
51 45 50 32 33 30 34 45 26 24 26 28 24 21 21 20 20 20 21 22 22 22 25 33 44 54 75 90 82 79 68 67 77 71 71 78 72 64 64 47 37 31 28 26 25 24 24 24 24
45 47 42 37 29 33 38 39 25 26 26 25 24 24 22 22 20 19 19 21 22 24 24 25 32 48 63 92 88 83 73 75 76 74 80 79 67 76 69 45 34 29 28 28 25 27 28 27 24
42 48 38 34 25 35 38 35 26 23 25 28 27 24 22 22 22 22 20 19 21 23 25 24 30 36 52 80 92 86 78 81 83 85 80 72 77 63 39 34 30 30 30 28 29 29 28 28 24
38 39 35 28 25 34 35 32 26 22 22 25 25 24 24 22 19 22 25 23 21 23 26 27 27 38 46 64 93 93 91 92 84 75 72 69 59 41 35 32 32 32 32 32 31 30 29 28 26
44 45 41 32 29 34 36 36 28 25 24 22 22 23 22 21 20 20 21 26 26 26 28 29 32 39 51 80 95 94 91 82 72 64 68 67 53 36 33 34 34 34 34 35 34 32 26 27 28
45 47 43 41 35 35 39 40 27 21 21 20 19 20 20 20 19 18 19 21 27 27 28 29 36 46 68 92 96 93 86 71 61 58 59 49 37 34 34 35 35 36 37 37 34 31 28 27 28
52 35 38 45 51 52 38 49 26 17 18 18 18 18 18 18 18 18 18 19 22 27 30 32 40 55 75 92 92 84 78 70 61 53 43 32 32 34 34 35 35 36 36 34 27 29 29 28 28
50 47 47 48 54 56 45 55 33 18 18 14 14 18 18 17 16 16 17 19 20 22 29 37 44 61 71 90 85 78 67 72 54 44 32 33 34 33 33 33 34 34 33 32 32 31 30 30 29
46 51 53 52 64 80 46 38 31 20 14 14 14 15 15 14 14 17 18 18 21 23 30 43 50 67 74 91 82 70 66 59 51 41 36 33 32 32 32 32 33 33 34 35 34 34 35 33 32
53 66 68 78 91 64 24 30 26 17 15 14 16 16 15 14 14 16 18 21 28 27 29 50 64 66 74 84 81 70 68 58 53 42 36 34 33 31 32 31 32 33 33 31 34 35 36 34 32
62 58 58 53 40 34 26 35 25 17 15 16 16 16 16 16 14 22 24 18 25 32 34 54 68 65 74 77 80 72 58 59 50 41 35 33 32 31 31 30 30 31 31 32 34 35 36 34 35
58 77 48 69 53 65 40 29 22 18 18 17 17 18 17 15 24 26 27 23 19 30 37 56 64 66 70 81 79 60 61 52 42 37 33 31 30 31 30 29 29 29 30 30 32 32 30 32 34
54 46 83 91 79 56 33 29 28 21 19 16 16 18 16 19 23 28 31 28 22 32 44 55 60 63 72 76 62 57 51 43 36 34 31 30 30 28 29 29 30 30 30 31 31 31 31 32 34
66 75 90 62 70 74 66 40 20 21 23 26 30 26 26 28 29 35 37 30 28 40 48 55 58 63 70 59 57 50 44 39 34 32 31 30 27 28 28 28 29 29 30 29 29 29 32 35 36
44 58 58 90 68 80 68 58 25 21 21 19 24 24 23 21 29 37 41 30 38 48 53 56 58 62 58 60 51 47 41 34 34 31 28 27 27 27 27 28 28 29 29 28 27 29 32 36 38

GFSSGP_925_rhum_012.txt.gz
RH
36 39 28 27 47 39 39 29 15 16 16 14 16 17 20 20 30 61 44 47 64 84 90 84 79 72 91 93 88 81 83 95 85 83 90 88 91 85 78 78 80 76 80 85 87 89 92 91 88
37 40 26 38 46 47 34 22 21 14 19 16 15 16 19 21 36 44 48 46 64 79 85 81 71 75 92 91 82 79 94 89 76 75 78 83 87 81 80 78 77 77 78 82 86 86 84 80 72
40 38 39 42 44 42 35 20 17 17 16 16 16 15 18 28 29 40 47 44 59 73 79 80 76 74 84 92 95 88 85 92 81 77 83 85 88 84 81 86 79 71 77 76 82 82 80 74 66
36 33 33 40 38 30 26 20 16 17 14 15 16 20 19 24 28 40 45 44 54 66 73 77 76 74 76 79 86 96 77 82 82 87 86 80 87 85 79 86 74 73 74 87 96 95 91 75 86
34 39 44 40 35 27 20 16 17 18 17 16 16 21 24 31 36 41 44 42 50 60 72 71 75 76 75 77 76 80 72 83 85 80 89 96 87 78 80 80 75 79 86 89 88 92 84 88 92
45 37 45 44 35 24 19 16 17 19 18 16 15 18 25 30 37 42 44 42 48 70 79 73 74 78 74 74 76 73 68 71 84 81 90 87 75 76 88 80 75 83 89 74 89 83 88 84 80
48 46 45 36 32 24 19 15 18 19 20 18 14 18 20 37 40 44 44 41 46 71 82 75 78 78 76 75 74 74 71 68 81 84 90 82 72 86 95 87 82 92 76 86 84 81 79 78 74
41 44 47 37 34 29 20 16 18 19 21 15 14 19 24 43 42 43 42 44 46 56 76 82 82 87 84 83 79 72 68 62 75 82 80 78 71 75 86 88 91 85 73 80 82 79 72 58 51
34 54 53 42 34 29 19 20 16 16 20 18 16 16 28 37 41 43 44 47 47 52 71 81 86 86 85 91 86 77 64 61 64 74 73 71 71 72 80 90 82 67 74 80 78 75 56 49 50
48 63 53 33 26 26 27 20 20 22 23 21 21 16 22 27 35 44 46 48 49 52 53 70 74 82 76 91 90 80 68 65 65 70 68 58 72 75 82 73 63 73 81 74 64 50 47 46 39
47 56 36 29 24 26 34 33 23 25 30 24 22 18 21 22 27 32 39 42 46 50 52 53 54 63 68 86 88 90 84 81 76 77 68 67 62 67 74 57 73 80 75 64 56 44 41 28 22
47 37 35 33 29 30 36 33 33 30 27 23 23 22 20 24 26 28 29 29 40 46 50 53 55 62 73 81 82 80 75 78 73 73 72 61 62 60 69 76 82 68 62 53 48 36 24 22 22
42 38 30 29 31 32 34 40 41 38 31 27 26 25 28 26 26 23 22 24 26 42 48 56 58 64 67 68 75 73 71 73 69 70 68 61 67 67 66 70 64 53 47 40 28 24 24 24 21
36 38 38 36 34 35 40 41 41 35 30 29 29 30 29 29 29 25 24 23 22 30 44 57 63 66 69 70 68 74 67 69 67 66 68 60 64 70 65 61 51 46 38 29 24 22 22 22 21
41 56 47 43 40 41 36 46 45 35 32 32 30 29 28 28 26 27 25 23 22 24 35 48 60 66 72 73 74 70 70 69 61 65 68 60 64 63 67 60 45 34 30 26 24 21 22 23 23
54 55 66 36 36 36 41 56 35 28 32 33 31 28 26 27 26 23 22 22 22 22 27 40 54 66 78 81 77 73 68 69 64 65 64 65 70 67 68 54 38 34 28 25 24 25 25 25 23
55 64 57 44 35 34 39 47 34 28 28 31 31 28 27 24 24 20 20 20 21 22 22 33 44 60 71 82 81 75 70 70 64 71 66 72 71 67 68 43 37 29 26 27 26 29 27 23 20
54 58 48 44 34 34 41 43 34 29 27 30 30 32 30 28 26 21 20 19 19 20 22 23 37 49 69 86 82 77 74 70 68 76 73 79 72 67 60 40 32 29 30 29 30 30 28 25 19
47 50 48 35 27 34 35 34 31 27 27 25 27 28 28 28 24 20 21 21 23 19 21 24 26 37 71 88 87 89 83 77 82 81 84 79 69 58 42 34 30 32 33 33 31 30 27 25 16
48 54 52 39 30 35 40 41 34 31 29 26 25 24 24 25 25 24 21 23 24 25 22 25 27 30 45 82 82 95 90 87 84 82 77 72 62 40 40 32 32 34 35 36 32 27 26 27 22
52 54 50 47 41 39 42 46 40 26 29 27 25 23 22 23 24 24 23 22 25 26 27 28 28 33 35 65 93 94 93 82 74 73 68 55 42 39 36 32 34 36 37 35 32 28 25 28 28
56 42 43 44 55 67 45 76 42 30 22 23 24 25 24 23 22 22 21 22 22 28 26 27 29 31 41 77 94 92 84 74 68 67 60 41 39 35 34 34 35 37 37 34 30 27 24 27 28
49 48 50 51 61 71 58 72 46 29 29 21 18 21 24 23 24 23 24 21 18 19 28 26 29 36 66 84 91 90 82 76 66 63 53 38 34 34 35 35 36 36 35 31 30 29 25 24 28
46 51 52 55 64 96 66 55 40 29 25 20 15 17 20 18 21 21 19 20 22 19 18 32 30 44 74 83 91 87 80 70 62 55 40 36 34 34 34 34 34 34 34 31 29 28 28 28 29
52 63 93 96 98 88 37 49 37 25 22 19 18 20 17 18 20 19 21 30 26 23 22 23 39 56 79 85 90 83 77 67 60 49 45 38 34 34 34 34 34 34 34 31 30 31 31 31 30
66 63 89 76 82 68 43 65 37 19 18 17 17 19 20 21 20 23 30 37 32 30 27 30 45 66 87 88 86 76 71 60 58 53 43 38 36 33 34 34 32 33 30 29 31 31 32 31 32
66 82 56 78 68 89 58 34 26 22 22 21 20 20 22 22 22 25 29 35 34 32 35 33 53 70 86 88 82 74 65 60 56 46 43 37 35 34 34 31 32 31 30 30 31 32 30 30 32
57 47 84 92 97 80 50 41 40 28 27 26 25 24 27 27 30 34 37 41 37 36 32 40 60 71 80 82 81 68 65 61 53 45 39 36 35 32 30 29 29 29 29 29 30 30 30 30 33
69 74 79 74 87 94 80 52 26 31 26 26 29 29 27 28 31 30 42 43 42 41 33 40 63 70 79 81 68 61 57 55 46 39 35 33 32 30 29 29 29 29 30 30 29 29 30 33 35
52 65 65 90 81 81 82 68 33 32 28 27 27 26 24 27 30 38 49 48 46 41 46 51 58 76 68 63 56 53 50 41 38 35 32 30 29 29 29 29 29 29 29 27 27 28 30 33 36

GFSSGP_925_rhum_015.txt.gz
RH
30 33 42 40 50 54 50 41 30 19 19 20 17 18 20 22 29 58 50 51 65 79 90 84 84 75 76 70 64 61 89 91 96 97 96 96 89 85 80 80 77 82 84 86 89 93 92 88 76
30 31 36 46 56 58 54 34 30 18 20 18 17 16 19 43 46 57 65 67 69 77 89 83 79 72 71 71 67 90 92 80 81 88 90 88 83 79 77 76 78 80 84 86 85 86 76 62 76
32 45 46 54 58 59 51 27 22 20 18 18 20 17 19 41 49 52 53 74 77 78 85 81 72 73 74 83 74 95 91 80 75 82 87 89 83 83 87 81 81 85 90 95 94 84 74 66 71
49 44 45 48 53 43 36 29 19 18 17 18 18 21 27 38 40 46 55 77 73 79 79 75 73 74 77 79 76 83 95 85 85 86 88 90 86 84 91 79 71 72 82 95 94 87 79 83 87
50 55 56 54 46 36 31 26 20 19 18 18 18 22 36 43 43 44 54 70 72 83 77 78 76 76 75 76 80 67 85 86 91 91 91 92 92 85 93 75 74 74 81 87 92 92 86 88 83
54 54 64 65 52 35 30 25 20 20 19 18 18 17 27 42 45 44 46 62 71 79 76 74 76 76 76 74 74 60 78 90 89 92 95 87 80 88 94 77 78 85 70 84 80 85 86 81 76
55 61 62 49 45 37 30 22 24 24 21 20 16 18 40 46 45 43 43 52 66 75 74 75 76 77 75 75 74 62 61 80 83 84 80 73 73 84 97 80 84 82 61 83 79 78 76 69 58
54 60 58 54 47 43 28 21 18 22 22 17 16 22 57 48 46 45 42 63 72 75 74 75 76 81 78 78 78 74 56 65 74 77 77 72 76 90 91 85 88 82 62 78 78 74 63 52 47
40 69 74 59 50 39 28 31 19 19 21 19 18 18 40 44 45 47 46 59 79 81 74 72 78 83 81 83 84 76 62 56 73 75 77 74 70 85 89 88 87 71 68 78 76 65 50 50 45
55 73 65 46 40 36 30 36 35 23 23 22 21 23 37 42 45 48 54 52 67 87 80 74 80 83 83 84 85 81 66 55 65 70 70 71 74 74 78 85 76 64 79 74 55 49 46 42 31
52 69 51 47 37 32 36 38 34 33 29 25 23 22 32 37 43 51 52 51 50 62 82 80 78 82 82 83 83 82 72 58 57 60 61 64 75 83 81 73 65 81 70 61 54 44 32 22 21
59 47 44 42 38 36 37 37 43 36 33 32 29 24 25 26 39 43 50 51 52 52 59 76 82 80 83 75 79 81 78 72 63 68 63 67 73 78 74 60 80 76 68 53 42 29 24 22 22
49 45 40 39 37 37 34 40 43 43 38 35 34 32 33 28 28 28 30 31 42 54 53 55 70 73 83 78 72 80 78 74 69 77 74 69 64 61 68 79 76 59 50 44 38 27 24 22 20
40 43 44 43 45 43 43 45 41 40 34 36 34 34 34 34 32 27 27 27 26 44 52 53 58 63 66 74 72 70 76 74 73 76 75 62 61 67 73 72 59 53 47 38 28 22 21 21 20
45 56 55 52 48 48 40 51 52 44 41 42 42 39 35 33 30 31 26 26 26 29 48 52 55 63 66 71 70 64 70 72 70 73 70 64 64 71 69 64 53 48 38 31 23 21 22 22 22
56 57 78 53 45 46 46 61 45 39 42 42 39 37 36 32 32 27 24 24 24 24 43 52 56 62 71 72 72 66 69 72 70 64 65 63 64 71 67 61 52 40 33 25 26 26 25 22 17
64 81 77 62 40 43 50 54 42 37 37 40 40 37 35 32 29 25 23 23 22 22 24 54 59 60 66 73 75 70 69 71 70 62 66 62 64 67 65 64 50 39 28 26 29 30 26 18 15
70 77 57 55 39 38 43 51 43 37 34 37 36 40 40 36 33 26 22 21 21 21 21 27 63 58 62 67 72 74 70 70 70 64 65 64 64 66 68 57 43 32 28 31 32 30 26 17 17
59 55 60 49 37 38 41 44 38 31 34 32 29 36 33 32 29 25 23 22 23 20 20 22 49 70 71 80 85 82 78 69 70 65 68 68 66 67 63 49 39 29 31 33 33 30 26 18 15
57 62 62 49 38 42 47 45 38 35 33 31 30 31 32 33 30 28 22 21 21 23 22 23 28 68 74 69 82 86 82 77 76 69 74 74 72 67 58 49 35 31 34 36 33 29 27 25 17
56 59 59 56 47 45 51 54 45 36 34 31 30 28 28 30 30 29 28 21 19 20 23 24 27 59 78 74 89 90 95 92 86 81 76 75 71 65 53 43 34 34 36 36 32 28 27 26 25
66 50 53 57 62 71 54 83 62 39 34 27 34 34 31 28 25 25 26 25 20 20 20 24 26 35 76 80 88 89 90 88 82 81 79 78 63 44 41 35 33 36 37 36 34 29 27 24 25
56 52 56 57 68 73 70 77 67 42 38 29 24 20 22 31 30 28 29 24 19 18 18 19 29 28 43 74 68 89 93 89 78 78 70 63 39 37 36 34 35 37 36 35 34 30 26 25 24
48 55 56 61 74 97 76 67 58 36 30 23 21 17 17 19 22 23 21 22 24 21 20 19 19 32 36 72 77 84 89 84 77 70 60 46 39 37 34 34 36 37 34 34 33 31 29 25 24
59 70 94 92 95 90 56 70 50 30 26 23 23 23 19 19 21 22 21 33 31 30 28 27 26 34 72 76 80 88 87 81 76 69 58 44 41 38 35 36 36 35 35 32 32 31 30 27 27
71 66 88 86 96 81 55 67 46 30 26 23 21 22 22 22 22 23 34 38 36 34 32 33 32 42 88 94 85 87 84 82 77 67 59 47 43 41 36 36 36 34 34 32 32 32 32 28 28
70 83 61 82 75 94 74 52 33 26 24 26 27 25 26 26 24 23 32 41 40 37 37 36 37 44 84 85 88 89 82 81 73 63 59 50 44 41 36 35 35 36 35 32 32 32 31 28 30
62 57 85 93 100 94 70 58 48 34 29 30 36 32 31 34 32 33 36 45 41 33 33 35 37 61 79 86 75 77 80 76 71 64 53 48 44 40 36 34 40 41 31 31 32 31 30 29 31
72 84 77 78 93 98 99 70 38 37 33 33 31 30 32 28 30 31 44 49 46 40 35 39 41 73 96 93 76 74 73 69 67 61 50 48 41 38 38 38 35 32 30 30 31 30 30 31 32
61 71 75 92 81 92 94 69 35 33 34 33 34 32 30 35 36 42 52 52 51 46 46 51 53 81 91 84 77 72 67 61 56 52 48 49 43 41 46 32 31 30 30 29 28 29 31 32 35

GFSSGP_925_rhum_018.txt.gz
RH
33 30 34 37 46 56 55 48 35 31 21 20 19 19 20 30 30 46 58 76 71 80 84 89 91 91 83 79 67 72 86 89 92 94 94 96 92 88 84 79 82 83 83 86 94 97 96 94 89
34 32 37 51 58 62 57 39 33 32 22 19 18 18 23 48 50 76 77 78 67 78 87 90 88 74 70 76 87 91 94 94 95 96 96 89 83 79 76 77 83 84 86 85 88 90 85 82 71
38 45 47 54 62 64 54 34 28 21 21 19 20 18 29 44 52 67 61 79 74 84 87 90 81 73 75 70 97 90 85 91 92 93 90 85 80 79 76 79 82 86 92 94 94 87 71 64 64
50 48 52 56 64 49 42 32 28 24 18 18 20 22 32 42 50 49 66 72 75 88 85 85 77 72 73 70 96 92 84 84 86 87 89 86 85 89 83 84 87 90 95 94 87 79 78 80 80
53 59 61 59 55 45 36 30 28 26 20 18 20 22 41 47 44 57 73 73 75 85 82 79 76 72 71 72 89 93 88 86 90 91 92 90 87 92 91 76 78 94 98 94 96 83 84 83 78
61 61 74 66 56 40 36 29 23 23 21 18 19 21 39 51 54 80 79 80 70 78 78 76 77 77 74 77 71 87 84 91 93 93 94 92 89 93 96 78 77 92 91 91 94 90 88 78 68
63 65 71 60 55 47 37 28 25 26 24 21 18 23 46 50 49 68 79 82 74 73 74 79 79 77 75 75 71 74 85 92 89 86 90 90 86 89 96 87 93 83 89 89 88 84 76 63 43
59 64 65 56 50 48 33 23 20 25 26 18 19 43 62 53 46 53 74 80 81 82 76 80 83 80 76 76 65 64 84 83 83 86 79 75 78 87 90 89 90 78 88 81 79 74 58 50 37
49 76 80 62 56 45 32 34 29 22 22 20 20 27 43 47 48 54 83 90 92 94 82 81 82 82 76 77 75 68 63 77 76 76 77 72 87 94 92 84 89 76 71 80 77 62 52 52 42
61 83 71 52 45 42 34 35 34 28 26 22 23 41 46 51 54 58 80 96 96 97 97 83 82 83 81 81 80 80 65 66 74 72 77 72 79 92 91 88 86 67 76 78 64 50 46 42 32
59 74 54 50 46 38 40 40 37 34 31 27 25 38 45 45 57 59 64 83 89 83 93 88 84 83 84 85 83 81 71 60 70 70 72 72 73 80 86 88 80 69 80 59 50 45 34 23 22
61 53 47 44 42 42 39 36 43 40 35 31 36 28 25 35 34 51 61 63 78 87 83 82 84 86 86 83 84 80 76 64 60 68 69 71 79 80 84 81 66 80 69 61 53 35 26 22 22
55 51 45 43 46 44 39 43 42 46 40 38 38 36 32 34 32 34 49 56 58 71 82 85 80 84 88 84 85 82 76 70 58 56 63 68 69 77 82 66 78 79 69 52 42 32 26 23 20
46 47 45 45 45 46 47 47 45 42 39 40 39 39 40 37 33 31 30 32 40 56 64 69 84 82 88 81 85 82 77 74 72 65 71 65 69 71 78 71 85 72 56 42 36 28 22 21 20
48 54 54 51 49 49 43 50 58 43 41 45 46 46 41 41 32 32 27 28 28 28 47 62 63 62 85 85 79 78 78 77 73 72 77 72 68 66 66 78 83 50 43 42 31 22 22 23 21
56 60 71 51 46 46 48 60 45 42 48 49 47 47 44 39 38 29 26 25 24 26 28 61 69 66 70 83 79 78 74 74 72 73 77 75 63 64 71 78 58 49 45 39 25 24 26 22 16
69 79 76 67 49 47 56 60 45 39 44 46 46 46 42 40 38 32 27 25 24 24 25 30 72 65 62 70 76 77 72 68 71 73 77 73 63 68 71 63 55 50 46 32 27 29 26 17 15
73 84 69 66 44 45 49 61 50 43 42 42 41 39 41 42 38 31 28 26 24 22 24 25 38 72 67 60 64 82 78 68 70 73 74 66 64 70 69 62 57 51 42 27 31 31 24 16 18
57 63 66 56 44 43 46 46 42 36 37 36 32 34 34 33 29 28 26 25 26 24 23 28 28 67 79 78 89 92 79 69 73 74 72 63 65 67 67 59 56 49 38 30 33 30 23 16 18
68 70 72 57 44 43 50 50 41 38 36 34 32 30 29 30 32 31 26 24 23 22 22 24 27 45 79 73 67 85 81 74 71 75 70 63 66 68 65 61 56 45 32 33 34 31 26 19 17
64 63 61 60 53 46 55 41 41 39 36 34 30 30 30 30 29 27 27 22 22 23 21 21 26 38 56 77 84 64 87 90 89 83 74 70 69 66 64 62 55 42 33 34 34 33 30 24 21
66 52 53 57 61 74 57 79 64 44 38 34 31 39 38 36 33 31 30 27 21 20 19 19 19 28 61 82 89 65 72 90 85 76 74 71 71 65 63 61 54 41 34 35 34 32 31 26 25
59 51 54 57 69 71 70 80 64 50 44 36 30 28 27 30 36 35 33 28 22 20 19 20 20 28 54 83 89 80 83 82 82 81 81 78 70 68 61 52 46 36 36 36 35 33 31 27 25
54 55 66 72 76 92 70 73 61 40 35 24 22 22 20 19 20 29 25 22 23 23 22 20 21 25 44 74 92 79 87 84 86 86 81 74 66 57 51 49 41 37 37 36 34 32 30 29 25
57 67 85 82 96 82 64 78 69 40 33 28 30 28 26 23 21 22 22 34 32 32 32 31 30 25 32 70 90 87 80 76 79 84 80 68 57 45 44 45 39 39 36 35 34 33 30 29 28
68 64 81 65 96 86 62 76 51 36 32 28 26 28 25 25 26 26 27 38 40 38 37 35 34 36 41 70 76 93 86 81 81 80 80 70 60 49 44 43 38 39 34 35 34 32 32 29 28
72 86 62 82 78 94 76 60 38 31 25 31 36 35 37 38 33 28 29 42 42 38 30 28 31 31 36 66 89 95 94 87 83 79 75 66 57 52 47 40 40 38 36 34 34 34 34 29 30
60 61 86 92 91 90 75 68 49 35 29 36 34 34 36 34 36 37 37 39 42 37 28 28 32 34 36 48 90 95 91 85 85 82 75 64 58 53 47 42 41 39 35 33 38 45 43 30 31
75 86 80 79 90 98 95 72 45 34 31 38 37 36 36 35 34 37 39 37 49 45 42 38 35 38 43 54 100 96 88 87 86 80 71 62 56 53 47 42 43 39 38 44 38 38 31 31 32
65 74 76 90 79 95 92 79 40 40 37 40 40 42 49 44 40 44 46 53 56 54 50 47 42 45 40 72 99 87 85 86 81 73 67 62 57 52 47 43 42 47 45 41 36 31 32 32 33

GFSSGP_925_rhum_021.txt.gz
RH
42 36 33 37 46 60 58 48 39 33 22 21 20 21 22 26 32 43 68 76 79 78 87 88 94 97 97 98 97 88 86 88 90 96 96 95 92 91 85 84 83 83 82 85 87 96 95 95 94
40 35 37 53 57 62 54 43 36 30 24 21 21 20 34 46 55 88 89 84 76 79 87 86 89 94 95 88 89 95 93 94 86 93 96 93 90 82 79 84 85 86 88 92 96 96 93 90 89
39 47 47 55 66 63 49 39 27 26 23 22 22 21 32 43 56 78 66 75 84 87 87 84 89 92 80 89 93 95 94 94 90 95 93 87 80 78 79 83 87 89 90 92 90 70 58 59 61
50 52 54 60 64 54 42 32 32 31 24 21 21 26 34 44 54 59 74 80 86 95 88 84 85 80 76 82 98 95 94 96 94 89 83 83 80 78 81 84 90 93 94 93 85 74 76 77 76
50 61 67 64 58 51 41 36 30 30 27 22 21 26 38 50 52 57 77 86 87 95 89 87 78 75 74 88 92 87 90 94 97 96 91 87 90 85 83 73 74 84 91 90 88 88 88 85 78
68 65 75 66 57 45 38 33 27 26 26 24 22 28 42 53 67 82 84 87 85 89 90 85 75 74 71 82 88 88 86 92 93 90 91 89 91 94 82 69 72 87 88 86 89 90 88 79 66
69 74 76 56 54 45 39 33 29 27 27 26 19 29 50 56 74 83 81 82 84 84 86 81 75 75 71 69 82 87 86 92 91 86 91 86 89 94 88 80 80 84 83 84 88 85 79 59 38
63 62 66 63 55 42 33 29 22 25 27 21 23 58 63 55 73 83 86 87 87 87 81 72 78 79 75 77 68 76 83 88 84 84 85 86 86 90 87 77 86 71 86 81 81 79 59 45 35
55 77 83 57 52 43 34 35 29 27 26 22 22 47 45 50 66 89 94 95 95 90 84 81 85 82 78 74 68 64 77 86 84 85 80 78 78 88 92 81 91 71 81 84 81 67 56 52 41
64 86 73 55 49 43 39 40 41 34 34 25 25 45 57 57 68 93 97 98 100 98 88 86 89 84 80 78 68 62 77 80 78 81 80 75 81 88 93 87 93 81 77 83 72 52 47 44 35
64 75 58 52 47 42 41 44 37 39 39 29 27 33 46 62 67 82 92 95 93 88 91 88 88 86 83 83 77 72 68 74 77 75 78 74 86 97 98 93 96 81 84 78 57 48 40 27 22
63 58 52 49 44 44 43 37 42 41 39 31 38 37 32 42 53 64 74 95 99 97 86 83 84 88 86 83 80 78 77 67 71 74 76 77 76 92 97 95 92 76 84 62 52 43 29 24 22
60 54 48 46 46 48 43 46 46 46 42 40 39 38 39 37 35 33 57 68 94 100 95 86 83 87 88 87 82 82 80 71 57 66 76 77 75 80 86 90 84 77 75 64 56 35 30 24 21
52 52 49 46 46 46 48 50 48 44 43 43 41 41 42 40 37 33 34 51 63 87 92 85 88 85 86 89 86 84 80 75 64 54 63 74 74 79 82 87 74 85 75 56 44 36 28 22 20
51 57 54 53 50 52 46 54 62 45 42 46 46 46 46 43 35 35 30 31 35 53 64 71 76 79 86 88 89 88 83 81 72 66 55 61 70 70 76 84 74 82 73 48 38 33 23 23 22
62 62 72 52 51 49 47 62 46 46 49 50 49 50 48 48 43 35 30 28 27 29 31 52 70 72 81 91 94 88 87 84 76 73 67 64 67 70 73 82 83 77 54 42 37 27 24 24 18
68 83 76 64 50 50 58 65 46 43 45 47 46 49 46 44 40 37 32 29 26 27 28 29 52 72 76 94 87 86 86 86 78 76 70 73 77 74 72 75 83 64 46 40 36 27 27 20 16
78 79 76 70 47 50 53 61 51 47 47 51 52 47 44 39 36 31 31 31 29 28 27 29 32 48 70 74 86 92 95 90 82 77 75 73 78 76 69 72 80 55 45 40 32 30 27 18 18
64 70 71 61 49 47 51 50 43 38 40 42 42 40 36 33 28 26 23 22 26 27 27 28 33 50 77 90 100 100 99 94 85 80 75 74 77 74 68 73 62 51 47 48 33 31 23 17 24
68 74 80 60 50 46 54 55 43 38 35 34 33 32 30 32 32 31 26 24 23 22 25 26 30 32 70 88 87 85 79 87 80 80 77 75 75 71 69 69 61 54 45 40 33 32 25 18 23
72 76 66 64 56 49 59 52 41 35 38 36 34 32 31 33 33 31 32 26 22 22 23 23 23 28 55 77 95 90 87 89 95 88 84 78 76 69 68 67 63 56 51 46 35 33 29 21 20
72 53 55 58 62 74 58 75 62 42 41 40 38 35 39 39 38 36 33 31 27 23 20 20 22 23 34 69 97 92 84 89 86 82 81 79 82 70 69 67 63 59 52 41 36 34 32 28 22
63 52 57 60 72 69 69 78 64 45 40 33 32 29 27 31 29 32 37 32 26 23 22 21 21 23 26 59 83 87 84 76 71 82 86 85 82 76 70 68 63 58 49 41 35 34 33 30 27
56 58 67 77 74 90 66 72 60 40 33 33 31 31 28 25 25 24 25 22 25 22 22 22 22 22 25 40 86 85 85 84 84 89 92 88 81 75 72 66 61 56 49 41 35 34 33 31 29
58 67 81 74 91 78 66 80 61 45 38 32 35 32 30 30 27 27 26 27 28 34 33 32 31 29 29 36 80 86 83 81 78 76 89 90 81 73 69 63 58 49 50 43 39 33 32 31 29
64 63 77 58 82 84 67 80 47 39 34 30 31 34 38 40 39 38 34 30 31 38 37 36 35 32 34 38 59 74 90 88 88 82 83 84 80 76 70 61 54 48 46 45 38 34 31 31 31
74 84 62 83 82 92 75 60 40 32 32 36 37 35 39 40 40 39 40 36 41 44 39 33 30 31 34 49 62 66 84 91 92 85 83 83 82 77 72 60 54 49 47 42 38 35 32 32 31
62 65 84 91 65 82 68 74 53 33 32 36 38 43 42 42 47 45 40 34 29 26 42 42 40 36 34 38 54 69 68 84 92 89 88 85 78 73 67 58 54 47 47 43 40 41 35 32 35
77 87 84 79 87 89 96 65 52 38 32 38 44 46 48 55 60 54 51 40 36 35 40 45 44 42 37 36 38 52 84 94 95 91 87 82 77 71 66 56 52 46 42 42 39 42 47 48 43
66 74 77 84 78 96 94 82 45 45 39 38 42 45 51 63 64 60 55 51 55 57 58 54 52 54 48 44 47 65 95 99 98 94 85 78 74 70 64 57 50 46 44 41 42 46 51 68 51

GFSSGP_925_rhum_024.txt.gz
RH
45 38 35 36 49 62 58 46 41 36 26 22 21 24 25 25 38 46 76 83 79 83 83 81 92 93 94 97 93 83 76 80 88 94 98 97 95 91 89 86 84 81 76 81 82 91 97 95 89
44 36 37 55 56 58 50 45 39 32 26 28 20 24 34 44 61 94 92 88 78 82 84 85 92 94 93 93 85 82 78 82 88 94 97 93 92 84 84 84 83 80 80 80 86 96 95 93 92
40 44 47 55 67 60 45 41 34 33 32 23 22 24 31 42 62 80 70 81 82 88 86 84 89 94 97 90 90 82 82 86 82 92 96 92 80 80 85 86 88 90 88 87 87 72 66 73 89
46 51 55 62 65 52 41 32 32 34 27 22 23 34 39 49 56 60 68 81 83 92 89 85 86 90 80 82 88 95 94 92 88 92 93 84 81 82 85 89 93 95 96 94 77 78 85 86 90
48 61 69 67 59 51 46 38 32 32 28 25 23 26 38 53 57 62 75 87 89 93 91 89 83 77 73 81 87 86 90 93 97 89 88 83 81 83 86 77 77 90 90 88 83 82 88 90 80
71 64 72 71 59 45 41 36 29 28 28 27 22 32 40 61 72 88 85 90 99 91 91 88 81 69 66 89 87 85 86 90 94 90 91 90 88 86 85 66 75 89 92 87 88 91 86 73 61
73 77 73 56 50 44 38 34 33 30 27 26 22 30 45 60 85 96 93 91 92 93 90 86 78 69 67 90 83 79 83 87 88 88 89 91 92 93 85 70 70 81 82 83 92 86 75 50 42
71 67 72 65 54 42 34 32 25 26 28 23 26 34 42 57 92 98 98 93 91 92 87 80 75 71 66 74 83 80 78 83 84 82 82 86 87 85 82 74 70 79 86 85 84 78 58 40 34
57 79 82 55 55 41 36 36 35 30 30 27 22 33 45 64 97 99 100 100 100 99 90 83 81 79 76 71 74 77 73 81 80 82 90 89 92 97 92 78 87 72 85 79 80 71 57 50 39
67 83 74 53 46 43 42 39 40 37 42 30 24 54 68 87 100 100 99 97 98 98 98 85 82 83 80 78 75 68 69 80 81 83 88 83 82 91 95 84 91 79 82 86 77 56 50 44 37
66 76 59 55 48 44 45 47 38 39 39 34 30 38 46 77 94 99 99 98 99 100 97 88 83 86 83 83 78 66 66 74 74 81 83 79 78 86 97 95 94 92 83 85 70 50 42 30 23
67 60 55 51 48 48 47 40 44 42 39 33 36 39 36 41 69 86 97 98 100 99 95 89 86 88 87 82 79 67 67 70 71 72 76 79 80 97 98 99 96 94 80 82 58 47 36 29 23
64 57 54 49 49 48 45 48 48 46 42 42 41 39 38 38 37 38 52 79 95 97 94 90 86 89 89 88 84 78 74 72 64 70 74 75 76 88 100 100 98 94 81 74 56 46 33 29 22
59 55 52 48 47 46 50 51 50 46 44 45 44 43 42 42 38 35 32 41 73 83 88 94 91 91 91 90 89 85 82 77 70 63 69 75 76 74 84 93 95 87 82 70 61 39 34 25 21
54 57 56 56 51 51 51 59 65 48 43 47 48 49 46 44 37 37 32 30 34 63 72 78 84 91 90 91 90 88 84 83 78 72 62 73 76 75 79 84 91 78 83 69 48 38 32 23 22
67 63 75 54 56 51 50 60 46 46 50 52 51 52 51 48 43 35 30 31 29 28 44 68 67 79 89 92 90 90 89 84 82 79 69 63 74 76 77 84 88 75 84 69 44 37 29 24 22
68 88 80 62 51 50 60 68 49 46 48 56 54 52 47 46 43 37 34 32 28 29 29 33 60 70 74 94 96 90 89 89 86 83 78 71 66 67 71 74 84 79 83 60 44 38 27 24 18
84 76 76 72 49 55 59 61 46 41 50 54 52 53 53 47 43 33 29 27 25 26 30 30 32 49 61 81 99 100 100 97 96 88 84 80 73 66 70 74 84 84 74 47 40 34 29 22 19
67 72 72 64 52 53 59 56 48 40 41 43 43 39 37 34 32 30 26 24 24 25 28 29 31 30 51 100 99 99 100 100 99 92 87 82 79 75 78 76 84 84 70 53 41 32 28 21 23
69 77 78 67 51 49 57 58 47 40 42 38 35 35 34 34 34 32 27 24 24 23 25 27 30 32 47 80 98 100 99 100 92 86 84 86 83 80 81 78 73 80 61 44 41 36 26 20 26
74 77 74 70 57 52 63 55 45 35 36 34 35 37 38 37 35 33 33 30 27 26 24 22 25 28 48 77 90 100 98 99 100 100 91 90 87 80 80 81 71 76 64 49 47 37 31 22 26
76 57 58 58 63 78 60 75 57 45 47 38 35 37 39 35 38 38 36 32 30 27 26 24 23 24 30 67 98 100 97 97 97 84 78 84 90 84 79 82 76 71 63 53 56 44 33 27 20
65 54 59 63 72 66 64 76 57 43 35 28 32 36 33 29 27 29 29 26 24 27 25 25 24 24 24 28 77 92 100 90 81 91 90 91 89 87 82 80 75 70 63 55 54 46 33 31 26
59 60 67 74 74 84 64 70 50 37 34 34 35 36 37 38 36 36 32 29 26 24 36 31 24 22 24 28 48 88 92 96 90 89 92 97 96 90 87 83 74 70 64 57 52 48 37 33 31
59 66 84 66 84 74 70 76 56 46 44 36 40 37 43 45 46 47 45 41 36 35 33 38 41 34 27 27 35 67 91 99 90 83 84 93 95 94 88 84 75 70 67 56 49 46 37 41 31
65 60 77 50 74 74 71 80 46 40 34 32 36 38 42 43 46 50 49 43 40 38 35 39 40 40 41 45 42 75 100 100 98 89 91 86 85 78 84 84 76 72 69 59 52 43 40 38 34
73 84 63 86 84 88 67 56 36 34 39 39 41 44 45 43 45 51 54 50 44 41 36 36 34 36 39 38 37 52 93 100 99 92 90 88 88 86 83 83 76 71 68 57 49 45 43 35 32
62 64 81 89 63 69 60 67 54 35 35 38 44 49 49 46 46 53 62 58 52 48 41 34 44 44 44 45 43 45 51 63 76 99 98 94 91 90 86 84 79 73 66 54 50 46 40 36 38
74 86 83 77 86 82 81 52 50 42 36 40 50 49 51 52 54 59 63 61 57 53 54 51 52 53 48 44 47 48 47 54 67 86 96 98 95 92 88 84 79 72 63 55 48 43 40 44 50
66 74 75 82 76 94 94 76 46 47 43 43 46 48 58 69 72 72 75 70 68 66 63 65 65 65 60 53 50 46 43 49 63 86 100 99 94 88 85 82 76 69 60 52 47 45 43 49 59

GFSSGP_925_rhum_030.txt.gz
RH
57 41 36 28 29 25 24 21 21 26 23 18 18 18 18 19 21 26 70 71 63 71 71 77 77 77 75 77 83 86 87 87 84 94 91 86 94 94 94 86 81 93 96 98 98 96 95 90 82
55 40 33 27 30 28 20 19 22 23 21 20 18 19 26 24 35 52 62 80 67 71 71 73 78 78 79 79 78 75 78 78 81 96 97 96 94 91 85 81 90 96 98 98 95 94 84 86 88
48 36 30 33 32 29 22 20 18 22 19 18 18 19 22 34 40 46 65 75 68 71 69 75 79 82 85 83 80 77 76 78 86 92 98 96 88 85 84 82 99 96 87 79 79 81 88 91 93
38 30 30 37 36 27 21 22 22 22 19 17 18 20 29 44 44 52 71 72 70 70 68 83 83 84 91 83 81 77 78 81 81 85 91 83 86 87 89 94 87 84 79 77 85 87 89 86 89
38 31 38 40 34 27 24 21 23 23 19 17 18 19 26 47 66 66 72 71 68 68 69 80 85 86 89 82 79 78 78 78 76 86 84 83 87 89 92 90 78 73 63 83 95 95 80 74 69
39 33 42 43 34 28 27 24 23 21 18 16 18 18 25 57 65 74 74 71 71 71 72 76 88 85 76 74 78 78 76 79 78 85 84 86 88 90 95 92 86 91 93 93 96 87 68 59 55
42 42 41 35 34 30 29 23 24 19 18 15 17 18 23 44 76 94 76 71 79 74 80 73 81 86 71 68 71 68 67 88 79 82 81 86 87 91 95 92 90 93 86 94 95 74 55 46 48
37 38 40 36 38 34 25 24 20 19 16 17 16 18 21 48 92 96 86 73 96 80 80 74 72 76 78 87 85 81 87 88 79 79 83 84 80 79 77 80 80 80 88 94 82 66 41 37 39
41 43 43 41 38 29 24 23 23 22 19 21 18 22 42 53 97 96 94 96 99 95 85 79 70 70 71 75 80 82 87 84 82 78 78 86 75 81 81 79 78 89 88 84 76 62 47 42 36
37 42 34 28 30 28 25 21 23 24 24 23 23 29 64 84 93 88 89 88 94 96 96 95 79 73 74 77 78 74 72 78 81 84 86 71 72 74 73 77 75 91 84 78 75 63 55 48 37
38 36 29 34 28 26 27 27 27 24 27 20 22 29 52 80 87 83 84 82 88 91 98 100 88 78 76 77 76 74 70 68 70 73 76 71 79 90 90 84 85 84 90 79 72 57 41 36 30
50 34 30 35 38 37 33 28 30 27 20 22 26 28 28 57 71 79 80 83 88 90 93 99 98 90 84 79 80 75 73 72 72 74 74 75 80 85 85 87 84 89 82 71 60 45 38 33 29
48 47 39 37 43 41 37 36 30 31 26 26 27 29 26 27 42 59 70 73 83 91 94 96 100 99 97 89 84 76 74 72 68 72 74 74 75 78 78 84 92 90 85 73 60 45 36 31 29
44 45 40 39 40 41 43 39 39 29 26 26 26 24 24 25 25 29 45 51 60 68 79 94 100 99 100 95 88 87 82 74 70 70 74 78 74 77 76 91 97 94 89 77 58 44 37 34 30
46 50 45 45 41 38 38 43 43 29 23 25 22 21 26 24 26 27 26 30 32 38 49 69 88 97 99 99 89 90 91 89 80 78 75 77 76 75 76 85 99 92 92 78 59 45 38 34 30
47 43 56 34 38 39 38 32 31 28 29 27 24 22 23 24 24 25 26 28 28 28 31 44 68 84 97 99 100 99 93 92 88 81 79 81 78 74 75 80 97 98 92 76 59 48 40 36 31
46 39 40 45 44 34 38 29 27 27 34 31 28 25 25 27 26 26 27 26 27 27 27 29 41 66 78 99 100 98 100 95 87 84 83 83 85 80 74 75 84 90 88 71 59 48 42 38 33
52 40 44 37 42 48 49 39 40 35 33 32 27 24 23 25 25 24 24 27 28 28 29 30 31 39 55 79 100 100 100 99 93 91 90 87 88 87 85 76 78 83 86 71 59 49 42 38 34
42 43 41 43 48 46 41 41 38 34 31 30 27 24 22 22 21 25 25 25 26 28 31 32 32 34 39 56 88 98 100 100 100 98 98 92 90 90 92 87 84 84 82 75 62 52 42 39 34
48 48 48 51 44 43 41 42 34 30 30 30 29 27 24 23 22 21 21 25 26 26 27 29 29 31 33 43 56 68 88 97 100 100 99 98 93 91 94 92 90 84 82 77 65 51 45 40 39
52 51 59 47 48 43 44 35 36 31 28 24 23 23 22 24 19 21 22 24 28 29 32 31 30 30 32 36 50 65 78 85 89 98 99 98 99 93 92 96 92 88 80 76 67 56 49 44 42
57 53 56 55 54 46 44 31 35 28 26 27 27 25 26 28 28 31 32 34 36 41 44 41 34 33 32 36 46 58 69 75 72 75 89 98 98 99 95 98 96 92 83 75 70 65 61 48 45
53 51 51 52 54 52 46 44 30 25 26 31 32 33 33 33 34 34 37 41 42 47 50 47 44 38 33 36 43 58 65 63 64 71 82 89 99 99 100 100 99 98 85 77 78 68 58 50 48
46 48 49 50 52 70 47 46 25 24 25 29 30 30 35 35 36 36 40 43 42 48 49 48 41 40 44 38 38 50 62 65 67 76 84 89 96 100 100 100 99 100 95 83 79 77 64 52 46
52 58 78 76 85 57 51 50 27 26 28 27 31 36 36 36 38 40 41 43 47 51 51 49 44 38 40 43 45 37 48 65 70 72 77 86 93 97 98 99 100 100 99 92 82 78 72 62 50
58 57 62 56 47 40 54 43 28 30 27 27 30 34 37 39 42 45 45 48 50 53 52 50 48 44 40 42 42 50 56 49 64 78 88 91 89 98 99 100 100 100 100 98 92 90 83 73 64
62 74 45 65 61 55 32 33 28 32 32 29 30 34 41 44 47 47 48 50 52 55 56 58 57 54 49 46 53 53 49 66 72 72 81 88 92 93 93 98 100 100 98 98 96 95 90 85 80
53 47 66 74 68 47 28 29 28 34 31 29 33 38 40 47 48 47 47 52 57 61 64 66 67 67 69 68 65 61 60 60 64 76 78 81 88 98 99 99 99 99 98 96 96 96 93 89 82
59 61 58 50 55 45 27 25 23 27 30 33 33 35 39 52 50 49 50 58 64 67 70 71 71 73 70 71 69 67 65 66 64 63 67 74 83 94 98 97 96 96 98 98 96 95 91 82 76
53 53 44 49 69 62 57 31 27 28 29 31 33 35 41 52 51 49 53 58 66 76 79 76 77 74 70 67 72 74 76 77 76 72 75 90 94 99 98 94 95 94 95 95 95 92 87 86 93

GFSSGP_925_rhum_033.txt.gz
RH
44 46 30 26 30 23 23 18 14 18 16 14 15 15 14 15 21 31 53 55 50 58 70 75 74 74 80 74 83 84 87 84 84 80 89 92 93 96 83 84 92 91 92 97 96 96 92 85 83
47 38 29 25 31 30 21 16 18 16 16 16 16 15 16 16 27 46 52 61 53 57 66 69 74 74 75 76 84 85 87 83 81 86 92 93 95 92 84 83 92 99 99 99 97 89 84 87 89
54 36 31 30 31 30 22 16 13 18 16 16 16 15 17 29 32 38 54 55 54 55 61 73 75 76 77 77 76 75 81 82 79 91 95 95 90 84 81 96 98 96 87 82 77 69 81 84 94
39 30 28 36 32 25 19 15 13 18 16 15 16 18 23 36 36 45 58 53 54 54 58 80 80 80 80 77 78 76 77 77 84 87 90 87 86 86 87 94 88 83 78 74 74 76 75 81 79
40 32 39 37 31 22 18 16 17 18 17 15 15 18 26 45 47 53 54 53 52 52 62 78 81 81 81 79 77 78 79 80 85 82 80 87 88 90 95 94 86 83 74 73 88 79 73 72 70
41 33 42 40 32 22 19 17 17 18 16 15 16 15 32 48 49 55 55 53 53 53 62 76 81 83 83 81 78 78 83 80 77 81 82 88 90 92 86 76 73 65 74 93 92 76 64 57 57
74 42 44 34 28 26 21 18 19 16 16 15 14 16 27 41 62 57 55 55 56 56 58 68 78 86 76 76 78 76 76 81 77 78 75 88 90 92 77 74 77 81 84 96 85 64 51 46 50
60 51 50 35 31 27 20 20 18 18 16 13 14 17 20 45 73 72 55 57 59 60 60 59 64 71 74 78 70 79 78 81 81 78 70 81 85 85 89 84 89 90 90 96 79 59 39 38 40
33 59 59 40 31 26 19 23 18 16 15 15 14 18 35 54 80 82 61 70 78 64 64 57 57 60 63 69 81 72 72 90 82 76 76 74 72 80 68 86 78 82 90 92 78 59 42 39 36
44 50 44 27 24 27 22 22 17 21 18 16 18 25 44 62 80 81 82 81 87 84 69 61 56 56 59 62 75 78 82 91 79 76 90 70 63 66 64 78 78 92 90 87 76 63 51 46 41
37 37 30 24 26 24 23 22 15 21 18 16 16 22 43 60 76 76 77 75 81 85 89 86 65 60 60 62 64 62 61 67 68 76 81 67 61 68 70 77 79 94 87 89 78 67 54 41 34
40 30 23 23 27 30 26 20 22 21 16 14 17 23 25 47 52 62 73 66 70 82 87 91 86 67 63 63 65 62 61 61 59 62 63 70 65 71 80 74 71 69 75 68 66 52 41 39 34
43 28 27 26 35 31 23 23 22 21 19 21 22 24 23 23 35 48 61 60 65 69 84 89 96 87 70 67 66 65 64 63 61 61 62 61 64 75 79 84 82 77 78 65 60 48 40 36 32
40 36 33 30 37 36 35 27 27 24 20 22 21 21 19 20 22 28 43 50 54 60 71 84 92 97 92 76 71 72 66 64 62 60 61 62 60 63 66 71 83 83 83 73 64 52 40 35 33
38 41 39 34 35 35 35 38 34 25 22 22 20 19 18 16 17 22 24 32 39 42 50 61 77 92 96 84 78 75 75 70 65 62 63 64 64 62 63 65 74 81 88 77 68 53 41 37 35
45 44 50 36 39 34 37 37 25 23 24 24 19 17 16 15 17 17 21 24 26 28 30 37 52 72 82 82 78 76 72 77 75 70 65 66 66 66 63 63 79 80 93 82 72 56 44 40 37
45 45 40 34 32 35 40 34 22 20 22 23 20 18 18 17 18 17 16 20 24 25 26 27 31 46 61 70 85 95 86 75 74 72 69 68 71 69 67 65 68 79 89 85 73 58 48 43 38
41 38 28 29 41 36 35 35 22 26 24 25 20 19 18 18 17 18 18 18 20 22 23 24 25 27 38 53 70 88 96 98 82 69 68 69 71 75 72 70 67 86 89 85 71 60 50 45 41
23 32 27 24 38 41 39 32 26 27 27 25 22 20 18 16 16 18 22 23 24 24 25 26 27 27 29 34 46 88 96 98 100 93 70 72 74 76 79 77 70 71 82 84 70 61 51 46 40
36 35 36 32 36 40 28 34 29 27 26 23 22 20 18 17 17 19 18 20 22 23 24 25 27 28 29 30 32 43 74 88 95 96 97 94 84 80 80 84 82 75 77 79 73 62 53 47 40
36 37 35 43 43 37 38 36 32 26 27 25 22 21 20 20 19 18 21 26 30 31 33 30 28 28 28 29 30 36 49 64 79 91 96 98 99 89 81 83 89 84 79 81 76 66 56 51 44
42 33 43 50 48 35 34 20 30 29 26 24 22 20 20 22 23 26 27 30 33 40 45 40 39 33 30 30 30 34 42 56 66 67 73 86 92 96 94 84 87 88 86 87 80 71 60 55 50
46 43 46 50 52 50 42 38 26 24 27 28 28 29 28 28 28 28 32 36 35 43 48 47 40 35 36 33 33 34 39 46 55 60 61 64 77 89 94 92 88 94 91 90 84 75 63 61 59
43 46 47 47 49 71 42 35 28 24 22 27 27 27 29 28 30 31 35 37 37 46 49 48 43 37 35 38 40 35 39 42 49 54 57 62 69 79 84 91 92 94 92 95 89 81 70 70 64
46 51 75 77 85 63 41 46 26 21 20 23 26 29 29 30 32 36 38 41 43 48 50 47 43 41 38 35 37 39 38 37 45 52 57 62 72 75 84 89 95 94 99 95 91 88 79 76 71
57 50 63 63 58 48 42 45 28 21 22 22 28 30 32 35 37 40 42 43 44 47 50 50 50 48 45 43 39 42 42 47 46 42 56 68 76 78 80 87 89 95 96 97 100 95 90 85 79
70 72 42 55 38 43 33 28 27 27 26 24 26 28 35 39 42 42 41 42 46 50 52 55 56 55 55 56 55 48 46 45 52 60 61 64 69 74 77 84 86 87 90 100 100 100 94 91 89
66 47 71 73 75 40 30 22 27 32 30 27 27 32 35 39 43 41 41 45 51 55 58 59 60 60 61 61 60 58 55 54 54 53 58 64 65 69 83 91 90 96 99 99 100 100 99 98 95
59 65 53 51 50 51 25 22 22 26 28 31 31 31 34 41 46 44 44 49 53 58 62 63 63 66 62 62 58 60 60 61 62 58 54 53 62 72 80 90 90 90 94 99 100 100 100 99 96
46 45 42 51 63 46 48 35 20 26 28 29 32 33 33 44 47 45 45 48 54 63 66 67 68 67 68 65 63 63 65 69 69 67 71 72 78 82 89 89 91 92 93 96 98 100 100 97 93

GFSSGP_925_rhum_036.txt.gz
RH
34 43 38 32 50 41 39 26 14 19 16 15 15 15 19 20 48 74 46 49 64 77 81 76 75 70 77 88 80 84 86 87 85 84 90 93 98 90 84 93 90 95 90 97 97 91 89 90 89
35 45 35 44 50 48 36 22 20 16 20 18 17 16 16 43 48 53 56 52 61 73 77 76 74 74 77 77 82 81 87 81 76 81 92 91 97 88 82 93 98 95 99 98 79 84 89 88 91
36 47 49 48 48 46 36 21 18 20 17 18 18 14 17 43 40 49 56 51 58 66 69 77 76 77 75 77 84 86 80 75 75 84 92 96 90 82 95 98 98 89 84 76 66 81 83 88 82
50 39 41 52 44 34 28 17 15 20 17 16 17 21 37 43 43 54 54 52 56 60 70 76 75 75 77 77 74 74 78 72 70 82 86 89 86 86 97 94 85 80 75 72 68 72 71 70 69
50 47 54 50 44 30 23 17 18 19 18 18 16 25 53 45 50 53 51 52 53 68 75 75 80 80 77 74 72 75 79 77 69 78 84 88 90 95 96 88 82 79 78 91 94 73 65 64 62
84 47 60 57 41 29 23 18 18 19 17 16 17 26 55 47 51 51 50 50 50 70 78 80 80 81 80 76 74 73 82 81 74 75 83 91 93 94 96 84 81 78 93 92 74 62 55 52 53
81 77 62 51 40 32 25 18 19 19 18 17 15 24 54 61 54 53 51 50 51 62 74 82 82 82 81 79 77 75 76 76 73 75 66 88 93 95 95 91 75 73 88 90 72 56 48 46 52
61 65 72 56 47 36 24 20 20 20 18 14 15 36 73 68 66 53 53 54 54 57 67 77 83 82 77 79 79 79 76 79 74 77 65 67 64 75 88 84 87 86 92 92 73 52 39 40 40
54 82 84 74 59 37 22 24 20 16 18 15 16 42 60 72 73 63 60 61 60 60 59 63 71 71 71 67 73 79 78 83 73 74 73 61 60 55 64 85 83 87 90 91 75 54 41 40 37
54 75 68 54 49 41 25 24 24 22 22 18 23 41 63 73 76 74 74 80 81 67 61 56 59 62 64 71 65 64 71 73 75 72 78 63 72 62 67 78 82 81 90 86 78 62 48 45 40
50 60 51 62 48 35 28 25 21 24 27 20 21 40 52 67 71 75 76 76 79 76 73 64 56 56 60 64 68 78 84 80 75 74 75 68 66 66 68 72 72 81 89 83 78 67 55 42 39
47 44 37 33 32 31 30 23 24 22 22 19 21 29 52 60 70 71 72 70 79 80 78 71 68 60 59 61 67 64 68 70 79 79 74 69 64 68 69 73 72 67 79 81 76 62 48 42 37
50 38 31 28 36 33 29 28 24 24 22 24 26 27 25 34 50 55 65 65 66 78 82 84 79 73 63 62 63 63 61 62 61 63 72 72 64 67 66 72 73 68 75 71 68 61 47 41 36
40 40 35 29 36 35 34 28 25 24 22 24 24 26 25 24 25 39 57 60 60 66 79 84 85 78 76 68 65 66 65 63 62 61 62 65 68 66 65 71 82 80 71 71 68 61 47 39 34
38 48 40 35 39 38 36 42 36 26 22 25 25 24 23 21 19 23 25 44 51 58 66 77 82 87 85 80 74 70 70 67 65 62 61 62 62 66 72 71 71 80 83 76 71 64 53 39 35
48 45 59 41 39 36 40 49 34 28 29 30 26 24 23 22 19 17 19 23 26 31 42 64 78 82 84 87 86 77 72 72 70 67 63 62 63 63 63 64 70 68 72 83 76 69 55 41 37
54 60 58 45 38 39 43 43 32 25 27 30 29 26 21 20 18 16 16 16 22 24 26 27 41 74 76 80 79 82 78 78 74 74 72 67 65 66 66 64 65 73 70 75 80 76 60 44 40
70 56 48 48 43 43 48 47 32 25 26 26 26 24 22 21 20 17 18 18 19 22 24 24 26 29 34 63 73 78 79 77 82 79 75 72 70 69 68 68 66 68 77 75 77 79 63 50 43
38 44 42 33 39 44 45 42 35 30 30 32 31 27 24 21 17 16 22 22 23 23 24 24 26 26 26 29 42 71 80 80 76 84 79 74 70 70 76 72 72 73 75 76 76 80 64 53 46
33 39 39 30 39 41 39 41 33 29 31 32 30 27 24 22 19 22 18 20 22 23 24 25 26 28 28 29 30 36 73 76 71 73 70 76 79 76 74 79 78 75 82 84 83 76 67 56 47
40 41 37 43 45 39 41 44 38 31 29 28 25 24 23 23 23 22 23 30 33 38 37 36 31 28 28 28 29 30 31 50 80 86 85 78 78 87 86 82 76 80 78 84 88 76 69 57 49
47 33 34 50 55 58 40 38 36 35 34 29 25 25 24 24 29 32 32 34 38 46 48 45 40 38 33 29 29 30 32 37 46 71 76 80 78 77 79 88 95 80 84 79 81 85 74 61 52
40 44 47 51 57 58 48 55 34 36 34 30 31 34 34 33 33 34 36 36 42 47 50 50 46 38 35 39 37 33 34 35 38 43 61 68 70 74 85 84 88 98 86 90 86 87 82 67 62
42 52 52 50 56 89 58 46 44 38 31 34 35 35 35 34 36 36 38 39 43 48 50 50 44 43 40 37 37 41 37 36 40 43 53 58 59 64 72 80 78 82 88 93 96 95 92 76 67
48 63 89 94 95 87 46 50 41 23 28 32 32 36 34 34 43 45 46 46 46 48 50 51 51 50 48 46 42 39 41 44 43 38 40 52 60 66 70 70 74 84 86 89 94 100 98 89 72
59 59 83 73 90 73 43 64 38 26 26 28 34 34 36 37 48 48 46 46 46 49 52 54 56 56 56 58 58 53 46 46 46 53 55 48 55 67 71 71 74 79 86 88 86 89 99 98 87
71 84 46 70 40 76 57 36 29 28 28 33 33 33 41 42 48 47 44 46 49 53 57 60 60 60 62 61 61 60 58 55 54 52 53 62 68 72 75 78 86 81 87 87 88 91 99 100 98
64 48 75 93 78 62 46 39 42 39 35 30 33 31 40 46 49 49 48 50 53 57 61 62 63 65 65 64 61 59 60 61 61 60 57 53 56 64 69 76 77 80 86 100 100 100 100 100 100
82 83 67 62 70 85 52 39 31 34 31 32 32 34 35 43 54 51 49 49 54 61 65 66 68 68 68 66 65 65 67 70 71 70 68 69 67 72 72 82 88 84 82 83 84 92 98 99 100
67 67 63 85 75 64 68 50 27 31 34 35 34 33 35 54 54 51 48 49 58 66 70 71 74 72 69 68 72 78 82 82 81 81 81 80 83 84 88 88 91 90 90 88 89 94 98 99 99

GFSSGP_925_rhum_039.txt.gz
RH
38 33 44 40 54 58 54 39 19 20 20 20 17 20 23 36 57 68 58 58 68 71 77 70 73 72 74 78 79 81 86 86 83 89 84 96 89 83 94 88 95 94 98 96 92 92 91 90 81
36 33 43 52 63 63 54 32 20 25 22 19 18 18 34 64 57 62 63 73 69 75 76 75 69 74 87 72 73 79 82 81 70 74 88 97 87 83 92 98 97 98 98 93 84 85 88 84 51
37 41 59 62 66 65 51 28 23 22 19 19 20 16 41 53 60 56 59 76 70 75 78 78 74 72 72 77 73 73 75 71 71 77 84 90 83 92 99 99 96 91 81 85 80 86 89 73 58
46 50 51 63 66 49 39 32 24 21 18 18 19 56 51 52 54 56 60 72 68 76 76 78 79 74 75 82 73 75 75 70 73 78 77 85 87 96 98 95 82 78 75 59 59 66 63 62 59
47 68 71 64 58 47 33 21 21 22 20 19 18 50 66 58 57 54 61 65 69 75 76 77 78 78 77 76 74 76 74 72 73 74 80 89 90 96 94 84 82 79 68 60 61 62 60 60 60
87 86 82 74 58 42 32 22 19 21 19 18 41 58 65 56 54 53 57 62 65 74 75 74 78 79 77 74 74 74 75 71 73 73 88 92 95 96 96 81 77 72 90 74 64 54 49 49 58
81 91 89 70 59 46 35 21 20 19 19 18 20 66 74 66 52 53 57 66 72 74 77 79 81 80 77 75 75 77 73 75 72 72 74 84 82 95 97 87 81 91 93 77 60 51 45 46 49
69 86 84 66 64 56 37 22 21 19 20 16 22 67 89 71 60 54 56 67 70 70 71 78 82 82 81 78 76 75 76 74 71 74 64 72 60 62 76 78 85 88 91 84 62 45 40 41 41
60 87 87 76 66 54 44 41 20 19 20 27 41 66 77 69 68 60 58 66 74 73 71 72 75 79 80 78 78 79 76 75 74 74 69 56 58 64 67 78 80 83 88 88 69 47 39 38 37
86 87 76 53 52 57 52 45 23 22 22 25 70 82 75 70 76 74 67 75 68 72 76 72 70 61 60 67 77 79 79 80 76 72 75 57 50 50 65 79 80 79 86 85 77 56 45 45 41
75 78 57 50 46 73 63 56 28 26 26 24 65 88 81 80 81 84 79 74 76 73 76 76 66 62 68 72 56 75 79 76 78 73 74 74 64 66 65 71 78 72 86 83 77 65 52 44 40
62 54 51 48 74 74 63 41 28 25 26 30 39 66 78 85 86 83 82 74 76 74 74 74 66 64 66 70 67 56 66 75 80 74 74 72 69 74 74 68 69 69 73 80 75 70 61 45 39
61 46 43 47 58 60 60 48 34 25 32 30 32 47 72 78 78 75 74 77 73 70 70 70 72 65 66 65 66 65 68 73 68 75 77 73 66 72 69 69 70 69 58 70 73 71 53 44 40
49 48 44 38 48 45 59 38 34 25 28 30 29 27 27 41 64 70 73 70 80 77 75 63 71 71 68 70 67 66 64 65 64 69 72 76 69 68 69 69 73 72 71 71 72 71 61 48 41
44 53 47 43 44 41 36 41 40 31 26 28 27 27 24 23 22 52 64 63 67 68 71 72 59 70 72 70 66 67 67 66 63 62 62 65 73 71 68 68 70 78 79 74 72 70 64 51 41
56 52 67 46 45 40 35 53 39 33 30 31 29 27 26 25 20 18 28 50 57 63 71 71 73 68 69 75 72 68 71 69 67 65 64 62 62 64 67 70 69 68 78 80 78 69 67 60 44
74 75 68 52 44 42 45 53 39 34 34 35 35 33 31 26 23 19 17 17 20 31 53 65 74 74 72 69 71 72 73 70 70 73 68 64 62 62 63 67 69 71 72 78 78 79 71 65 46
79 66 59 59 48 44 52 53 42 28 35 36 33 29 26 25 22 19 19 20 21 24 26 28 44 76 72 72 76 75 77 76 77 76 77 72 70 67 64 64 65 66 69 72 75 75 77 74 60
58 56 54 50 42 51 54 51 41 39 31 34 32 31 28 25 20 24 24 23 23 23 24 25 25 28 41 77 87 85 84 77 70 71 73 78 77 77 72 68 68 68 67 70 74 77 79 79 57
51 59 54 43 43 48 53 54 44 40 36 36 35 34 30 25 26 22 23 24 26 26 25 25 25 26 27 30 33 55 79 80 76 72 68 64 67 72 73 74 74 75 70 71 79 83 83 81 62
52 48 51 51 46 41 41 46 43 38 33 34 33 30 25 23 25 26 37 39 36 37 36 37 35 31 28 28 29 29 31 57 74 71 72 70 67 62 62 64 69 83 82 77 79 81 89 76 67
56 39 44 56 57 62 40 56 37 39 36 35 32 28 25 24 35 40 41 44 44 46 47 46 43 38 36 36 33 29 30 33 33 41 65 66 67 73 72 67 67 71 87 94 89 83 83 85 73
49 48 55 54 62 59 50 64 48 39 43 36 31 31 32 35 41 44 41 46 50 48 49 48 46 42 41 39 41 41 38 34 33 34 39 43 58 72 69 72 75 77 80 88 100 95 95 91 82
47 56 58 60 66 87 63 63 52 47 39 37 41 42 41 42 43 47 44 47 52 50 50 50 50 49 47 46 45 43 44 45 43 38 38 41 46 64 66 64 72 80 76 81 84 95 100 99 93
55 68 95 93 94 90 53 64 48 34 34 40 44 42 40 42 53 56 56 52 51 52 54 55 56 58 58 58 56 54 54 51 49 51 56 57 46 55 74 73 75 75 71 76 82 89 97 100 100
73 63 84 87 96 84 49 70 49 31 31 34 38 42 44 56 59 58 55 53 54 56 59 61 61 62 62 62 61 60 60 59 57 55 54 57 67 64 72 71 59 65 69 77 75 83 87 97 100
75 77 50 68 56 83 63 45 33 31 41 40 43 45 51 59 60 57 54 54 58 61 64 64 66 67 67 65 63 60 61 64 66 62 59 56 55 68 71 75 78 80 81 74 78 88 92 98 100
74 55 82 91 89 70 62 49 50 41 42 41 40 42 48 55 60 59 58 58 62 64 66 68 70 70 69 67 67 71 74 75 76 74 74 74 72 74 77 74 75 71 78 77 78 88 88 88 97
86 84 69 71 83 87 57 48 35 36 34 38 37 34 42 62 62 60 59 60 66 68 70 73 73 73 70 71 76 74 78 80 81 81 83 83 83 82 82 81 82 88 87 86 87 84 84 84 88
70 76 65 87 77 74 81 60 31 36 34 33 33 36 46 62 61 58 55 65 70 74 75 77 77 76 73 80 78 79 82 81 80 82 81 83 87 88 87 86 90 92 92 95 97 98 100 100 100

GFSSGP_925_rhum_042.txt.gz
RH
35 32 37 41 54 63 62 47 24 22 22 20 19 42 53 53 53 47 66 74 72 77 85 77 87 84 83 83 86 85 86 85 89 96 97 86 75 74 94 96 97 97 95 94 93 92 90 79 51
36 32 41 57 67 70 60 39 30 24 23 24 21 24 54 69 60 92 85 79 64 66 86 88 86 82 83 80 82 86 86 90 82 82 91 81 68 92 95 96 96 97 96 89 87 88 85 56 52
34 36 59 62 72 68 55 31 28 23 22 20 20 36 52 64 63 73 72 76 70 74 75 78 76 82 78 73 80 81 83 79 76 76 84 80 88 97 97 99 96 86 80 66 74 78 58 47 45
34 50 58 69 71 54 43 41 26 22 20 19 37 64 58 60 57 66 78 74 75 75 72 72 80 83 72 73 79 80 79 71 73 73 66 88 94 99 95 93 87 79 71 70 57 55 55 52 50
46 68 81 70 64 52 44 36 25 22 21 20 31 65 71 62 63 75 79 76 74 81 81 80 75 74 80 76 78 76 76 72 75 70 85 91 96 96 96 82 75 69 54 64 60 57 56 55 55
85 82 92 87 63 46 42 36 26 22 21 29 68 73 71 63 69 81 78 73 71 78 81 82 80 77 78 76 76 77 75 71 73 70 91 92 94 98 98 82 77 66 54 60 60 53 51 53 55
65 89 90 82 71 57 42 44 26 21 20 21 56 82 75 64 64 74 71 72 74 77 78 77 77 78 78 76 73 76 77 72 72 70 84 91 87 93 99 92 94 93 86 69 56 49 45 48 53
58 71 78 73 67 65 51 48 39 20 20 18 45 88 87 71 66 69 74 76 76 77 77 78 79 79 76 76 75 74 78 75 72 70 54 67 68 89 81 74 70 87 88 70 56 45 43 45 47
65 92 83 77 68 64 51 60 46 24 38 53 80 76 73 74 69 82 84 82 80 79 78 80 79 80 76 75 78 78 77 77 73 72 58 50 47 58 62 59 66 86 89 81 60 42 40 40 38
82 80 74 54 53 63 62 66 58 33 31 69 92 84 80 74 73 84 87 90 87 84 81 76 76 78 80 76 78 82 81 81 76 74 73 52 49 51 58 69 73 82 89 88 74 51 42 41 39
86 77 55 50 48 80 73 67 54 47 29 58 85 88 84 90 83 84 85 84 81 79 77 76 73 68 73 78 77 79 81 83 80 75 73 72 51 54 67 78 81 79 78 86 81 68 50 46 41
84 60 51 56 80 71 74 67 64 41 29 26 73 84 84 92 92 86 84 80 83 82 78 77 75 68 62 64 67 72 77 81 83 78 74 75 63 65 70 66 66 68 66 78 77 72 64 53 42
61 59 55 63 75 78 74 72 69 60 37 36 77 80 84 86 86 80 76 74 76 78 83 79 76 72 69 72 64 62 68 72 74 79 76 75 72 67 71 71 69 68 69 64 67 68 67 59 46
59 51 56 69 72 72 82 73 72 40 28 42 53 76 83 82 78 80 78 73 73 71 73 76 80 74 70 73 71 67 63 62 71 75 74 75 76 67 70 70 71 71 71 66 61 68 67 61 48
51 62 55 54 55 55 57 79 69 42 32 32 32 33 37 48 72 77 69 74 70 64 60 64 71 75 79 72 71 70 68 67 68 69 68 70 73 75 69 70 70 72 72 72 71 73 74 70 60
56 56 70 51 50 46 49 62 50 38 37 35 32 31 28 26 25 52 66 66 70 73 70 62 63 68 73 77 74 71 71 70 70 66 65 65 66 72 74 71 70 72 74 76 76 74 75 74 65
76 80 68 58 47 47 42 50 40 35 38 37 38 35 32 30 26 22 29 59 62 67 70 71 69 66 66 72 74 72 69 74 74 68 64 65 65 64 67 72 71 71 74 80 82 80 78 76 64
78 77 58 56 52 48 53 54 40 39 38 40 40 38 31 26 25 21 22 23 26 36 56 75 79 78 77 74 74 76 77 73 73 70 69 72 67 65 64 65 64 66 73 75 78 84 82 82 76
64 57 64 54 46 49 50 55 46 42 36 40 38 34 30 26 28 27 27 26 26 26 26 27 47 76 83 86 86 83 82 79 74 72 74 73 74 79 79 74 68 67 69 69 72 74 82 80 83
61 62 60 47 44 51 55 56 48 46 44 38 35 36 34 26 28 28 30 30 30 30 30 32 31 30 30 39 65 85 89 88 84 81 74 72 74 74 72 72 72 76 74 73 75 81 89 88 88
60 67 56 51 48 43 46 51 50 44 42 37 38 35 34 30 28 35 45 42 39 38 39 37 36 36 37 32 30 30 32 45 65 67 71 64 69 75 75 71 73 73 73 75 75 79 86 96 89
69 45 43 55 59 72 42 68 42 41 43 42 40 38 33 28 30 45 47 49 47 48 46 44 44 41 40 41 41 39 34 33 31 33 34 36 55 68 73 76 75 74 78 84 81 86 95 99 96
54 45 59 56 63 60 53 58 47 41 50 44 46 36 33 35 48 49 50 53 52 49 47 46 46 46 45 42 41 42 44 46 45 41 38 36 37 45 43 67 80 70 66 76 77 84 95 97 100
54 59 64 70 68 82 64 63 62 48 45 41 38 39 38 48 51 53 54 55 55 53 51 51 52 54 53 53 52 50 51 50 48 48 51 52 46 41 46 60 66 77 74 76 77 81 91 92 99
57 65 92 90 92 82 58 71 49 40 36 39 46 51 51 53 62 64 65 60 57 57 57 58 59 60 60 58 58 59 58 58 57 57 56 56 61 60 49 62 75 78 78 76 79 76 76 83 94
64 59 85 83 98 81 54 71 54 36 34 36 41 44 48 57 66 66 64 60 61 63 63 63 65 66 64 63 61 61 62 63 64 64 63 60 58 73 73 79 72 81 83 74 68 76 79 88 87
73 81 56 72 70 86 67 56 38 38 42 45 45 47 52 65 69 67 62 61 64 66 67 68 69 69 68 67 66 67 69 72 76 73 72 71 64 58 75 80 76 74 70 74 80 80 81 82 88
72 59 80 91 85 74 62 63 52 43 49 46 48 52 62 65 68 66 68 67 68 68 70 70 70 70 69 70 71 74 78 80 82 82 80 81 83 86 87 82 79 75 72 80 86 87 87 90 93
86 95 81 79 79 87 72 58 40 41 45 46 46 49 58 66 68 67 69 70 72 73 72 73 73 72 71 74 75 75 77 80 82 82 84 87 86 86 84 84 82 79 84 88 92 94 95 97 100
74 85 66 91 90 84 83 62 36 37 40 43 40 37 41 63 65 67 72 77 78 80 79 77 77 76 77 78 78 81 83 83 82 81 81 82 83 87 87 87 87 88 88 90 90 92 94 98 96

GFSSGP_925_rhum_045.txt.gz
RH
38 37 40 39 56 65 62 49 34 26 22 20 22 36 36 59 49 46 75 85 79 88 80 84 78 85 82 84 83 85 86 88 90 97 90 80 74 94 96 96 97 96 95 93 93 93 90 85 77
43 39 40 60 66 72 59 44 35 26 22 26 37 44 62 65 68 96 93 96 76 76 76 87 81 80 80 78 84 84 86 89 84 91 79 69 75 92 96 94 95 94 94 86 87 87 83 72 76
47 39 56 64 75 68 53 38 42 27 24 24 28 51 61 68 83 83 80 99 86 83 74 89 82 84 78 79 82 85 88 85 83 81 70 62 92 92 88 91 90 76 65 58 73 62 58 67 72
42 48 64 75 74 57 46 44 40 30 21 22 49 68 64 65 73 68 88 88 77 80 84 86 82 81 79 84 86 86 82 78 80 71 58 73 95 91 91 96 84 75 56 44 46 51 48 51 68
51 63 81 75 67 57 46 41 38 34 29 23 44 76 75 71 67 80 86 80 73 79 81 81 79 78 77 86 83 84 76 73 72 65 78 94 100 88 95 87 78 69 46 49 50 53 53 53 67
77 76 88 90 71 56 49 48 40 28 24 49 72 77 76 81 90 90 84 79 72 74 73 77 84 73 79 86 87 83 76 72 70 58 90 91 90 93 100 84 79 66 66 67 61 57 54 55 61
74 80 87 83 76 66 48 54 39 41 25 30 68 86 79 75 90 85 82 80 82 82 83 79 77 84 84 84 82 78 77 72 69 57 71 93 90 97 99 84 76 76 87 75 62 55 52 58 60
61 74 84 78 70 70 57 60 50 52 27 30 59 87 84 80 85 82 82 83 84 85 83 82 79 76 80 81 77 75 75 73 71 63 60 69 76 89 94 78 76 78 70 58 52 48 49 53 58
70 82 72 72 67 65 57 71 59 50 42 64 92 79 78 77 84 86 90 89 85 82 81 80 78 75 78 79 77 79 79 76 74 70 58 63 65 81 71 71 68 88 84 71 53 41 40 42 44
89 84 69 48 56 70 65 69 66 58 56 62 95 92 88 91 88 93 94 93 87 84 81 80 79 77 78 77 79 81 79 81 76 74 65 54 52 59 64 60 66 88 90 88 73 50 41 40 38
86 81 59 53 64 78 74 62 63 62 52 43 64 95 93 93 92 94 93 88 82 80 83 83 80 78 75 76 79 83 85 85 81 76 74 64 51 55 60 66 69 73 83 84 82 72 52 44 43
84 60 52 66 70 71 68 70 74 60 48 47 47 82 93 91 92 91 91 88 84 82 79 77 79 76 77 75 78 81 85 85 84 79 77 75 65 49 52 62 71 71 70 69 78 76 70 57 49
77 61 50 74 75 72 75 77 83 77 56 42 44 89 93 92 90 88 84 82 81 82 78 75 78 74 74 78 75 76 76 82 81 80 78 76 75 62 54 59 61 64 69 65 68 71 72 68 60
71 60 70 76 73 71 73 70 84 61 50 45 84 87 86 91 90 87 85 85 85 82 78 75 79 73 70 68 71 68 68 70 76 75 78 77 76 75 60 66 69 71 71 70 69 64 62 67 62
67 75 86 85 76 83 70 88 92 62 57 48 37 85 81 82 81 83 82 78 75 81 82 80 75 77 72 70 71 72 66 69 67 67 71 76 75 77 76 67 69 69 69 72 75 73 70 75 75
71 74 89 74 75 70 65 77 71 64 59 50 40 37 37 44 68 66 66 65 64 68 72 74 80 82 82 71 69 74 72 71 70 70 70 70 72 74 76 78 74 71 71 72 76 76 76 77 78
74 89 77 67 58 66 60 64 52 54 50 49 42 39 35 31 28 33 54 67 65 63 65 68 73 76 78 81 78 75 74 73 72 71 72 70 70 70 70 73 73 74 74 73 76 78 80 80 78
87 86 71 66 57 70 69 55 57 52 50 41 40 40 41 36 31 24 23 35 69 69 68 71 73 76 78 79 84 85 84 82 82 81 78 74 70 68 68 71 71 75 79 79 80 82 82 84 82
69 65 71 54 51 56 68 54 56 61 57 44 46 45 42 33 29 31 28 27 31 39 55 72 76 78 82 85 87 85 82 81 82 81 80 80 76 76 76 73 70 71 76 74 77 84 93 95 94
67 66 67 51 49 53 54 55 46 45 45 45 41 43 40 31 30 33 32 30 30 32 32 32 41 46 53 66 87 92 89 86 84 80 80 81 83 81 79 77 73 73 78 80 78 82 92 95 98
65 70 61 60 51 47 54 58 54 47 50 43 43 39 37 36 33 42 46 43 41 39 37 35 34 32 31 30 32 37 45 49 62 80 81 80 85 85 85 87 88 86 86 84 80 82 89 98 96
76 49 50 57 62 76 49 84 50 45 46 48 43 48 44 37 31 46 53 54 49 51 49 47 44 41 39 38 36 35 33 34 32 32 33 34 36 41 52 65 72 75 79 82 77 78 90 95 100
62 48 50 58 65 59 54 67 53 38 42 42 46 50 44 37 36 53 56 56 56 52 49 49 49 49 51 47 44 44 46 47 46 46 44 39 34 34 36 43 42 57 82 81 82 85 88 90 99
55 60 64 71 67 88 64 64 64 44 41 35 39 48 40 38 54 56 59 60 59 56 54 54 53 55 55 55 56 55 55 54 52 51 52 54 55 53 46 43 57 64 72 81 81 83 84 85 87
52 66 94 94 93 88 66 65 46 39 39 39 38 43 40 54 63 72 75 66 62 60 60 58 58 59 60 58 58 59 60 62 61 62 61 57 54 55 63 63 75 80 89 93 90 82 78 78 80
66 61 88 86 97 80 59 75 56 40 36 36 38 43 53 63 73 74 72 66 65 64 63 62 63 63 62 61 62 63 64 66 70 70 68 67 63 57 76 88 89 87 86 86 91 90 87 82 88
72 76 54 77 76 88 71 59 39 38 39 42 49 54 60 67 74 74 70 68 69 67 67 66 66 65 65 66 67 68 70 72 77 78 79 78 76 69 72 84 80 76 72 71 82 91 92 99 97
70 62 76 90 80 81 66 66 54 37 40 46 51 53 56 67 74 75 72 73 72 71 71 69 68 68 68 69 70 71 73 79 82 83 84 86 88 89 89 86 82 78 76 77 84 90 93 96 99
78 90 83 78 78 78 79 59 47 39 40 47 48 51 60 72 75 74 76 75 76 76 74 73 73 72 72 72 73 74 77 79 81 82 84 87 88 87 86 87 85 82 82 85 89 91 94 99 98
77 85 78 90 87 87 84 72 35 41 42 45 48 50 60 67 71 74 79 81 80 79 78 77 76 75 75 76 76 79 83 83 83 83 82 82 84 85 86 87 87 86 86 87 85 85 87 89 90

GFSSGP_925_rhum_048.txt.gz
RH
62 45 46 39 50 64 56 44 40 32 23 22 22 29 36 53 47 46 86 90 76 85 85 77 85 76 75 82 83 85 86 89 87 82 82 77 75 95 96 97 97 97 94 92 93 94 92 90 94
68 48 41 59 64 66 55 46 38 33 24 49 40 48 58 66 76 99 97 98 81 84 82 83 80 83 83 80 82 84 88 90 88 90 79 72 91 95 94 98 94 97 87 88 89 83 79 69 80
57 47 51 63 74 65 48 41 46 38 30 27 43 58 66 73 89 92 84 96 91 85 79 83 81 82 80 81 82 83 89 86 94 83 68 84 92 95 91 94 85 76 50 80 83 79 70 76 78
52 47 60 70 72 56 47 46 42 42 25 26 47 65 68 71 80 76 91 96 93 79 84 88 81 80 78 83 83 88 84 83 85 66 63 93 92 90 93 90 80 74 44 58 66 61 66 72 74
57 58 73 76 66 58 48 44 52 40 33 25 51 73 78 78 75 92 97 96 92 80 89 85 84 81 78 82 84 86 80 78 75 56 64 95 83 81 88 92 83 71 58 62 62 61 56 67 75
71 73 78 83 70 59 56 56 53 50 31 44 71 79 81 98 99 100 93 90 78 80 90 84 83 81 77 87 88 82 78 75 70 50 54 91 82 85 99 83 76 54 61 65 64 62 63 65 73
73 78 80 78 75 63 54 58 57 64 42 32 70 85 84 92 100 94 82 80 79 82 85 79 77 77 79 88 86 83 78 75 68 50 68 75 85 90 98 88 75 53 57 56 49 49 56 60 63
74 75 85 77 73 65 61 57 56 64 51 44 71 82 90 84 96 92 89 86 85 82 80 88 80 81 85 80 81 79 79 73 68 59 78 86 83 87 91 78 78 66 65 56 51 48 46 52 56
84 88 86 78 72 64 65 62 61 56 52 50 93 93 90 90 93 92 95 98 94 93 84 80 78 87 88 85 80 79 76 76 74 68 55 69 73 86 91 77 73 87 79 63 52 43 43 45 48
93 89 78 54 59 70 67 68 68 64 63 59 54 60 97 96 94 97 97 98 96 92 87 84 81 77 82 84 81 81 79 80 77 74 62 48 51 68 74 72 68 95 89 83 71 49 41 40 39
96 82 63 52 51 67 70 66 63 69 62 54 67 58 68 100 98 98 96 92 87 86 86 84 81 78 80 82 81 82 82 83 80 78 73 60 48 54 61 57 60 78 88 84 82 73 57 45 43
87 80 63 55 63 66 64 68 76 75 62 61 56 50 67 96 98 97 94 91 89 85 83 83 83 82 79 80 80 83 84 86 84 80 78 74 64 51 53 57 67 68 71 74 75 78 75 67 55
85 70 61 58 69 74 66 67 83 82 61 52 49 56 72 93 97 94 89 87 85 84 81 82 82 78 80 78 79 83 85 85 83 83 80 78 75 70 53 49 58 64 70 69 69 71 76 74 69
73 64 72 74 77 72 66 75 69 45 56 57 55 49 90 97 96 97 92 88 86 80 79 77 75 74 74 76 78 76 77 76 81 83 81 80 78 77 74 60 59 65 66 69 72 74 77 74 71
75 80 86 79 79 80 69 69 76 58 54 62 59 51 53 86 94 91 90 85 81 78 75 78 75 76 74 70 67 71 71 71 73 71 74 77 80 77 77 77 67 66 69 72 74 75 78 77 74
82 89 99 86 76 86 68 80 68 62 63 70 63 51 38 43 79 87 83 82 83 80 80 79 77 77 79 74 70 72 74 69 69 70 68 71 75 76 77 77 76 74 73 73 74 74 76 78 79
82 97 86 98 70 87 76 78 54 69 79 67 58 48 41 36 31 41 71 72 74 77 80 84 84 81 78 77 73 71 72 76 72 73 72 72 74 74 76 76 74 75 78 79 80 78 77 78 80
93 89 78 82 87 84 86 66 56 70 78 71 55 43 43 40 36 28 25 35 67 71 73 80 80 82 83 87 87 82 79 78 79 77 76 75 76 77 76 74 73 75 79 80 82 83 83 84 85
74 68 81 59 63 78 81 67 59 64 73 74 60 47 45 42 33 28 29 27 41 63 68 72 81 84 87 90 92 93 91 90 87 83 82 84 84 85 82 78 75 76 78 75 77 85 88 92 95
66 75 73 55 57 62 76 72 55 61 59 60 54 47 42 41 30 32 34 34 34 37 44 55 67 77 83 91 93 94 93 93 90 87 87 88 90 92 93 90 87 85 86 84 85 86 95 100 99
68 76 69 68 57 48 63 69 62 53 50 50 46 45 39 42 38 37 42 40 40 38 38 38 38 37 37 41 50 60 67 70 71 75 84 88 91 94 97 97 96 94 96 95 89 88 92 100 99
74 58 55 64 68 88 52 91 64 50 51 49 44 42 46 42 37 40 50 53 48 48 45 40 38 37 37 36 34 33 34 35 35 36 35 35 35 36 39 45 55 69 79 88 85 87 91 98 99
63 52 54 59 69 61 57 75 61 40 54 46 41 41 49 45 40 43 55 55 58 54 49 47 45 43 43 42 41 42 44 46 46 45 43 42 42 41 39 37 38 48 54 60 88 96 92 92 99
59 61 64 67 72 90 70 73 68 52 40 33 35 40 44 50 40 51 55 63 63 58 56 55 52 52 52 52 51 50 51 51 50 50 49 48 47 47 50 53 51 55 69 78 79 97 94 88 85
55 71 96 94 94 91 70 72 58 41 37 35 31 31 37 46 50 67 82 74 67 64 62 60 59 60 60 58 57 57 58 59 60 61 60 59 56 52 52 67 68 78 83 92 98 99 98 99 91
62 61 87 87 96 83 64 83 59 42 37 38 37 37 39 49 66 72 82 72 68 67 64 63 62 62 62 62 63 65 66 68 73 74 73 73 70 66 62 85 94 89 87 91 100 100 98 92 100
70 78 56 79 76 88 74 62 41 36 38 38 41 48 50 62 77 83 78 72 72 70 68 65 64 64 65 66 67 68 71 74 78 80 84 86 86 84 84 90 89 82 77 74 77 89 96 99 98
66 61 77 88 81 84 68 68 58 42 36 37 43 53 58 69 80 82 81 77 74 72 70 68 67 66 68 69 69 69 70 74 79 82 85 88 90 91 93 92 89 86 84 83 85 89 99 99 97
78 90 80 75 76 80 74 62 47 42 36 41 43 53 61 74 79 82 83 79 77 75 73 72 71 70 71 72 71 71 73 77 79 82 83 87 88 88 88 88 88 87 87 90 92 95 100 100 98
77 78 75 89 85 89 85 74 40 39 45 44 48 52 58 68 76 79 84 85 83 79 78 76 75 74 74 75 76 77 81 83 85 84 84 84 85 85 87 89 89 88 87 88 87 88 92 93 93

GFSSGP_925_rhum_051.txt.gz
RH
78 58 47 39 40 47 43 37 40 33 24 25 24 28 30 42 35 30 86 81 77 79 94 84 84 85 86 83 86 88 86 89 83 82 79 71 79 97 89 96 96 91 91 93 95 95 96 96 94
71 54 41 52 48 45 41 43 39 37 28 35 37 48 51 54 75 94 92 94 82 82 92 94 83 81 80 84 84 85 88 87 74 76 74 78 90 96 96 97 96 86 88 91 87 87 94 89 75
52 49 48 52 59 44 37 42 44 40 36 29 40 57 62 69 82 88 86 95 92 92 80 91 79 80 81 82 82 85 88 78 79 74 67 90 93 93 98 86 75 51 73 75 74 76 74 73 72
53 48 51 54 60 49 40 45 45 42 27 26 43 60 68 79 81 86 94 100 97 85 86 84 81 84 84 83 84 84 78 72 71 61 92 88 86 91 79 87 77 48 60 77 63 66 73 73 71
57 54 62 65 60 55 48 44 52 43 33 29 51 62 76 88 84 97 100 98 99 86 87 92 87 82 83 84 85 84 74 74 65 51 93 90 82 80 85 87 77 46 59 68 68 60 66 70 73
70 68 68 67 60 55 52 53 46 54 41 37 64 73 80 97 98 98 100 98 96 86 94 94 85 79 81 83 87 82 75 74 63 48 80 80 79 83 94 82 71 42 52 58 57 54 53 63 66
72 75 69 63 60 60 52 52 57 60 47 41 64 73 81 90 98 98 100 98 91 82 94 94 90 78 81 87 88 78 76 75 63 48 85 83 80 83 91 77 69 58 66 63 59 57 58 60 65
82 74 79 70 62 59 58 56 57 57 47 44 79 76 79 83 100 100 99 90 83 90 89 84 89 75 81 92 82 82 79 75 68 51 68 86 87 90 98 84 69 64 70 58 53 51 52 56 56
80 95 86 72 64 65 62 57 57 54 52 67 70 68 90 99 100 100 100 100 96 92 88 85 87 76 81 85 80 81 78 76 73 62 57 66 72 74 89 82 76 68 69 60 53 46 45 47 49
91 89 77 58 60 72 64 64 66 54 46 49 51 48 51 99 100 100 98 98 100 98 92 91 86 85 87 85 82 82 80 79 77 72 60 55 55 66 72 73 70 88 90 81 70 51 42 41 40
92 82 66 54 60 61 65 66 63 58 56 61 66 54 53 91 99 99 99 98 95 92 89 85 82 87 89 89 85 83 81 83 80 78 72 56 48 55 62 63 61 80 89 86 84 77 64 50 44
89 70 61 64 65 62 60 66 65 65 53 59 53 51 57 66 92 98 98 98 95 93 88 86 84 82 83 87 86 83 83 83 83 80 78 72 61 47 50 52 54 60 67 75 79 78 78 74 69
78 74 82 67 69 66 61 62 65 68 61 51 52 52 53 71 82 92 98 98 90 90 87 86 84 83 81 83 84 85 85 85 84 84 81 78 73 69 57 48 52 62 69 70 71 71 71 74 73
75 70 63 66 77 71 67 66 63 50 54 53 53 53 48 62 89 94 99 98 94 88 86 84 84 85 82 78 78 79 83 83 85 85 83 80 78 76 73 70 55 56 63 66 71 74 76 78 77
79 81 79 78 74 80 71 63 69 56 54 56 56 55 48 39 81 93 95 97 91 88 83 81 80 81 79 74 74 74 74 75 76 77 80 82 80 80 79 79 78 68 66 71 73 75 77 78 78
80 77 91 89 77 84 70 77 55 54 54 59 60 54 49 39 37 80 91 93 90 87 82 80 80 79 80 74 70 69 71 73 72 74 76 75 76 79 82 82 78 76 78 76 76 76 78 77 77
90 87 87 98 70 82 69 74 52 57 69 56 60 56 46 39 35 30 58 86 89 84 82 84 84 82 79 78 75 73 72 74 74 72 72 72 73 74 78 79 78 78 80 81 82 82 82 81 82
87 93 82 90 89 84 79 69 54 69 68 51 45 60 50 44 36 32 28 34 75 82 81 83 86 84 83 81 82 82 78 75 74 75 74 74 75 76 79 81 80 80 82 82 80 82 83 85 88
72 79 74 67 80 78 79 70 57 65 72 74 59 64 56 46 37 32 27 26 29 72 81 81 85 84 85 88 93 92 88 82 80 79 78 79 80 85 86 87 84 82 80 78 80 87 88 93 91
72 78 78 58 76 74 80 79 62 65 64 60 54 49 55 47 36 31 29 31 35 48 64 70 78 87 90 91 92 93 90 90 90 89 91 93 94 95 97 97 95 94 90 86 88 90 100 100 100
71 72 76 67 77 60 76 81 73 58 59 59 59 53 50 44 36 34 34 37 39 42 45 50 58 68 78 88 96 98 98 96 93 93 94 96 96 98 100 100 100 100 100 100 98 99 100 100 98
76 61 63 69 79 81 58 81 68 64 55 55 52 50 45 43 38 36 39 45 48 48 45 42 42 40 39 37 38 38 39 38 38 38 38 38 37 37 38 39 44 51 65 81 85 93 99 100 100
66 57 61 65 68 64 61 76 62 52 61 53 49 45 40 45 38 35 39 43 53 54 49 47 44 42 42 41 41 41 42 44 45 45 44 46 48 51 52 53 48 43 45 53 58 66 93 100 100
61 61 63 64 64 89 70 75 66 52 45 41 43 40 40 36 40 36 41 53 61 58 56 53 49 48 48 46 45 46 47 49 50 50 48 46 45 45 49 51 55 58 64 66 73 81 91 100 100
59 67 93 91 92 85 66 73 57 45 37 35 33 32 36 42 44 44 61 72 67 63 60 56 53 53 53 52 51 51 52 54 56 58 60 59 58 56 54 54 68 76 83 93 97 100 100 99 99
62 61 82 93 93 79 66 76 51 42 38 36 36 38 38 37 41 48 64 74 73 68 65 61 58 57 57 56 56 56 57 58 62 65 68 72 74 75 73 73 91 93 89 93 98 97 99 100 100
67 75 56 80 78 79 66 58 40 35 33 33 36 40 43 42 54 66 79 76 74 70 66 62 61 61 62 61 62 63 64 67 70 74 78 83 86 87 89 92 92 89 83 80 86 99 100 99 99
64 60 76 83 83 79 63 59 45 35 35 34 34 38 45 54 72 78 77 81 75 71 70 67 64 63 64 65 65 66 67 70 74 79 84 87 90 92 94 95 93 90 86 84 84 96 98 98 97
72 82 77 70 72 73 67 49 45 42 34 38 38 41 50 62 74 77 78 80 76 74 72 69 68 68 70 70 69 70 71 74 77 80 82 85 88 89 90 91 92 90 88 90 92 98 96 98 98
78 74 69 82 82 84 78 65 39 38 41 43 41 48 53 66 74 75 81 86 85 79 75 72 72 71 72 73 74 75 77 80 84 84 84 84 84 85 86 89 90 90 89 90 92 95 100 99 97

GFSSGP_925_rhum_054.txt.gz
RH
77 56 45 37 29 24 22 22 23 24 18 20 18 20 25 22 20 30 67 69 58 66 69 86 82 85 84 87 88 89 86 89 89 96 94 93 98 92 96 95 90 90 93 95 95 98 98 96 93
68 52 42 35 29 29 22 21 23 24 23 23 30 30 27 29 46 71 65 76 64 66 70 75 80 81 83 86 88 88 88 81 81 83 77 90 98 97 98 96 86 89 92 94 96 97 93 79 73
55 46 34 33 27 26 20 25 27 27 26 27 28 39 38 48 56 59 64 73 64 67 68 77 81 81 85 84 87 85 83 69 69 70 70 78 96 97 96 77 59 77 86 86 88 82 72 71 66
45 38 36 32 29 24 22 31 34 26 21 22 26 42 52 68 59 63 71 67 66 67 69 86 80 80 82 84 83 84 73 65 54 64 88 82 95 96 83 75 40 45 68 73 70 70 70 65 67
47 35 34 35 26 27 33 35 34 27 23 24 32 43 56 72 76 77 72 68 64 65 72 89 82 82 82 82 85 83 71 68 46 83 85 88 90 81 82 77 53 49 54 50 47 56 58 62 65
43 38 34 36 30 36 36 39 33 29 24 35 37 45 59 91 87 91 75 66 66 67 74 85 91 84 83 85 85 78 72 67 47 84 81 88 84 81 89 80 64 64 63 62 59 54 60 65 66
38 42 37 30 33 48 42 40 36 28 27 39 46 47 65 82 99 98 82 66 68 72 73 84 88 90 83 86 86 75 71 66 45 87 89 82 80 82 85 76 59 72 72 61 58 58 56 57 64
41 35 47 38 40 44 49 48 46 29 39 47 59 70 67 75 99 98 91 71 67 82 81 79 81 82 86 92 84 77 76 71 54 64 85 82 81 86 97 81 64 64 62 54 52 52 58 58 57
65 63 54 46 40 45 51 47 48 42 45 43 41 42 49 86 99 97 95 83 69 75 80 75 79 73 76 94 84 83 79 74 66 57 69 81 72 81 90 87 67 70 64 56 51 48 49 50 51
73 82 50 43 49 52 54 48 52 43 40 43 37 37 67 100 99 87 82 81 69 72 74 77 79 76 75 96 84 85 78 83 81 77 72 62 67 72 78 82 70 79 84 75 63 50 45 45 48
69 66 51 47 50 50 55 52 52 39 44 43 42 40 49 92 97 89 78 72 67 66 71 77 83 81 78 85 86 83 82 80 83 82 77 66 67 75 75 73 74 77 87 83 84 82 69 59 52
80 54 47 42 56 52 46 52 49 47 45 43 41 38 42 56 84 90 84 75 69 70 73 81 82 84 80 82 82 80 77 78 80 83 80 74 68 70 66 64 66 71 75 77 79 72 72 75 71
70 70 57 46 63 55 51 51 53 50 42 43 41 39 36 46 66 85 86 86 82 78 78 81 82 82 82 84 84 82 79 80 78 83 84 78 75 74 68 61 62 66 70 71 74 76 72 73 73
50 66 65 54 66 68 65 53 57 33 42 43 41 39 37 36 55 71 85 87 86 82 80 81 84 83 82 81 83 84 81 77 79 80 82 84 79 78 76 72 67 62 69 72 75 75 77 76 77
51 64 65 63 57 63 75 70 57 39 37 40 36 37 38 37 32 63 72 78 81 85 84 80 82 82 79 77 78 77 79 80 77 79 82 84 82 81 79 76 76 73 71 75 78 79 81 81 79
52 57 78 59 64 62 67 64 41 38 40 39 34 35 38 37 35 30 63 76 80 85 88 85 86 85 82 76 76 73 72 75 75 77 80 83 81 83 83 81 80 79 79 80 79 78 78 79 78
57 60 65 85 56 66 62 52 43 43 43 38 33 32 35 37 36 30 29 72 80 84 90 90 89 85 83 83 80 79 76 78 76 76 78 82 83 83 84 82 82 82 82 82 82 81 82 80 77
48 46 58 82 75 68 68 57 43 41 42 37 30 28 30 39 36 35 29 30 70 82 88 93 94 90 89 87 86 84 82 78 75 76 78 79 81 84 85 84 85 86 85 85 83 87 85 86 81
37 45 58 73 70 77 71 62 49 40 47 45 36 32 30 34 37 37 29 29 32 67 80 87 92 90 92 89 86 85 88 85 84 86 87 85 85 85 89 91 90 90 91 87 86 86 88 89 96
50 48 48 50 65 77 70 64 47 40 40 40 37 32 33 33 36 37 29 31 31 40 71 79 84 83 87 84 85 85 84 85 84 91 97 96 97 98 99 100 100 100 99 97 94 94 97 100 100
47 46 48 46 57 58 58 59 53 43 38 37 35 32 30 32 32 34 30 31 41 43 53 63 75 89 94 97 96 96 96 95 89 95 98 96 98 98 99 100 99 99 100 97 96 99 100 100 98
56 44 48 51 49 50 48 38 40 40 43 40 38 36 31 33 35 34 32 34 42 52 54 55 57 66 76 83 79 78 75 69 57 55 50 46 43 42 41 40 51 76 90 94 97 100 99 100 96
53 48 46 44 42 50 54 53 28 38 41 36 36 36 34 35 38 35 32 36 46 51 52 57 51 46 42 40 46 46 46 48 44 44 44 48 48 46 49 52 54 52 56 70 79 83 90 98 99
48 49 50 52 48 67 44 49 34 34 33 30 30 32 33 32 34 32 31 38 51 64 55 56 58 53 48 45 44 50 53 54 55 58 58 58 59 54 51 50 60 66 88 84 83 87 98 99 100
44 46 78 75 80 59 51 55 34 32 30 28 26 24 28 29 30 33 34 44 53 65 68 65 58 59 60 59 56 54 57 59 64 66 66 68 65 71 76 63 83 91 96 97 99 97 98 98 97
52 37 52 62 62 49 52 58 34 29 30 28 27 25 26 27 27 36 36 42 55 64 66 59 58 60 62 62 61 58 58 68 71 71 76 75 80 84 92 91 94 96 96 99 98 92 95 99 100
64 68 42 59 58 57 40 39 29 24 23 23 23 25 26 25 27 33 38 49 60 65 63 60 60 63 65 66 65 65 65 64 71 69 73 86 89 87 91 94 97 94 90 86 98 99 100 100 100
52 43 60 69 74 53 41 39 24 28 26 23 23 26 26 31 35 39 48 54 60 62 64 63 61 62 67 68 67 67 66 65 70 73 80 84 86 88 92 96 95 93 90 90 91 100 98 95 95
60 61 58 50 56 51 38 26 24 26 26 26 26 30 32 35 42 50 54 61 64 67 67 65 64 67 68 68 70 71 72 76 77 76 78 82 85 87 89 91 92 92 91 93 97 100 98 98 97
54 49 46 57 69 58 53 34 25 26 27 30 29 32 35 41 46 52 59 66 70 70 68 66 66 66 68 70 72 73 76 79 79 78 81 83 84 86 87 90 92 91 90 92 93 98 98 97 94

GFSSGP_925_rhum_057.txt.gz
RH
70 54 45 35 30 22 25 21 15 22 18 15 15 21 24 22 20 48 42 43 49 57 77 91 81 84 85 86 87 86 81 83 87 96 94 93 94 96 94 88 89 93 92 93 92 93 94 96 86
60 44 40 30 31 25 23 17 21 20 16 18 21 21 24 36 39 50 49 44 47 55 72 80 82 85 85 88 88 87 86 76 91 92 91 98 98 96 95 86 92 94 96 97 98 96 95 85 76
58 40 30 30 28 22 20 16 17 19 22 21 20 28 28 47 44 44 47 47 47 53 62 82 86 84 84 86 87 84 79 70 76 78 86 99 96 96 79 76 84 83 88 96 94 83 75 66 64
40 35 29 34 28 18 15 17 16 20 18 21 21 29 47 56 48 48 53 47 48 53 58 77 81 83 81 82 81 81 68 65 58 68 79 96 96 90 80 49 54 60 68 68 64 65 63 64 63
40 28 32 32 27 18 16 24 26 18 17 21 26 38 52 73 62 57 53 47 48 50 70 86 81 85 83 81 79 77 68 54 57 79 77 95 93 84 82 60 69 70 68 65 65 61 62 62 61
41 30 35 34 27 19 21 27 26 20 18 26 28 33 66 83 77 56 52 48 49 52 72 82 84 82 83 84 83 72 70 48 82 84 74 91 80 78 84 66 58 70 69 61 52 56 60 62 60
39 42 37 30 27 26 29 32 28 20 19 35 36 32 66 80 97 83 55 50 50 55 62 83 93 92 86 86 83 73 67 47 90 90 93 82 77 80 83 67 53 62 58 56 55 57 57 59 61
39 45 41 31 30 36 34 42 40 25 28 42 44 46 65 76 98 79 65 52 52 56 64 78 80 84 90 94 83 72 73 52 75 89 87 80 78 80 79 72 60 66 57 52 49 49 54 53 51
41 76 68 44 31 36 41 39 40 36 36 38 36 39 45 80 97 85 78 53 54 72 65 78 76 67 75 85 84 79 78 68 50 78 84 78 69 81 76 91 68 65 61 55 50 47 44 44 44
65 81 54 46 36 44 44 34 39 38 38 38 35 39 78 93 98 81 78 60 50 71 77 82 77 57 77 88 83 88 82 79 75 67 61 61 57 61 68 82 65 64 72 66 55 46 42 43 46
62 60 44 44 40 41 49 47 40 36 40 36 39 40 74 95 90 76 70 63 53 64 70 75 77 63 77 85 93 90 80 73 70 67 62 51 56 68 70 70 74 77 69 85 76 76 68 54 52
67 46 48 44 53 43 42 42 41 36 41 35 35 33 48 80 82 87 76 60 54 55 56 59 75 76 74 80 87 78 75 63 68 69 68 61 55 61 57 56 57 62 67 67 68 63 61 64 64
91 49 46 68 49 45 50 44 46 43 37 37 34 33 35 52 74 84 84 79 66 60 61 64 70 72 72 80 79 80 72 64 62 66 70 65 63 65 57 51 52 53 55 59 60 66 62 63 64
66 59 51 46 50 51 54 50 56 36 34 36 37 33 32 36 55 71 81 82 78 72 69 70 70 71 73 74 77 80 74 60 60 63 68 71 67 67 66 60 56 52 56 61 63 64 66 67 66
55 70 60 54 47 46 54 60 53 39 34 35 33 31 32 33 34 55 66 78 75 73 73 71 74 73 73 75 70 70 69 61 61 63 67 70 70 70 68 67 66 65 60 63 65 68 70 70 70
73 83 87 56 50 43 50 56 39 36 40 36 35 29 30 31 32 31 47 63 66 70 74 73 73 70 67 64 66 65 61 63 63 63 66 70 68 72 72 71 72 71 70 71 71 70 69 68 67
50 75 71 54 44 48 55 42 36 32 33 36 34 30 28 29 32 31 28 54 66 69 74 76 79 78 73 71 69 67 63 65 63 64 66 70 72 71 74 73 72 73 74 73 73 73 72 72 72
45 32 40 52 56 54 63 52 40 37 39 36 33 31 27 27 30 30 30 28 60 68 71 80 82 83 80 78 76 73 72 68 66 66 67 69 71 74 75 74 73 73 76 78 77 75 77 78 76
27 27 38 38 51 63 61 55 46 36 36 36 34 31 28 25 25 33 30 27 28 63 71 76 83 85 85 84 83 78 78 74 69 70 70 73 75 75 77 79 78 77 78 78 77 76 78 80 82
26 30 43 50 56 64 62 65 46 38 34 34 31 28 26 24 24 34 31 28 28 36 65 71 78 83 85 87 84 77 74 72 70 74 81 84 83 84 85 86 88 89 90 88 86 86 86 86 92
35 31 33 51 62 58 61 80 58 40 34 30 30 27 25 24 25 30 31 30 32 32 48 66 70 74 76 83 81 84 87 85 88 86 92 93 89 87 94 98 98 98 96 96 95 94 92 96 91
42 29 34 40 53 56 46 42 37 36 37 34 31 30 28 27 26 27 31 30 37 38 48 55 64 78 83 92 92 89 85 82 76 68 66 67 63 61 57 54 54 61 80 91 90 94 93 90 93
40 37 38 39 42 30 44 46 26 27 32 30 30 28 27 28 28 28 31 32 36 47 56 55 57 58 63 71 70 72 69 55 52 52 52 53 56 50 48 51 59 64 67 61 66 73 81 89 91
43 41 40 38 36 56 41 39 28 23 28 24 22 22 24 25 27 30 33 32 40 56 60 58 55 55 55 53 53 49 48 49 52 54 53 52 55 59 59 53 52 69 79 85 86 88 87 90 90
40 44 65 63 74 58 37 36 29 25 25 24 25 23 22 22 24 28 32 32 40 58 64 60 56 56 56 54 54 56 57 56 57 58 58 58 56 60 66 76 76 80 87 92 96 97 97 98 94
47 37 48 53 52 43 42 48 29 24 23 22 23 22 21 22 21 26 31 34 40 57 62 58 54 52 54 56 58 60 61 61 62 64 66 65 66 70 79 84 86 87 90 94 94 95 92 99 99
47 53 38 49 39 44 37 30 25 21 22 20 20 20 21 22 22 24 29 36 43 57 59 53 51 53 57 59 59 58 62 64 65 69 70 74 78 81 84 89 91 92 95 97 99 99 98 97 99
45 38 50 60 66 41 34 29 23 23 23 21 24 26 25 25 27 27 28 36 47 56 57 55 52 55 59 60 59 61 64 66 67 68 69 73 76 80 85 88 91 93 94 95 100 98 97 94 94
56 58 50 43 50 52 30 25 20 24 24 27 27 29 28 28 29 33 36 43 52 57 60 57 56 59 62 60 62 63 64 68 68 68 67 71 75 78 82 85 89 88 88 90 98 99 98 94 94
48 43 42 52 62 43 45 35 20 22 24 27 28 27 26 31 34 38 42 48 53 58 62 60 59 61 60 60 62 63 66 69 69 68 70 73 74 78 81 83 85 85 87 87 87 94 98 94 89

GFSSGP_925_rhum_060.txt.gz
RH
64 57 47 44 61 43 38 27 24 31 21 20 19 24 33 51 50 74 43 52 75 87 86 82 81 85 87 84 86 86 82 79 72 98 93 95 92 91 87 90 93 89 86 86 91 95 96 91 79
77 52 43 53 54 44 32 22 22 27 20 21 22 29 35 59 49 47 47 54 71 85 86 87 83 87 87 89 84 82 77 71 74 96 96 98 94 89 87 91 95 99 98 94 96 94 80 69 64
69 47 50 53 47 45 29 22 22 18 24 22 21 30 51 67 46 46 45 50 65 80 83 89 84 88 89 84 81 79 64 67 71 93 94 94 97 89 83 89 90 95 96 93 80 66 63 62 58
58 41 45 44 40 32 22 17 18 22 23 22 19 57 63 78 58 50 45 49 63 68 78 81 86 87 85 83 80 73 63 60 61 82 96 94 93 78 63 62 72 80 83 72 66 60 61 61 56
58 40 49 47 39 27 18 27 26 22 20 23 29 47 81 74 66 51 46 47 55 76 78 83 84 85 85 83 81 68 62 53 55 66 97 94 81 80 54 55 69 66 66 66 62 62 61 58 60
72 49 47 45 38 27 25 28 25 24 19 24 26 70 89 82 74 52 46 47 53 76 87 80 83 84 83 84 80 70 51 75 80 71 90 88 77 77 64 53 60 62 58 54 57 57 59 57 56
73 59 58 39 33 27 36 32 34 25 20 42 47 29 86 86 71 66 46 47 62 73 84 91 88 81 83 84 77 70 51 86 83 74 88 81 76 78 64 46 54 55 52 50 50 48 49 52 52
64 59 50 43 34 35 43 40 43 37 42 41 37 67 88 85 68 72 61 48 58 67 77 86 91 88 86 83 75 69 50 84 90 93 90 79 77 77 70 52 54 55 49 46 44 44 45 43 42
55 81 66 50 36 41 41 44 40 35 41 39 38 53 73 84 75 79 69 50 59 71 73 86 82 87 87 85 74 76 69 48 86 87 83 77 76 69 72 85 56 54 49 45 42 40 40 39 42
76 96 61 40 42 44 42 40 41 39 43 42 47 72 81 94 88 78 72 54 58 75 78 77 70 74 86 84 72 72 75 65 52 60 74 55 72 75 83 81 72 50 55 52 48 42 38 45 45
81 75 58 49 52 39 44 42 38 40 52 43 45 71 86 94 93 77 70 54 70 74 76 76 63 72 76 83 83 84 74 76 72 65 53 55 57 62 70 66 54 46 57 65 73 71 64 56 53
76 54 55 66 62 57 50 42 42 46 46 39 38 46 84 90 88 81 72 61 66 73 72 68 67 78 84 84 83 82 70 71 69 69 65 56 55 60 59 66 62 64 74 72 76 70 67 64 65
77 63 73 71 65 65 52 45 50 48 42 37 34 36 52 78 82 83 81 74 70 65 70 71 63 69 74 84 79 73 66 68 66 67 70 66 60 59 58 55 55 56 58 60 63 65 66 62 65
73 79 72 80 67 70 58 51 52 44 36 38 37 35 41 43 78 81 83 83 76 69 65 69 66 67 73 79 83 67 64 65 61 64 69 69 66 66 65 56 52 52 54 59 61 64 66 68 67
69 70 79 70 68 56 56 59 60 39 37 38 36 37 35 38 40 70 76 82 78 74 72 68 67 65 67 78 79 77 65 66 60 62 66 70 70 69 68 67 65 63 55 59 63 66 68 69 70
76 80 95 78 82 68 56 69 48 40 40 44 42 35 36 34 33 32 59 75 76 72 76 76 75 76 74 72 75 73 66 64 61 62 64 68 70 71 71 70 71 70 69 68 69 70 70 70 68
81 94 97 83 54 57 57 52 39 36 41 42 41 38 35 36 34 30 30 59 67 68 72 72 74 71 66 67 66 66 65 62 63 64 65 68 71 69 73 74 74 74 73 73 73 72 71 70 72
92 80 80 86 61 51 60 58 43 37 38 41 38 36 35 32 36 32 29 31 64 66 71 75 75 76 72 71 69 68 65 63 65 65 65 68 72 73 73 74 73 70 70 75 76 77 74 73 75
48 56 67 64 62 54 61 59 51 39 43 46 43 36 35 34 28 32 30 27 32 65 68 75 81 82 80 78 76 75 74 72 68 67 66 68 71 71 74 77 73 74 78 77 78 78 75 73 74
34 42 59 53 56 60 62 61 52 46 43 41 40 39 36 33 28 37 30 27 28 36 69 74 81 84 84 83 82 79 77 75 73 70 70 74 78 76 75 77 79 80 83 81 81 84 85 81 83
43 36 67 65 66 57 63 74 65 52 43 40 36 35 33 33 30 42 33 29 28 28 44 72 78 83 85 88 86 82 84 81 78 81 82 80 83 82 83 84 84 85 88 87 82 87 93 99 94
42 28 43 66 73 82 61 64 63 55 51 44 40 37 34 33 29 34 35 33 31 31 34 58 77 75 80 84 86 88 87 87 85 82 87 86 88 81 79 76 69 70 77 85 86 77 77 91 87
45 40 54 64 59 53 68 64 36 51 49 43 37 37 36 34 32 33 37 33 34 36 38 51 64 81 86 89 90 90 87 77 68 68 66 62 51 47 44 45 50 55 60 62 59 64 76 85 86
38 43 42 42 46 77 44 51 44 37 35 29 26 33 33 33 34 31 36 35 44 45 46 48 53 59 63 71 78 72 73 56 55 51 45 50 51 52 49 49 49 53 64 72 82 84 85 86 88
41 54 88 89 88 82 41 49 40 31 28 26 25 25 27 26 33 37 43 42 49 50 54 54 54 54 54 54 53 50 50 49 50 53 54 54 55 57 63 68 66 70 77 82 86 92 89 93 91
50 49 78 67 81 67 41 55 39 30 25 26 25 24 23 25 26 27 43 42 49 54 58 57 53 53 53 54 53 52 54 52 52 54 56 58 63 65 70 71 71 77 84 84 94 92 89 84 87
56 72 41 63 42 75 54 36 27 27 25 24 25 27 28 28 27 26 31 42 53 58 58 56 52 52 54 55 54 55 57 56 60 55 55 62 69 71 67 68 78 86 88 91 98 97 92 92 96
55 40 62 84 69 45 43 36 36 32 30 33 36 37 36 30 28 30 32 33 49 56 59 57 52 47 49 51 52 57 58 54 53 57 61 66 68 72 70 76 86 88 89 91 98 96 96 97 98
58 68 56 55 70 84 55 43 26 33 34 37 37 32 34 37 40 40 39 37 48 57 59 55 53 57 58 56 56 55 47 52 60 60 64 66 69 71 74 80 81 87 87 88 94 98 96 93 91
59 54 48 82 74 62 65 48 25 31 31 28 30 29 31 40 43 45 45 47 57 58 60 58 57 59 59 59 58 60 63 62 60 62 66 68 70 74 76 79 82 84 85 86 87 92 95 94 91

GFSSGP_925_rhum_063.txt.gz
RH
46 49 63 54 58 64 58 34 28 40 33 24 24 32 67 62 67 65 71 72 75 77 72 73 85 85 84 85 86 84 78 78 95 92 94 93 86 88 89 88 87 81 82 90 92 93 90 56 40
52 69 58 59 69 65 44 29 26 42 35 22 28 40 64 69 52 61 87 82 73 77 72 79 85 85 87 87 85 81 72 77 93 88 92 94 86 90 92 97 92 89 90 95 95 91 78 58 41
66 78 62 68 64 64 47 24 23 26 24 24 29 48 76 80 55 55 82 90 76 82 81 84 86 87 87 85 82 65 59 70 95 88 92 96 86 90 93 95 98 95 96 95 80 70 63 56 45
76 69 58 58 49 46 36 30 23 28 26 24 28 71 83 82 72 59 80 78 79 93 82 87 88 88 86 83 74 56 59 64 93 93 93 93 88 91 88 89 89 87 88 78 69 64 59 53 46
81 74 80 66 53 36 26 27 26 24 27 31 29 69 72 85 61 55 73 72 85 89 82 89 88 88 86 83 69 57 56 57 87 95 91 90 70 56 63 49 63 66 69 63 66 61 56 54 49
89 80 67 67 52 37 35 35 31 25 24 31 43 72 84 85 66 61 63 70 78 85 83 90 85 86 85 82 69 55 55 56 73 95 85 76 73 51 46 52 56 57 57 55 55 56 53 50 48
85 84 78 52 45 39 45 33 47 46 39 59 46 68 90 74 60 58 69 70 80 78 85 88 87 84 83 79 71 52 82 72 72 92 85 75 71 64 41 47 50 51 46 45 45 46 47 46 44
85 84 65 61 43 46 43 39 44 41 54 40 45 89 95 70 69 54 68 70 79 81 77 88 88 86 84 78 68 54 81 81 79 93 86 78 73 70 48 49 49 44 43 42 41 42 41 41 38
80 88 83 61 51 48 46 44 40 36 45 57 55 74 80 64 50 72 65 84 90 81 79 86 86 85 83 76 70 52 75 85 89 94 82 78 67 59 59 47 48 47 42 40 38 36 36 38 42
84 84 73 52 52 47 47 41 41 45 48 75 91 89 85 89 54 47 69 82 82 87 84 80 81 84 84 77 71 72 53 68 83 82 76 70 80 77 69 73 61 44 43 42 41 40 38 45 44
76 87 66 67 58 46 49 45 41 51 56 48 92 91 92 97 93 64 72 80 67 70 75 76 72 82 78 74 72 72 73 61 52 51 50 68 75 78 71 70 56 41 47 53 69 68 63 60 58
93 65 57 62 67 54 52 46 54 50 50 43 69 84 88 95 90 82 69 73 71 66 65 66 78 84 84 74 74 73 70 74 73 66 54 58 66 62 62 64 63 60 70 72 74 69 70 66 64
80 88 66 71 70 65 54 56 54 54 44 39 50 78 88 86 87 86 68 72 75 68 67 62 78 84 81 78 80 75 68 74 72 70 67 58 57 56 62 64 64 59 61 66 70 69 67 66 64
84 84 85 77 84 70 67 60 50 50 45 42 42 48 74 81 82 85 78 69 72 68 73 61 67 76 81 75 75 69 66 71 69 67 70 67 64 62 57 56 55 54 56 59 61 62 66 69 70
80 89 87 93 88 88 72 67 60 45 43 45 42 46 44 62 78 75 81 82 70 73 76 71 63 68 71 70 72 66 63 64 64 66 68 69 68 67 67 61 59 56 53 55 62 65 68 68 68
86 92 94 80 83 70 62 71 55 45 43 46 43 41 44 41 59 71 73 71 83 72 67 70 66 72 69 68 71 66 64 63 65 64 66 69 70 70 71 69 70 68 68 65 64 66 70 72 71
84 99 94 81 86 84 61 66 51 46 47 49 49 45 40 42 38 35 61 71 73 72 73 69 69 74 72 73 73 75 66 61 62 63 64 67 69 70 72 73 73 74 74 72 73 72 72 69 64
94 95 87 81 86 74 80 65 49 42 46 49 49 46 44 41 41 31 31 58 69 71 73 75 74 74 70 73 72 72 71 65 65 64 65 67 70 70 71 74 76 70 69 70 72 72 72 69 67
65 72 70 74 72 92 82 65 58 50 47 49 50 47 43 41 36 33 29 45 65 68 71 72 76 74 71 69 68 67 67 65 64 65 65 65 66 70 70 73 72 70 72 71 73 77 81 70 68
62 66 64 57 59 78 70 68 60 55 50 50 49 49 45 40 36 40 32 31 46 66 67 68 74 76 75 74 72 73 71 70 71 69 68 67 71 71 71 75 76 75 74 75 76 79 82 77 69
66 65 62 67 67 68 65 77 72 57 54 51 46 43 42 42 40 46 36 29 29 48 68 71 70 74 80 79 78 79 79 77 75 74 74 73 72 72 75 79 79 79 80 79 78 79 81 80 74
61 51 57 68 86 92 70 86 75 61 63 56 54 49 44 39 38 44 38 33 29 31 52 72 72 74 79 83 85 86 82 85 86 82 86 82 81 81 84 83 86 87 89 90 87 86 84 81 87
72 46 63 77 71 77 80 79 57 66 72 61 52 51 44 39 37 43 42 34 29 30 38 64 80 79 76 72 76 76 88 90 84 84 86 87 84 81 63 51 45 48 53 56 59 61 66 84 93
50 77 80 69 66 78 74 70 58 62 58 49 44 45 42 39 37 39 40 37 38 42 44 54 71 85 90 95 96 90 90 80 72 71 69 63 53 47 47 46 48 48 52 62 69 80 84 86 90
52 63 98 96 86 78 48 54 51 34 31 31 32 32 32 32 36 44 51 51 46 44 42 45 53 61 67 76 78 82 84 76 72 64 52 51 51 53 57 58 60 59 62 71 78 83 87 84 83
52 53 81 85 93 74 47 59 44 31 31 30 29 29 30 31 32 34 47 49 46 42 42 45 47 52 54 56 58 55 53 52 54 53 51 48 57 56 64 64 63 60 64 74 80 92 93 92 89
54 75 46 67 54 81 59 43 34 30 32 33 37 38 38 35 36 36 48 48 57 56 52 49 51 52 54 53 52 52 51 50 52 54 49 55 61 62 62 61 58 66 75 80 86 89 96 90 88
54 43 67 85 63 58 63 44 46 39 46 43 42 41 41 41 42 42 39 42 53 57 58 55 52 51 55 56 52 45 42 45 50 45 44 50 56 61 60 64 70 79 82 85 90 93 92 92 95
66 67 60 64 76 84 58 48 31 40 42 45 40 37 39 42 45 46 46 40 46 59 59 58 56 55 55 57 58 56 53 41 37 44 56 61 63 61 64 66 70 77 83 86 90 94 93 94 93
65 60 54 82 70 73 74 53 32 39 41 41 39 32 38 42 47 50 48 47 54 60 62 61 57 56 55 57 57 58 58 58 61 62 62 62 63 66 71 70 73 78 83 84 87 89 90 94 90

GFSSGP_925_rhum_066.txt.gz
RH
78 58 68 64 60 71 67 44 33 40 38 27 28 42 69 65 64 63 93 93 78 89 88 88 88 90 88 86 84 75 93 96 90 94 87 87 89 92 89 87 93 90 93 93 89 83 78 77 76
73 61 73 65 68 74 52 34 29 38 48 40 34 57 66 74 65 96 95 97 72 89 88 88 86 86 86 85 83 73 96 79 90 95 87 88 89 83 89 88 85 95 95 95 87 56 44 69 62
79 65 66 80 77 64 49 27 24 38 37 41 34 62 69 76 73 79 94 99 83 94 87 87 85 87 87 84 81 70 92 86 88 93 88 89 91 94 96 92 94 96 94 83 60 54 43 51 52
72 78 81 74 70 48 37 28 27 40 49 34 44 69 74 89 83 89 100 96 88 91 88 86 87 86 84 82 69 66 91 92 90 81 88 88 90 95 96 95 96 90 77 62 55 52 45 46 48
77 86 77 85 64 38 33 27 29 43 40 41 32 74 83 72 77 94 95 87 88 90 89 88 88 86 85 80 59 66 91 89 92 94 84 89 91 91 93 94 90 80 70 59 55 52 48 43 46
89 78 81 82 60 38 31 30 35 31 30 33 33 68 89 85 90 93 91 79 85 92 92 90 90 86 83 72 61 64 77 91 93 86 75 64 58 80 89 91 91 83 70 60 56 51 49 45 40
82 89 76 62 55 43 35 32 44 44 49 59 42 49 92 96 82 78 84 75 84 88 93 93 90 86 82 66 55 57 64 86 96 85 74 67 47 43 44 43 42 47 50 51 51 48 46 43 40
80 88 82 62 51 48 38 29 44 47 58 41 52 80 94 80 72 76 81 78 85 82 90 92 90 89 80 69 48 68 64 78 94 89 72 71 68 43 48 48 45 44 44 43 41 41 40 39 38
74 90 84 73 50 47 44 43 41 41 57 72 60 74 64 69 76 80 89 87 100 99 88 87 92 91 82 70 55 77 72 77 94 93 78 76 69 61 44 49 47 44 40 39 38 36 36 38 39
89 86 80 55 51 48 50 41 43 53 71 92 94 90 76 72 70 83 88 99 97 100 96 88 86 90 83 70 54 76 80 82 86 90 81 75 68 64 62 50 44 45 42 40 38 37 39 43 43
85 82 69 63 62 54 50 45 44 56 57 68 90 92 88 94 75 62 88 93 100 78 92 83 82 86 82 75 71 56 76 86 88 83 77 74 78 75 74 70 60 44 48 50 59 61 55 59 60
88 74 74 65 69 66 52 49 62 51 50 59 82 83 88 90 87 71 72 80 85 85 75 81 79 80 82 74 73 72 62 52 62 63 70 69 70 74 71 64 59 45 59 61 72 70 71 66 66
87 73 78 68 77 74 61 58 60 55 47 65 85 84 94 91 95 80 76 83 69 77 78 74 83 74 77 76 74 74 71 72 71 65 54 61 65 64 62 64 67 61 68 69 72 70 68 68 66
85 75 72 78 83 86 69 62 53 54 45 64 75 87 92 93 90 92 87 84 86 66 80 81 74 72 78 79 73 74 70 71 74 72 69 60 58 59 59 62 64 61 59 61 64 64 67 70 72
89 91 86 83 86 88 82 68 67 56 46 50 51 60 80 85 85 82 83 84 87 84 78 76 77 70 70 78 74 73 69 71 74 73 71 68 68 66 65 58 56 55 55 58 62 64 66 70 71
89 84 97 80 83 88 84 80 65 54 52 52 48 47 51 68 80 74 76 74 71 60 71 76 77 72 68 73 73 72 69 66 69 69 71 70 70 69 69 63 62 62 60 56 58 64 68 70 72
94 100 94 93 87 90 84 79 61 54 50 49 49 49 46 46 54 71 67 75 71 68 71 69 75 71 73 71 71 67 65 62 64 67 68 68 70 70 71 71 71 72 71 72 69 68 68 64 64
92 100 96 96 89 82 92 87 60 50 52 52 51 50 49 46 44 43 52 66 72 70 67 72 70 70 69 71 70 71 68 67 65 61 61 66 68 71 71 73 74 75 72 71 70 70 67 71 71
66 77 87 84 87 88 87 82 74 54 50 54 57 54 49 47 40 37 35 60 67 75 68 66 67 71 65 65 74 76 77 68 68 63 66 67 63 68 71 72 74 76 71 69 72 71 71 70 68
59 62 74 79 81 78 87 82 64 58 54 53 51 56 52 44 43 40 34 34 70 64 66 64 66 68 72 71 74 76 73 71 67 65 65 64 64 67 69 71 74 75 70 70 71 76 79 80 71
68 59 70 74 73 76 87 90 78 60 56 52 51 50 50 49 43 46 42 33 45 70 66 65 61 65 68 72 77 75 70 71 73 71 71 74 72 72 75 75 77 78 74 75 78 78 81 81 83
76 57 63 65 79 86 78 88 70 62 62 59 58 58 52 49 46 44 44 37 34 51 63 67 69 71 70 70 77 72 72 72 72 71 74 82 84 80 74 75 78 79 79 81 83 91 91 92 85
61 58 81 79 89 89 90 86 58 67 70 56 54 61 56 50 47 44 47 38 32 31 44 68 72 59 61 66 69 68 70 64 62 66 82 85 86 89 87 86 83 78 64 52 47 50 54 62 78
65 84 87 81 91 98 80 79 57 65 67 63 60 57 54 49 45 43 44 41 37 34 32 48 81 78 75 66 74 74 64 69 86 86 90 88 80 80 76 54 43 39 40 43 48 58 70 80 86
66 73 98 97 98 84 67 71 58 39 37 46 43 38 36 36 38 44 53 52 47 38 36 49 76 81 86 91 84 75 70 78 74 79 82 76 73 64 52 42 41 46 48 54 63 70 75 79 86
60 61 92 88 89 72 53 66 45 34 35 36 36 36 38 41 41 48 52 53 53 47 41 41 50 65 72 82 90 93 94 82 77 76 71 66 58 53 53 51 54 60 54 64 68 75 78 86 92
56 75 50 75 66 78 60 44 35 36 44 45 45 46 46 43 42 42 49 53 52 53 52 51 50 54 56 58 62 70 80 79 73 64 54 48 47 46 48 50 53 51 52 58 71 78 87 83 92
52 46 65 80 71 65 64 50 52 44 47 43 45 46 45 46 48 48 44 42 55 53 53 53 53 52 53 56 59 59 58 56 55 47 39 37 41 46 52 55 58 60 67 73 77 80 90 89 88
67 63 65 67 76 76 63 50 34 45 48 46 43 42 45 46 49 51 50 43 40 50 60 61 58 55 55 57 56 56 57 58 58 56 53 52 55 59 62 55 60 67 72 76 82 86 90 89 88
67 61 60 78 67 78 71 54 40 43 45 47 46 48 44 47 53 56 56 53 55 54 55 61 63 60 57 57 57 54 54 53 55 58 60 61 61 61 62 61 66 69 74 78 82 84 88 88 92

GFSSGP_925_rhum_069.txt.gz
RH
84 80 76 71 69 76 64 58 39 52 44 31 40 53 67 70 58 59 96 97 73 92 89 90 88 90 91 90 78 78 96 88 89 88 93 97 98 97 97 94 91 94 91 84 85 94 94 86 80
85 78 77 86 80 73 57 45 38 68 54 42 37 62 69 79 86 94 95 95 80 89 90 91 89 91 90 80 77 92 94 84 90 86 90 93 96 95 89 95 93 93 93 91 86 80 75 70 80
87 75 84 91 91 63 55 36 31 37 42 52 46 67 76 92 84 86 84 99 87 91 90 90 89 87 87 83 81 95 79 88 91 89 90 88 89 92 87 97 96 96 93 58 42 68 66 62 72
73 84 84 88 87 62 36 29 28 60 71 62 48 57 88 94 91 90 94 94 94 85 82 89 87 85 86 86 80 90 96 96 88 91 93 94 97 90 89 99 99 87 65 49 42 44 53 52 54
76 87 85 90 80 48 39 33 45 53 72 63 48 51 88 83 86 99 99 94 90 84 85 86 87 87 86 84 74 90 88 91 90 92 93 94 94 97 94 100 94 65 51 44 42 41 46 48 48
87 85 95 97 70 49 37 35 48 45 62 69 63 54 80 86 99 100 96 93 87 86 89 89 87 86 86 71 73 90 86 90 88 87 93 94 96 96 96 98 97 92 58 49 46 43 40 41 46
89 86 85 83 68 48 36 34 42 43 56 63 52 49 90 93 99 99 92 88 85 90 88 90 89 88 79 64 67 86 89 91 85 72 63 69 63 68 67 63 68 76 70 57 52 48 46 42 40
89 80 89 83 69 53 36 42 43 47 50 38 41 60 87 92 69 99 84 94 93 92 93 93 91 88 79 67 64 68 86 97 87 78 66 47 47 59 55 51 57 51 50 51 48 46 44 43 41
78 96 91 80 66 49 40 46 43 50 58 70 42 67 68 63 53 93 85 86 100 99 98 94 92 87 72 60 60 63 76 97 92 78 69 71 53 49 47 49 47 48 46 45 44 43 40 38 36
88 92 74 64 48 46 46 41 52 60 77 83 92 79 84 79 69 81 94 97 100 100 99 100 92 86 76 61 70 82 72 97 100 83 80 75 68 53 47 51 48 44 42 41 39 39 40 44 44
74 89 66 58 65 68 50 45 47 66 72 71 66 74 81 91 76 81 85 92 98 99 100 100 93 86 77 62 69 85 81 85 97 90 81 77 71 66 66 56 50 50 46 44 46 48 46 53 57
79 74 64 54 80 76 55 48 60 52 52 52 78 74 82 88 89 71 78 84 74 72 90 98 92 85 78 69 56 73 85 90 93 92 82 74 79 78 77 73 64 46 50 54 68 70 68 66 67
81 75 74 75 84 82 72 58 59 56 54 83 86 80 81 82 78 79 75 86 75 80 80 81 88 88 78 72 72 65 61 74 85 86 81 69 70 72 70 70 68 58 55 67 75 72 71 70 69
69 74 76 81 89 88 78 63 54 52 58 90 88 88 81 87 87 73 79 88 86 58 40 57 66 84 87 75 72 73 70 59 59 61 57 59 61 61 62 62 67 64 63 69 69 69 70 71 73
79 87 90 87 87 88 94 74 73 55 65 76 89 90 88 87 91 82 78 86 58 66 51 82 71 84 82 88 84 77 76 74 72 74 70 65 62 62 61 61 63 62 60 60 63 65 67 69 73
85 92 96 88 82 86 89 85 68 59 60 60 58 62 89 89 91 87 82 75 78 72 76 69 79 67 84 74 80 89 82 72 72 72 73 72 67 66 64 66 59 57 57 57 58 62 68 70 71
88 100 95 92 80 90 90 84 66 55 56 59 56 49 49 55 64 84 87 79 73 62 62 69 83 68 55 66 76 76 75 74 72 71 72 72 72 70 68 70 64 66 67 65 64 67 68 68 63
93 97 90 94 93 90 89 83 67 60 56 57 56 57 48 47 48 58 73 79 64 73 69 68 66 57 60 64 74 71 79 72 74 72 74 72 72 72 72 72 72 72 74 74 74 68 64 66 67
77 96 96 88 88 86 88 89 75 74 59 59 55 53 51 48 42 39 40 59 90 73 61 65 70 70 71 76 80 93 79 73 72 66 70 65 69 69 70 74 74 76 78 74 67 70 72 74 72
78 94 98 88 88 78 87 88 81 84 73 55 53 53 53 48 44 41 39 36 73 82 64 70 69 70 71 68 70 76 73 72 75 70 64 65 67 69 64 65 71 75 78 76 74 73 76 72 74
71 91 96 94 88 84 88 88 87 84 72 58 55 50 50 50 47 44 41 38 33 63 75 73 68 67 71 77 77 77 78 75 75 72 70 73 72 76 74 73 76 79 81 80 78 78 82 87 80
72 60 66 82 78 94 84 94 73 71 68 61 61 61 57 52 49 47 44 42 35 34 52 63 61 59 65 76 77 77 86 85 76 72 71 74 70 72 70 76 76 74 80 79 74 77 80 85 95
78 69 62 68 87 88 92 95 66 66 68 63 58 59 59 55 52 48 46 42 38 32 36 58 67 64 60 63 58 65 63 58 62 72 76 68 71 73 82 88 84 72 67 74 80 65 54 56 61
68 83 90 86 97 98 88 84 61 62 64 58 52 56 56 54 52 47 40 39 40 39 37 42 56 68 65 65 74 67 64 64 67 75 88 86 88 91 90 85 79 68 68 60 43 44 50 62 75
68 71 98 97 98 97 81 84 65 48 44 50 52 47 42 43 47 47 46 51 48 47 38 33 42 60 78 82 89 94 73 65 63 69 90 90 96 93 81 77 68 60 43 45 47 50 56 64 78
72 64 86 88 95 90 68 82 48 38 40 42 44 46 46 46 48 53 64 54 57 54 49 49 60 74 80 84 90 88 98 92 91 85 85 86 93 83 73 69 56 40 42 44 52 56 67 77 80
85 77 54 72 65 77 65 46 37 44 50 50 52 52 54 53 53 50 50 61 57 54 52 53 51 50 52 56 62 69 82 97 90 90 87 83 82 76 60 44 48 52 54 56 66 73 75 84 84
54 50 67 81 74 66 64 54 56 45 51 50 54 55 55 56 58 60 59 55 58 62 61 57 54 52 52 54 58 60 64 79 88 84 78 72 65 54 54 60 60 62 64 64 67 68 74 89 89
62 64 66 69 75 78 70 53 36 43 50 56 52 52 57 58 62 66 65 56 55 57 59 63 62 58 55 55 56 60 62 62 64 66 66 58 58 67 62 61 60 57 58 64 68 71 78 92 90
73 63 61 76 70 80 70 58 51 54 50 54 60 58 58 60 62 63 60 56 54 53 58 61 62 65 63 60 60 60 59 60 61 56 53 53 58 60 59 57 57 60 62 66 75 76 78 85 94

GFSSGP_925_rhum_072.txt.gz
RH
88 81 70 75 86 72 74 67 48 47 52 45 42 59 67 79 60 61 94 94 76 86 87 89 88 89 89 92 71 93 93 87 95 98 94 96 97 98 90 92 94 86 85 90 91 94 96 85 80
77 79 72 90 90 88 66 50 42 54 68 50 41 71 72 87 87 95 94 94 84 87 89 90 92 90 92 90 77 94 90 87 90 96 96 96 98 98 95 94 94 88 87 95 97 93 83 82 82
81 80 89 82 80 79 63 47 42 52 52 64 52 63 84 98 86 89 84 99 96 91 91 92 89 90 91 86 88 97 88 92 90 92 95 98 98 94 97 95 96 96 95 96 81 71 76 78 78
77 86 88 90 80 67 52 43 44 68 69 76 75 60 78 95 98 92 87 100 94 87 82 90 89 89 87 85 93 96 95 91 92 91 89 92 91 90 97 96 96 96 83 70 71 63 66 71 76
81 96 91 96 73 68 48 34 41 58 70 63 67 62 63 88 91 94 91 95 88 86 87 92 86 88 84 85 94 89 97 94 94 95 92 83 84 95 97 97 97 83 68 56 55 54 53 52 51
91 87 99 96 81 62 47 38 39 56 58 55 76 76 62 88 100 100 98 90 80 85 89 89 86 88 84 74 94 85 89 92 95 95 95 97 91 96 99 96 97 60 47 45 48 50 51 50 49
95 95 83 88 82 72 50 40 56 62 65 59 60 67 65 90 96 100 99 86 82 83 87 90 89 84 76 68 92 90 88 78 86 91 93 94 99 96 96 89 74 56 49 48 47 47 45 46 50
92 86 82 79 80 78 47 40 41 55 58 50 45 72 68 92 85 86 98 81 84 84 87 92 90 86 72 59 74 92 92 84 77 75 84 83 87 94 96 68 64 58 51 53 50 49 46 43 42
78 94 81 78 77 65 45 45 45 48 52 53 45 56 65 92 81 85 99 96 95 92 88 91 91 85 74 61 61 86 94 91 83 78 66 68 67 74 68 64 56 50 50 49 48 47 45 41 38
92 87 72 56 62 63 42 48 51 72 66 80 54 76 87 81 75 91 82 99 100 100 100 100 89 86 73 64 64 72 92 100 91 74 73 62 55 58 57 58 57 55 51 49 47 45 43 43 43
85 86 59 68 56 57 47 58 51 72 68 77 55 79 76 78 87 82 84 99 100 100 100 100 99 87 70 58 61 65 77 99 97 79 76 75 69 56 56 55 52 48 48 46 44 41 45 48 53
91 69 66 58 56 69 66 58 60 63 51 57 51 73 80 81 81 81 93 73 92 100 100 99 99 91 77 62 59 79 74 94 100 91 82 75 70 66 63 56 56 52 50 49 55 61 59 65 68
93 75 64 61 63 78 82 75 76 59 66 73 64 72 77 66 76 79 90 64 82 89 75 95 95 92 85 70 55 79 81 82 93 98 86 76 76 74 73 76 71 59 51 54 70 72 72 72 71
81 74 65 69 64 73 81 79 80 67 64 85 71 78 80 75 80 80 76 82 72 58 64 67 58 64 85 88 71 63 71 81 88 93 88 80 70 72 74 71 69 66 54 70 74 75 74 73 74
63 85 84 72 71 75 91 80 84 70 83 93 72 76 81 83 83 84 80 76 85 60 68 63 59 48 55 82 86 79 70 73 81 78 69 62 63 66 68 67 65 67 66 66 70 70 69 68 72
90 81 95 70 82 96 80 84 78 74 79 78 88 85 75 77 83 82 84 72 68 75 76 64 50 45 43 65 73 83 88 86 74 69 69 69 64 65 66 66 64 63 66 65 63 65 67 70 72
88 95 100 91 83 90 85 92 80 73 75 67 65 74 91 92 79 72 72 73 74 63 54 57 47 52 68 83 73 72 74 76 77 93 88 76 74 72 67 68 69 62 60 60 59 61 65 70 69
95 98 95 98 89 86 92 87 72 78 71 70 64 64 67 73 81 83 82 82 77 80 60 54 62 56 70 70 84 74 63 75 82 78 82 78 75 74 70 70 72 69 71 71 70 70 70 67 63
73 79 100 95 87 86 91 85 78 76 80 65 65 59 65 60 57 60 83 90 61 63 76 64 65 67 69 68 63 61 76 72 68 72 77 77 74 70 74 73 73 76 76 76 77 79 71 72 72
74 83 93 87 87 82 84 89 82 83 88 79 67 58 54 54 47 49 50 50 68 77 83 64 72 77 75 82 65 70 67 67 71 74 78 74 66 71 75 78 73 74 76 80 81 79 77 71 69
84 89 96 99 88 85 87 93 92 79 82 77 64 58 49 49 45 44 42 42 42 68 59 58 62 67 79 72 78 78 82 91 91 80 82 77 67 70 75 74 77 79 80 81 78 80 80 80 84
89 74 78 94 83 97 78 98 89 91 80 75 76 64 56 52 47 47 45 42 39 36 38 67 59 61 64 67 85 98 93 91 95 90 91 83 78 69 73 74 89 83 84 76 73 84 76 79 83
92 69 75 78 87 89 94 97 74 77 88 72 68 65 59 55 53 49 46 41 37 37 36 36 67 59 57 67 60 68 77 78 73 74 83 95 96 96 87 69 73 85 82 74 68 68 77 69 64
75 84 86 92 92 95 90 82 61 60 58 61 59 58 57 54 53 52 44 41 42 40 40 39 39 65 82 70 72 79 69 68 62 73 77 80 88 90 93 100 90 80 72 73 74 69 54 42 53
78 86 98 98 98 97 80 83 78 47 47 48 52 51 50 54 60 63 60 56 55 53 49 53 48 49 65 80 90 96 92 95 95 85 72 81 86 92 98 99 86 83 80 70 67 40 38 50 62
75 67 86 90 96 97 90 83 56 44 50 49 51 53 54 56 55 56 72 68 65 60 57 54 59 65 68 70 76 83 84 88 94 99 93 90 80 84 95 93 95 85 71 53 55 56 59 60 65
75 79 58 74 68 93 78 48 38 50 55 56 57 58 66 66 67 69 67 70 73 71 68 62 56 52 52 52 51 55 62 75 90 95 99 98 95 92 87 87 89 78 67 62 62 64 64 68 74
60 52 67 81 76 79 69 56 57 52 60 59 62 67 67 68 70 71 70 67 61 62 64 64 63 60 58 55 55 55 56 62 78 89 91 96 99 97 91 94 78 69 63 61 61 65 71 76 84
62 66 66 70 78 76 74 53 46 45 52 59 67 70 71 72 73 74 70 65 62 55 55 59 60 62 63 62 61 61 61 61 64 76 84 84 85 83 79 71 68 62 61 61 65 66 68 77 86
77 66 58 79 69 78 69 61 64 53 56 66 72 73 73 76 76 77 73 68 66 65 61 57 53 56 60 61 64 63 63 64 64 65 66 64 63 64 65 65 62 61 63 65 64 64 70 76 80

GFSSGP_925_rhum_075.txt.gz
RH
81 78 87 78 79 74 65 59 48 45 48 59 41 61 61 71 54 50 89 93 93 96 97 96 88 89 91 80 85 89 84 88 90 90 94 90 95 97 97 95 90 90 89 89 91 96 96 94 85
86 85 82 86 81 71 59 44 50 44 51 58 46 58 68 74 78 91 93 89 98 96 98 97 91 90 89 76 91 88 85 80 95 91 94 96 96 89 94 93 88 91 92 94 96 96 85 85 81
86 80 91 91 70 63 61 41 40 41 50 62 68 53 74 86 82 86 85 94 100 100 99 97 90 90 90 76 92 91 73 65 96 91 90 94 90 92 93 93 90 94 96 97 93 83 81 89 87
81 91 83 95 72 50 53 40 35 38 63 64 82 76 66 93 95 91 92 98 99 98 97 91 90 92 78 79 93 93 76 89 93 97 94 91 91 95 92 96 92 91 94 90 75 74 78 81 88
84 90 85 92 78 55 48 41 36 42 47 64 70 80 65 94 80 88 89 94 99 93 92 93 90 86 70 85 95 89 94 92 95 94 95 90 86 92 93 99 99 86 84 74 64 64 65 63 60
88 83 88 86 67 58 52 43 39 44 55 57 64 61 73 95 66 71 93 97 84 86 87 89 89 82 77 94 91 86 94 94 93 88 91 90 96 89 98 96 96 93 78 61 55 54 53 51 48
88 87 78 66 67 69 55 42 46 43 54 56 55 64 65 84 76 76 100 82 80 84 88 91 89 89 74 94 88 86 82 93 90 91 84 83 93 94 100 96 96 92 77 57 52 52 52 51 48
85 79 73 65 71 67 52 47 39 47 53 43 48 57 59 62 79 73 94 89 82 83 86 89 89 90 74 87 92 91 83 73 85 88 91 93 94 94 96 95 95 80 57 58 55 52 50 46 47
71 87 79 65 61 62 48 53 46 44 49 52 49 52 65 86 90 92 96 97 87 87 92 88 89 83 64 64 93 92 88 79 68 84 87 91 98 98 97 80 70 54 55 53 52 49 47 45 42
88 88 71 46 47 58 47 49 47 51 53 57 50 88 91 70 86 93 99 98 86 87 92 90 90 80 63 58 81 97 98 94 83 71 67 69 72 72 65 60 54 54 53 50 50 47 44 40 42
81 86 58 54 49 52 51 57 54 62 62 57 54 69 91 94 91 91 94 93 95 99 92 95 94 83 71 57 64 92 99 94 91 76 69 62 68 68 61 58 58 56 54 51 47 44 43 46 47
82 67 64 57 52 58 57 47 55 60 55 46 47 59 80 82 86 86 88 87 94 86 100 99 100 90 74 60 56 66 91 99 90 79 77 73 66 57 57 57 54 51 48 48 46 46 47 59 66
84 69 66 61 58 60 64 66 51 54 54 53 52 71 70 71 79 86 82 68 82 80 81 100 98 92 80 68 60 64 67 90 96 94 80 74 69 64 59 58 61 55 53 51 60 66 69 70 72
68 70 73 68 61 63 60 65 66 51 49 68 67 70 73 68 76 83 82 70 80 82 73 92 95 83 83 76 66 81 82 75 93 100 92 83 72 75 73 74 72 68 54 54 62 76 77 76 76
69 80 74 72 68 66 65 73 88 60 60 71 67 70 75 71 77 79 81 72 70 86 83 70 69 70 70 71 68 69 90 96 96 99 99 92 83 72 74 77 73 70 66 62 75 77 74 71 72
85 77 90 70 71 60 69 78 75 74 75 80 63 65 73 80 79 82 82 79 73 56 72 70 89 73 66 79 74 75 71 72 86 98 100 98 84 70 71 71 70 67 72 70 69 68 69 69 72
87 96 92 90 65 78 84 73 82 75 82 79 72 83 76 76 85 76 76 89 87 69 68 73 61 73 68 82 69 72 76 81 80 76 69 74 81 69 68 68 69 68 67 68 67 63 64 69 72
97 99 98 86 80 79 93 86 80 79 80 76 71 77 89 87 80 87 74 79 85 84 80 82 66 62 56 68 75 78 78 74 67 71 77 81 83 83 74 70 70 70 66 63 64 63 64 70 66
99 93 96 83 73 78 94 89 80 86 80 70 74 70 76 88 81 94 86 90 82 85 90 86 75 61 52 55 83 82 74 70 77 61 62 71 72 89 86 76 70 72 71 70 72 71 72 72 72
95 91 94 83 88 83 82 92 85 79 83 82 76 72 63 62 60 63 66 86 63 87 82 71 65 68 64 72 68 76 80 80 62 65 61 67 68 78 86 78 74 73 76 76 78 80 79 78 75
79 80 94 99 94 86 90 94 92 81 78 78 72 68 60 60 55 52 56 56 62 66 63 62 67 66 67 70 77 79 81 83 80 79 82 84 82 97 100 77 75 76 78 76 77 77 76 75 79
88 72 77 85 97 96 88 99 86 77 75 76 78 77 70 56 57 50 49 46 42 40 44 72 59 63 63 67 82 77 83 96 91 95 89 95 98 97 95 99 88 87 87 94 91 76 72 73 84
92 70 77 77 85 92 99 90 75 85 85 78 76 75 71 64 56 49 46 44 45 46 43 40 45 76 61 64 74 80 89 84 80 83 78 86 80 88 84 86 99 100 100 89 83 72 66 70 77
77 78 84 88 88 91 99 77 80 58 63 80 80 64 61 54 52 52 50 50 52 50 48 48 50 71 86 90 79 78 65 72 93 80 86 85 82 86 91 91 99 100 96 90 81 74 73 77 68
75 84 99 96 94 96 95 77 76 47 50 64 75 60 51 53 60 67 66 69 70 65 59 61 69 76 77 79 86 93 96 95 96 88 80 87 93 94 85 94 100 100 99 96 89 86 82 63 64
85 80 84 91 92 98 89 76 84 53 54 54 55 67 67 62 63 67 73 79 81 74 66 60 59 59 60 62 64 68 74 80 87 95 97 95 94 89 84 96 98 93 86 93 91 78 66 63 67
71 77 57 90 94 93 73 53 46 54 57 59 61 63 66 65 65 67 66 71 76 72 73 69 64 61 58 56 56 55 57 62 71 77 88 99 100 99 100 100 90 89 91 92 84 68 62 62 65
58 53 65 80 90 94 68 59 64 62 64 65 67 68 67 67 68 68 70 73 71 66 62 60 62 65 65 61 58 58 59 61 67 78 86 94 100 100 100 100 96 99 90 76 65 61 63 65 66
66 65 68 69 73 73 73 56 50 51 59 72 74 74 73 72 71 69 69 71 68 65 63 62 59 57 59 60 60 60 60 61 63 68 82 91 98 100 100 100 97 82 72 64 60 62 63 64 71
80 68 57 71 67 69 68 62 63 55 62 70 78 77 71 67 64 62 64 65 63 59 61 67 65 62 62 60 65 61 61 62 63 65 69 74 80 84 83 81 71 68 64 61 58 61 64 66 68

GFSSGP_925_rhum_078.txt.gz
RH
81 75 80 66 50 44 42 35 30 28 34 28 34 36 35 46 36 47 75 75 64 67 74 90 89 90 91 82 89 81 85 90 86 85 88 92 94 97 98 93 90 88 87 91 88 89 94 96 97
80 74 71 57 59 44 38 29 37 29 27 33 37 49 51 52 58 63 79 84 73 69 76 80 90 90 86 78 91 78 83 88 86 80 83 87 95 97 95 93 90 89 89 91 95 96 96 92 93
74 75 64 71 55 45 34 26 29 26 32 39 43 49 60 62 63 68 84 77 76 70 74 79 89 88 82 80 90 82 73 88 87 83 87 92 95 93 93 91 89 90 92 96 97 95 87 82 89
65 74 63 74 50 36 32 23 26 26 35 41 39 54 59 75 67 97 82 78 80 73 76 87 89 90 80 85 90 86 67 92 88 88 90 90 87 93 92 92 88 90 95 98 89 83 84 84 86
68 61 62 62 52 36 27 24 24 28 26 35 47 48 63 73 70 82 92 77 72 71 74 91 88 91 73 88 90 82 60 92 94 91 90 87 90 92 93 96 91 93 97 88 80 78 78 80 85
62 50 56 58 40 33 32 29 28 30 27 25 37 40 54 81 70 70 78 78 72 73 76 83 89 84 70 92 91 75 69 82 99 96 95 98 89 93 94 96 99 98 97 81 70 64 56 52 51
64 55 51 40 37 34 31 28 34 33 30 28 26 43 34 74 69 67 64 90 76 73 79 83 90 83 84 93 88 65 62 85 92 96 94 88 89 92 94 98 94 96 96 74 59 55 52 49 48
61 56 54 41 39 36 27 30 33 35 32 22 26 43 37 45 92 87 66 85 89 83 84 85 88 79 90 99 87 79 62 82 83 81 85 85 87 94 95 98 99 95 72 61 56 52 52 49 46
53 76 61 44 37 33 25 36 31 30 31 27 29 33 30 57 91 82 89 89 93 85 90 88 88 78 72 93 97 88 71 76 86 84 83 86 89 87 93 84 95 77 62 58 55 51 45 43 43
60 63 50 32 28 30 26 36 36 38 36 34 36 33 57 83 76 87 90 90 87 76 98 94 87 77 71 81 98 93 91 80 72 78 86 74 73 73 72 90 85 72 63 58 56 54 48 44 46
47 63 38 36 34 32 30 35 32 40 42 33 34 36 58 72 77 87 94 90 93 93 96 98 92 80 68 71 93 95 92 82 76 68 69 68 75 86 77 77 83 78 64 66 66 60 53 50 49
75 48 38 37 37 41 41 33 38 41 32 28 31 44 55 72 72 75 80 84 79 93 90 99 97 86 70 66 84 96 100 90 91 79 71 74 76 78 71 69 71 70 65 61 59 52 52 54 57
60 52 44 37 43 46 43 42 39 39 34 28 31 40 55 68 61 74 80 74 66 96 93 96 98 94 82 72 71 89 95 99 89 84 81 74 71 72 70 66 65 62 60 55 53 54 55 60 66
45 51 51 47 48 50 48 47 45 40 30 36 34 39 52 63 66 70 77 81 64 64 82 88 100 99 88 77 78 76 86 96 99 90 87 84 79 79 73 69 68 66 62 58 57 62 66 67 69
72 79 61 52 48 56 42 58 57 44 41 38 38 41 50 63 64 64 69 77 82 76 77 80 94 99 88 91 88 91 90 89 98 100 100 96 90 82 78 74 74 72 70 58 63 67 73 70 71
78 79 96 51 49 45 57 58 39 38 48 44 39 44 57 66 62 67 70 74 81 84 86 79 78 81 86 77 90 92 95 98 96 100 99 99 97 90 77 74 75 73 72 67 68 72 71 66 64
93 97 87 57 42 46 59 67 41 44 54 46 39 48 72 84 67 69 66 75 84 88 83 77 73 82 78 89 93 78 78 90 90 92 90 97 96 91 84 77 76 78 74 74 70 68 64 62 66
100 83 68 61 46 49 53 57 65 59 52 50 48 56 84 83 75 77 78 81 78 80 81 65 77 96 84 80 66 85 90 80 97 95 87 84 82 82 82 80 76 76 75 70 71 64 63 64 64
100 98 90 58 69 54 87 68 76 72 64 58 62 65 68 80 93 97 84 71 91 68 78 84 76 78 86 95 74 74 70 90 87 81 93 90 89 90 92 91 86 76 73 68 64 65 66 70 75
100 97 97 92 72 57 91 86 77 73 71 63 64 65 84 93 94 95 97 96 94 84 81 80 88 78 81 83 71 71 76 96 90 89 91 92 96 85 88 80 96 89 78 73 67 71 76 78 74
98 86 82 98 84 76 79 93 89 76 74 75 71 64 72 77 87 90 98 95 86 94 91 89 88 82 75 68 77 82 89 86 81 86 96 95 90 92 97 90 89 99 92 83 78 80 80 74 77
89 68 92 96 99 98 84 92 100 89 84 84 70 67 76 76 62 67 71 76 88 88 78 83 89 76 69 74 72 78 83 89 87 86 86 88 88 99 96 96 100 98 100 95 92 85 83 80 78
78 80 82 87 69 82 96 96 94 86 90 86 77 78 75 72 65 55 48 51 55 51 52 62 87 88 82 85 84 75 79 87 89 84 85 99 96 84 80 70 91 98 100 100 100 99 90 83 76
80 67 73 69 67 91 100 94 93 81 56 70 69 75 69 65 60 53 56 58 64 65 62 62 78 97 96 84 74 73 71 84 96 95 93 93 91 92 83 88 99 90 99 100 98 97 94 87 80
85 66 93 86 91 95 97 79 93 50 48 51 76 69 75 65 60 61 62 62 68 70 68 75 80 87 95 96 100 99 87 84 86 92 89 96 100 97 89 99 95 95 84 97 100 95 92 95 89
71 68 64 69 87 96 59 88 88 51 55 76 74 75 65 69 59 64 60 64 67 71 70 63 64 68 67 65 72 85 100 100 100 100 100 100 100 100 100 100 100 97 99 99 93 92 84 91 87
64 67 49 71 78 62 75 59 50 50 57 69 80 78 80 64 56 55 56 58 59 61 64 66 64 64 67 65 66 66 70 76 89 89 98 100 100 100 100 100 100 100 100 100 99 95 93 93 81
50 43 59 66 73 78 71 56 61 56 60 58 62 68 70 61 59 57 55 58 60 61 60 59 60 63 65 66 66 67 63 64 70 78 84 92 100 100 100 100 100 100 100 100 96 91 81 69 74
55 51 51 48 58 52 59 61 41 51 52 57 60 58 56 55 51 48 46 48 50 55 60 62 61 62 62 63 68 69 70 64 64 67 76 90 98 100 100 100 100 100 100 91 82 74 69 69 70
66 54 43 45 55 54 42 51 46 44 51 54 58 54 50 50 46 46 46 45 47 49 51 58 66 67 69 67 65 64 70 72 68 68 70 78 90 99 100 100 100 99 90 78 73 68 64 66 66

GFSSGP_925_rhum_081.txt.gz
RH
80 63 56 53 52 40 38 33 22 21 18 16 21 27 27 22 36 52 63 57 55 54 78 92 87 90 90 82 83 84 86 83 80 86 90 93 94 96 98 95 89 88 88 89 79 88 94 96 94
72 61 56 47 52 44 34 23 25 20 19 18 28 35 38 36 46 59 67 73 63 53 78 80 88 88 83 82 85 83 86 90 75 87 86 86 94 98 97 93 89 86 86 82 84 93 96 92 91
68 62 51 46 50 46 30 21 20 18 19 26 32 45 42 44 61 66 70 66 68 63 73 79 89 89 82 84 85 83 87 85 77 90 86 87 94 98 95 91 86 87 84 91 96 91 94 89 91
50 54 54 49 38 33 28 20 16 18 19 22 36 37 51 56 59 76 84 68 70 75 74 83 86 86 79 81 87 78 86 87 79 87 85 86 95 96 93 85 85 86 94 92 89 87 84 85 89
47 41 47 43 41 31 21 20 17 19 19 26 27 39 43 58 69 75 80 76 72 76 80 85 81 88 75 84 88 78 78 86 85 80 84 90 92 92 95 86 87 92 94 96 88 86 90 84 86
51 40 44 42 33 25 22 19 19 18 20 19 25 34 34 54 61 77 77 84 78 71 76 84 85 85 76 92 88 76 59 89 87 90 89 90 88 91 90 88 88 95 96 90 81 76 78 76 69
54 43 38 32 27 23 22 18 20 21 20 21 19 24 31 59 64 80 72 78 95 90 75 82 86 90 77 93 88 75 47 92 89 92 94 92 85 87 95 95 98 98 92 80 70 58 51 51 50
44 44 42 32 29 26 17 18 17 19 23 17 17 27 28 42 80 88 65 83 86 87 93 87 88 84 84 98 92 68 55 84 95 98 95 92 84 89 90 93 98 99 89 69 58 54 53 49 46
39 72 58 38 31 25 17 18 16 17 23 22 21 20 22 44 81 92 89 76 87 78 76 99 85 77 72 88 92 72 67 83 93 92 91 86 87 90 91 86 96 93 80 67 60 55 52 48 45
49 55 47 29 23 23 19 19 18 22 24 28 26 20 23 63 80 80 83 85 85 86 71 77 93 81 70 87 93 80 76 78 72 85 84 84 77 73 72 92 92 89 69 62 57 51 44 41 48
43 49 30 26 24 23 24 22 18 24 30 25 28 26 30 49 62 73 80 87 84 87 79 80 72 86 69 82 89 73 70 60 64 70 77 64 64 72 78 91 93 88 65 72 59 50 48 46 41
57 41 38 30 26 28 33 29 26 23 24 21 22 26 36 45 54 68 84 94 83 77 72 71 75 80 78 74 86 83 64 58 58 63 63 60 63 72 64 67 67 66 60 58 60 56 48 46 46
38 38 34 34 35 30 30 35 31 28 24 22 25 37 32 52 59 64 73 85 82 77 79 77 68 89 85 61 82 91 82 64 62 59 58 62 67 70 64 62 61 61 57 52 53 48 44 46 48
34 34 35 35 35 38 36 34 34 31 23 24 27 29 32 33 56 60 64 66 82 76 94 77 75 98 98 58 78 87 93 82 78 69 67 62 62 65 60 57 57 57 55 52 48 46 48 48 54
43 56 52 44 44 45 40 48 41 29 27 30 28 30 30 36 50 56 59 57 80 92 75 62 97 87 97 64 64 77 91 92 86 80 72 71 70 68 64 62 63 63 59 52 50 49 53 56 55
56 58 82 45 44 45 47 66 32 26 30 34 33 31 33 36 45 57 61 60 71 91 82 86 90 72 96 84 74 71 73 82 89 88 91 83 81 74 72 71 69 65 62 60 50 54 58 60 58
64 81 64 54 41 45 52 54 33 24 28 34 35 35 34 37 48 58 61 61 72 85 93 86 82 71 91 83 79 85 81 84 79 87 90 95 90 86 77 66 66 67 67 64 59 60 60 59 57
73 95 76 59 46 47 51 46 39 49 46 32 38 34 38 48 66 78 75 71 74 85 88 97 89 88 81 83 75 80 85 86 86 87 84 89 92 87 81 76 73 72 73 68 66 61 60 57 55
79 99 96 84 44 44 48 44 36 63 60 54 37 34 41 54 83 84 92 82 80 83 90 92 91 80 81 86 82 74 75 77 82 89 86 84 81 77 79 80 81 81 76 70 66 62 58 59 61
78 98 95 77 54 53 41 53 37 58 64 64 59 45 52 88 95 98 96 95 88 90 83 88 89 75 79 80 73 78 76 72 78 90 90 88 88 88 86 86 95 93 79 79 75 61 61 60 64
96 85 85 100 73 59 62 91 75 55 56 60 62 61 72 80 95 97 97 98 96 87 88 88 89 90 85 84 82 78 78 78 81 92 91 91 93 92 94 88 93 94 87 79 79 90 67 72 74
95 70 91 95 70 85 60 84 89 72 69 81 72 74 80 85 87 90 93 100 98 91 86 91 93 88 66 81 90 88 86 83 84 84 86 84 79 93 95 98 95 88 95 99 91 87 100 81 79
97 70 73 86 98 87 79 71 89 90 86 93 89 89 84 85 85 88 92 91 92 97 97 90 90 90 88 82 84 86 93 84 87 88 92 78 72 91 83 76 92 99 91 94 100 100 99 100 94
76 83 86 87 96 95 98 76 97 100 98 80 85 84 72 67 84 89 78 70 72 72 71 70 77 86 86 87 86 86 89 91 88 94 93 80 80 89 86 66 64 99 76 79 82 86 100 97 95
86 79 95 99 98 98 99 67 98 94 67 79 90 86 78 72 75 85 78 70 69 67 71 82 85 85 93 99 99 98 83 88 92 81 90 86 89 89 78 79 99 97 81 68 73 98 100 99 94
88 63 85 94 92 92 69 92 95 89 83 89 81 80 81 77 77 74 65 69 66 68 63 61 64 65 66 69 74 87 99 99 98 96 99 98 96 98 99 90 97 90 82 80 94 100 100 99 96
61 64 45 56 45 61 81 91 74 75 85 83 82 79 78 83 77 67 67 52 52 53 56 58 59 62 64 67 65 64 66 75 90 95 99 94 99 97 100 100 100 100 100 100 100 100 99 99 97
54 41 62 59 74 75 64 64 72 75 84 82 88 87 80 68 60 56 47 49 52 53 53 53 54 56 59 62 66 66 64 62 65 77 88 94 98 99 99 100 100 100 100 100 100 100 100 96 96
54 45 39 41 51 47 58 63 41 50 54 62 67 70 68 63 50 44 40 41 42 45 51 55 57 59 60 58 57 62 65 66 64 68 73 84 94 99 100 100 100 100 100 100 100 100 96 95 91
54 41 36 47 51 43 43 58 38 43 46 49 52 50 47 45 44 42 40 40 43 45 46 51 55 57 59 61 59 59 59 64 67 67 68 71 79 91 99 100 100 100 100 100 99 94 87 80 83

GFSSGP_925_rhum_084.txt.gz
RH
74 69 55 49 78 63 58 49 34 34 27 17 16 22 34 35 60 82 62 58 56 75 84 81 88 85 85 78 70 65 62 56 85 89 93 93 92 96 98 94 90 85 85 86 88 86 84 96 95
76 63 51 64 73 69 50 32 32 27 22 18 22 32 35 60 58 64 71 59 59 74 82 85 86 88 89 80 82 81 78 66 77 87 88 87 95 97 98 92 89 84 75 80 86 90 91 93 74
73 60 69 69 67 68 50 30 24 20 19 20 42 40 56 69 67 69 73 64 69 74 74 76 86 86 83 85 83 82 86 79 77 86 88 87 93 95 96 89 83 79 78 84 88 91 88 88 66
53 52 63 78 53 45 42 33 26 22 18 20 34 41 55 58 61 77 80 68 75 78 77 72 79 87 79 85 85 82 86 81 73 92 88 87 94 91 94 82 84 80 85 91 84 86 85 84 69
47 54 67 59 51 39 28 28 26 24 20 22 22 45 62 63 67 81 81 71 77 77 76 78 78 83 79 84 88 74 87 82 67 90 86 86 92 91 87 84 85 85 93 86 87 78 80 86 72
65 52 65 62 45 31 28 25 24 22 19 18 26 30 62 60 64 76 84 76 85 82 81 83 81 81 77 83 90 71 84 83 73 82 82 89 90 92 86 86 88 94 91 90 87 87 92 86 72
73 62 60 48 42 32 25 20 23 22 22 20 19 33 39 71 62 53 88 82 86 90 90 88 82 83 78 83 91 78 77 85 82 82 87 92 83 88 90 89 92 98 96 92 82 82 77 63 56
52 57 65 51 42 33 21 19 18 21 21 17 17 28 33 58 67 86 91 86 72 71 76 93 98 85 81 87 90 78 58 89 87 91 95 88 83 86 91 92 92 96 92 82 70 56 50 47 46
41 71 72 55 42 34 22 22 17 15 19 17 18 21 21 61 79 87 95 92 75 72 90 96 87 83 99 82 94 83 63 95 94 98 94 88 83 88 91 97 92 94 84 69 61 54 49 45 42
55 68 61 39 33 31 24 23 21 19 19 21 23 22 25 80 87 92 93 92 95 84 60 88 84 68 84 86 85 80 73 96 94 99 93 89 84 90 88 91 97 95 76 62 56 49 46 44 41
50 64 43 35 29 29 29 26 22 28 27 21 25 26 24 61 79 80 82 84 87 71 74 75 70 78 83 86 98 85 82 92 90 91 88 82 79 85 88 89 90 82 64 57 52 47 42 39 48
62 48 44 41 34 34 32 27 31 31 31 22 21 22 38 57 69 74 80 86 91 69 64 66 56 75 69 92 95 88 74 76 74 86 82 78 74 77 86 82 73 64 55 56 52 49 41 45 44
41 40 33 33 34 34 34 38 32 33 27 24 23 24 36 44 66 65 77 86 90 84 61 64 74 70 71 90 83 88 68 64 66 75 71 65 72 71 76 71 69 73 61 65 60 58 50 47 47
42 41 40 38 37 37 39 38 38 29 29 29 26 29 31 39 50 70 71 80 84 80 70 72 91 91 66 76 89 86 66 60 59 65 63 63 71 69 64 64 63 63 60 54 54 52 46 45 46
47 58 52 48 42 45 39 49 50 33 27 30 30 27 30 44 38 56 64 75 80 80 86 80 90 92 84 65 92 87 73 63 62 60 61 63 65 67 64 59 59 56 55 53 50 48 46 50 51
66 67 80 50 47 44 46 66 44 40 35 32 31 32 33 39 37 55 60 60 70 79 92 96 93 90 78 94 95 82 70 75 70 67 64 66 66 65 61 59 59 60 60 58 52 50 50 56 58
74 92 76 61 41 44 49 60 45 35 33 32 31 35 40 42 42 49 59 65 71 81 89 96 89 83 69 59 77 81 75 73 76 78 74 75 76 72 72 72 71 69 65 63 60 51 55 59 61
81 82 87 90 58 60 55 57 42 42 47 50 30 31 44 45 61 74 72 76 78 80 91 95 89 88 81 72 70 65 76 78 76 81 84 82 86 84 80 72 67 69 68 67 65 60 60 62 61
71 76 80 71 57 78 74 61 49 54 64 75 70 53 45 58 89 85 90 87 88 86 90 97 91 68 87 99 77 70 71 80 86 80 83 85 84 82 86 79 74 75 77 73 70 67 65 61 59
88 83 87 72 66 75 83 61 47 47 69 63 71 71 67 84 90 89 88 88 91 94 90 98 97 88 69 87 83 79 75 67 69 77 84 81 84 81 81 81 80 79 81 79 77 75 76 64 60
91 79 91 96 90 76 66 64 57 58 53 57 58 69 84 87 91 90 90 92 94 95 98 99 99 92 91 92 89 84 83 81 78 76 77 82 81 80 84 82 85 86 86 80 72 74 80 90 71
99 72 76 100 95 93 78 98 68 75 71 61 75 75 90 93 94 93 94 99 99 99 97 100 100 98 92 89 87 91 84 82 84 88 88 87 86 81 79 77 80 83 87 84 78 82 83 96 94
96 73 92 90 93 86 86 97 92 84 83 84 91 89 91 90 91 94 95 98 97 97 100 89 98 99 86 88 87 88 85 92 89 89 96 90 86 79 82 82 84 83 81 83 73 81 91 90 95
73 81 90 95 99 87 83 87 99 97 98 90 91 90 92 94 93 93 94 93 94 93 93 95 97 84 87 85 89 97 88 90 82 86 88 89 87 81 82 92 82 80 96 84 93 98 100 99 89
84 96 99 98 98 98 95 76 95 92 91 86 93 95 94 92 92 94 94 92 85 82 84 83 82 86 96 100 100 97 94 93 88 89 97 99 82 87 84 86 93 64 83 95 99 94 93 100 97
85 97 99 97 97 98 77 95 99 95 91 86 90 91 91 92 82 83 91 88 71 63 65 66 65 65 67 68 78 88 98 96 88 79 98 84 95 90 87 85 75 66 97 87 78 94 100 100 96
70 93 73 100 66 92 99 100 97 95 93 91 93 92 93 89 86 81 70 66 59 54 54 56 58 60 62 65 65 65 67 78 91 97 99 100 96 98 98 86 86 88 83 96 98 100 100 100 98
58 46 73 88 97 95 86 92 100 100 98 92 90 92 86 78 80 61 60 59 53 55 56 57 59 60 60 58 58 63 65 63 64 69 77 88 92 95 99 99 99 99 99 100 100 100 100 100 100
59 57 48 49 62 75 81 96 58 90 87 93 90 82 63 67 54 47 45 43 44 47 52 55 57 59 59 58 59 58 59 62 62 62 65 68 72 88 94 98 99 100 100 100 100 100 100 100 100
59 45 41 77 61 64 72 77 50 56 56 55 58 58 50 48 48 47 45 46 48 51 52 55 57 60 62 61 59 60 60 60 60 63 66 66 65 72 79 86 99 100 100 100 100 100 99 99 99

GFSSGP_925_rhum_090.txt.gz
RH
54 66 65 64 89 91 93 82 62 61 43 32 26 29 38 67 68 62 74 71 70 76 80 85 90 91 80 80 84 86 86 81 86 90 98 98 94 99 95 89 94 96 96 97 94 93 91 85 82
69 64 62 84 91 95 89 71 63 52 38 30 29 42 61 82 75 79 74 90 76 76 71 73 85 89 78 73 69 71 82 86 85 85 90 92 94 91 95 91 90 90 85 93 98 94 56 54 78
61 65 78 90 95 96 82 54 55 42 34 33 30 45 68 83 77 81 73 88 81 78 70 70 68 76 74 72 66 62 64 80 84 82 85 87 93 86 94 89 82 81 78 83 87 57 38 57 73
62 63 75 89 94 75 64 55 45 43 33 28 30 40 69 67 71 70 69 77 81 79 73 67 67 67 68 67 69 70 64 59 85 86 82 87 92 84 92 82 80 81 80 84 81 62 46 60 66
63 78 83 97 91 74 57 47 41 39 36 31 26 33 66 70 85 80 74 75 83 87 82 80 76 69 80 80 79 73 84 80 72 84 86 84 88 85 83 87 79 76 84 88 83 74 52 43 65
79 75 94 95 69 54 44 38 32 34 34 31 27 40 64 71 89 94 90 82 86 87 89 87 86 81 78 85 82 79 82 88 75 78 86 83 86 87 76 82 77 81 83 90 87 84 57 44 60
84 87 88 78 74 57 42 32 30 30 30 27 22 27 48 84 85 100 99 85 94 87 88 92 93 96 94 97 96 95 86 85 84 70 83 82 85 86 75 78 79 83 81 79 84 85 71 47 53
74 77 81 78 79 71 45 41 31 31 31 22 20 28 32 77 77 98 100 99 91 82 81 94 95 94 98 94 88 89 90 90 89 70 80 80 85 86 81 80 82 79 81 89 76 86 86 54 46
46 83 93 78 67 61 41 42 31 28 29 30 23 26 71 90 93 100 100 100 100 97 92 90 91 92 88 81 72 74 85 79 86 75 80 81 84 85 82 81 83 82 85 87 85 87 71 50 44
60 86 78 62 54 55 46 45 41 36 36 33 32 32 33 85 100 100 100 100 100 100 94 93 94 87 87 77 67 64 64 62 71 88 80 80 89 87 80 81 83 85 86 88 86 74 50 44 41
62 76 58 50 48 50 52 49 40 43 44 35 36 34 34 42 94 92 93 96 92 92 91 88 89 90 87 83 77 71 60 63 55 54 89 93 94 90 84 80 86 90 90 80 70 56 49 42 38
71 60 56 54 51 52 52 45 46 42 40 36 36 32 33 51 91 92 85 82 79 82 75 72 74 74 81 74 63 55 46 54 53 61 84 100 93 91 90 84 87 93 88 74 58 52 46 42 39
56 55 53 51 50 48 43 46 46 43 37 37 35 33 37 43 51 73 68 68 75 77 77 76 70 67 57 61 74 70 63 59 49 60 67 87 100 95 92 88 87 93 86 65 54 50 43 38 45
58 64 63 58 57 53 53 48 45 39 36 35 35 36 38 38 45 62 73 71 71 68 69 67 60 56 58 69 85 91 76 62 53 59 65 89 84 99 96 95 92 93 87 61 48 43 42 38 45
62 69 67 56 55 59 52 60 55 38 35 38 36 35 39 40 34 45 46 62 62 65 66 69 65 67 71 72 84 92 93 70 61 67 77 73 90 97 90 87 92 79 76 52 49 50 54 48 49
68 73 94 61 55 56 60 70 50 41 40 38 38 40 38 41 39 34 34 47 56 67 72 64 67 66 67 74 80 85 92 95 79 97 99 75 86 86 91 87 83 68 56 52 62 63 61 58 51
85 99 89 75 53 58 69 80 62 54 56 46 39 37 46 44 42 36 31 50 60 65 72 76 77 60 66 81 88 88 82 100 99 94 99 76 81 88 82 87 77 59 64 62 63 61 59 53 51
91 86 88 86 63 59 67 71 57 55 66 58 47 51 46 48 49 55 68 64 72 72 76 73 69 70 73 80 98 97 82 86 76 80 85 85 85 81 77 80 66 65 69 65 60 55 53 52 53
81 94 93 77 63 70 74 74 72 66 70 64 68 73 69 62 50 85 96 83 80 79 86 82 82 77 77 84 87 89 83 98 94 83 83 89 84 77 74 68 66 66 62 57 56 55 55 57 58
91 89 86 75 63 74 81 85 72 68 68 60 66 78 83 81 94 92 99 100 100 95 94 96 92 91 93 83 87 94 86 97 99 94 92 78 63 67 70 64 62 61 60 62 64 64 61 59 62
86 85 83 97 84 76 79 80 80 65 63 78 84 88 87 89 87 94 96 99 100 99 97 99 98 97 94 85 90 90 90 95 100 100 99 88 72 65 67 64 67 74 75 73 69 66 68 71 70
96 72 90 99 98 95 83 94 91 86 83 88 88 97 94 97 98 96 97 98 100 99 97 100 99 100 99 95 97 91 94 98 96 100 97 89 81 75 71 69 81 77 78 76 75 78 78 78 84
84 85 94 89 91 97 95 99 76 82 80 89 82 86 90 94 96 97 96 98 99 100 99 100 100 99 100 99 98 100 99 100 99 99 100 99 97 93 86 85 83 79 78 76 81 80 88 86 75
74 85 96 96 97 98 87 91 96 96 92 82 80 93 96 94 94 94 97 98 98 100 100 100 100 100 97 100 97 100 100 100 100 100 100 100 99 94 92 87 84 89 87 88 84 81 77 75 86
87 100 98 98 98 98 87 89 95 90 83 83 90 95 96 94 94 95 96 96 96 96 99 98 92 96 96 100 99 100 96 100 100 98 95 96 95 94 94 90 91 86 88 88 86 83 85 85 97
96 100 98 97 97 97 92 95 96 91 88 90 92 94 93 94 94 95 95 96 95 93 89 89 88 86 84 83 88 94 97 96 99 100 100 95 95 95 97 90 89 88 86 85 86 85 91 99 100
93 100 92 100 84 94 97 100 98 96 90 89 92 94 97 97 94 94 93 94 87 81 75 76 72 71 69 69 68 68 71 85 92 92 95 97 100 100 100 100 100 100 87 89 99 89 90 99 100
84 65 95 98 98 96 96 98 99 100 100 97 94 95 95 92 91 90 88 91 77 72 65 60 61 64 64 63 62 64 65 67 72 78 81 76 76 83 88 89 94 99 100 100 100 98 95 95 92
74 81 68 63 83 95 86 98 96 99 99 99 92 93 93 92 87 86 81 82 64 62 63 62 61 63 64 65 64 62 63 63 62 63 65 66 67 67 68 77 80 89 98 99 100 98 99 99 100
60 70 58 76 65 85 84 95 87 91 91 88 85 75 78 82 72 65 60 60 62 64 65 65 63 64 67 67 67 68 67 66 65 66 66 66 67 67 71 70 75 81 83 96 95 96 98 99 100

GFSSGP_925_rhum_093.txt.gz
RH
55 67 64 61 88 90 94 78 66 62 48 35 31 30 32 39 46 59 73 82 87 83 86 85 85 88 87 87 83 81 72 74 88 94 96 93 95 99 91 94 96 95 96 97 88 92 91 92 96
67 67 61 83 88 92 71 75 68 59 45 38 32 40 64 72 79 78 79 81 79 82 85 85 86 85 86 85 86 84 81 83 85 88 91 96 92 98 92 94 97 95 95 96 93 93 87 88 92
63 65 68 89 93 93 69 61 61 48 39 36 33 39 70 78 79 80 76 85 89 89 87 86 84 85 76 72 81 86 86 84 83 86 85 88 94 87 93 92 94 92 90 92 89 88 92 96 96
58 65 73 89 88 82 69 55 51 47 36 32 29 32 47 71 77 85 83 90 82 81 82 82 86 85 72 66 62 64 78 87 85 82 87 85 93 82 92 86 85 85 84 82 63 45 72 84 84
60 75 83 95 93 81 66 54 45 41 37 34 31 30 49 72 76 80 82 96 85 77 77 81 80 74 72 73 69 64 62 67 86 85 86 86 93 88 88 81 78 76 78 78 70 44 67 71 76
82 74 80 80 76 60 50 41 34 34 33 30 29 32 51 76 89 75 82 93 94 86 89 75 71 71 74 77 78 76 83 87 75 82 87 84 86 87 81 80 81 76 81 82 75 51 54 66 74
83 81 76 81 80 62 48 34 33 35 34 29 27 30 29 72 82 98 83 97 70 77 87 94 89 89 92 95 94 91 90 95 92 76 82 88 82 84 81 85 75 78 83 85 82 65 47 59 70
83 81 88 82 80 64 46 43 35 32 34 28 26 35 61 87 98 100 100 98 97 78 82 84 88 95 95 95 92 92 91 92 96 91 74 86 84 84 82 81 77 82 82 85 84 80 50 49 66
52 85 93 77 75 63 48 50 38 31 33 33 28 38 54 78 73 98 99 100 98 100 98 84 87 95 96 90 84 82 78 67 77 87 82 83 85 85 82 80 76 82 78 81 80 82 73 48 55
67 88 80 65 57 56 51 53 49 44 44 40 33 32 29 30 48 86 95 98 99 99 100 98 96 93 88 84 76 78 76 67 59 61 87 87 85 87 85 78 77 79 80 90 81 81 85 56 48
64 78 64 54 49 52 58 54 45 47 51 39 41 38 36 32 35 80 92 99 98 98 100 100 96 93 85 80 69 65 67 58 57 53 48 77 88 88 87 80 79 83 82 85 87 88 76 51 46
73 63 60 58 56 57 58 48 48 47 44 37 38 38 36 40 46 56 88 87 87 93 92 93 94 90 87 81 74 71 65 65 52 51 51 60 82 96 90 84 81 85 86 86 90 85 59 46 42
57 58 59 59 58 55 50 52 51 48 39 36 39 38 41 45 42 31 33 84 82 79 81 79 83 83 84 81 74 59 58 61 55 53 50 53 79 95 98 87 87 87 88 91 86 71 51 46 42
61 66 65 60 59 57 59 51 50 43 36 36 34 36 40 45 42 34 32 53 80 81 72 69 69 66 71 69 59 57 57 57 61 66 53 46 61 79 98 97 92 88 88 91 80 63 51 47 43
63 68 68 60 55 60 55 60 64 44 41 43 39 35 32 47 37 39 31 30 34 55 73 69 68 69 74 63 59 63 65 68 63 72 69 59 52 73 74 96 100 80 90 93 75 68 55 46 41
74 72 92 60 57 55 50 62 46 43 46 50 48 43 40 44 44 35 30 31 29 35 58 70 73 69 62 58 59 67 74 78 80 74 79 86 62 68 84 87 99 97 98 92 85 64 58 49 44
81 98 90 78 56 60 69 80 62 51 53 54 54 57 45 45 47 38 35 33 28 37 56 67 72 70 66 66 72 78 80 83 83 88 87 93 94 91 96 82 94 83 82 89 92 62 58 59 59
84 93 83 92 64 61 69 66 56 52 60 67 69 68 51 55 53 40 32 39 49 53 62 75 76 73 74 72 86 94 97 99 96 90 94 99 98 100 100 90 80 82 95 84 86 64 68 65 59
72 88 93 77 64 72 78 78 69 61 72 80 80 72 68 72 61 47 57 83 84 74 76 87 89 79 84 89 96 95 92 85 94 90 98 100 100 100 100 97 79 76 92 78 62 68 71 68 57
93 96 89 76 67 80 84 87 70 64 69 74 68 74 81 85 94 97 96 99 99 100 96 91 92 94 94 95 90 90 84 81 81 87 91 95 98 99 90 95 88 81 79 73 73 72 64 60 58
92 93 83 88 82 85 94 85 79 70 74 86 90 94 91 96 96 94 90 94 93 93 97 98 97 92 86 92 94 92 93 97 92 96 89 84 90 94 96 91 80 75 71 71 71 64 64 66 63
96 65 72 85 98 99 77 97 74 86 84 87 90 95 92 94 86 87 92 94 98 98 91 97 94 96 99 98 100 100 100 96 97 90 100 96 91 93 92 91 79 76 74 69 65 63 67 70 71
82 75 86 91 99 90 92 92 81 82 88 90 93 93 93 95 96 96 95 99 100 100 99 100 99 100 100 100 99 97 99 100 96 90 100 98 92 91 93 80 74 78 74 80 69 84 84 81 86
72 84 85 97 100 99 84 87 86 92 89 87 81 94 95 94 93 92 95 98 100 100 100 98 100 98 100 98 100 100 96 100 100 99 100 100 100 97 94 86 90 90 92 93 73 70 72 77 98
90 98 97 98 98 93 94 88 91 87 84 87 95 95 95 94 92 93 93 97 98 100 100 96 96 91 93 94 96 99 100 100 100 98 98 100 100 100 97 93 90 85 87 86 92 95 92 92 89
88 99 99 97 97 97 96 97 94 88 83 89 91 92 92 93 92 94 96 98 99 100 96 97 94 88 86 87 86 93 100 100 100 100 100 100 99 94 98 91 93 96 98 97 94 97 98 98 93
96 100 94 100 87 95 97 100 97 95 88 89 91 90 94 94 94 96 95 99 98 94 89 85 84 79 70 72 78 81 88 92 96 98 95 98 99 99 100 100 99 98 100 96 100 96 94 93 92
91 89 99 99 97 96 94 98 100 100 100 99 97 96 93 93 93 93 95 95 90 76 69 67 70 71 67 63 64 66 66 68 74 78 78 81 82 85 92 96 97 97 100 100 100 100 100 100 95
88 94 95 80 97 97 90 93 91 100 100 100 96 95 93 93 93 93 92 76 65 67 68 67 68 69 69 66 66 66 66 65 66 68 69 70 69 71 73 72 78 80 81 92 97 100 100 100 100
60 68 70 82 72 84 78 91 86 94 95 90 96 91 92 91 92 86 72 69 70 71 68 69 69 72 76 75 69 65 65 69 72 74 73 70 70 70 72 73 74 76 82 84 96 99 95 99 99

GFSSGP_925_rhum_096.txt.gz
RH
64 66 62 58 72 88 90 66 71 62 52 38 39 33 32 32 34 47 73 83 87 82 89 86 76 86 85 84 84 83 88 89 92 98 94 91 93 98 96 94 95 95 98 86 88 90 85 89 88
69 66 58 78 91 66 47 73 70 60 47 43 36 38 57 65 79 83 77 81 87 86 92 86 78 87 87 84 82 78 81 86 86 92 94 93 91 96 96 95 94 96 97 87 93 92 92 95 90
65 62 66 85 91 76 52 62 61 50 44 39 33 32 64 76 78 83 85 92 85 90 89 87 81 83 85 85 83 80 78 82 86 86 87 88 87 97 94 94 91 90 98 88 94 90 92 94 95
59 61 74 81 89 77 65 55 57 47 36 33 32 32 38 76 84 96 89 92 100 95 88 88 83 83 80 82 86 83 82 80 84 86 86 87 92 97 89 90 91 91 96 84 82 94 95 92 90
57 67 87 90 83 78 72 61 46 37 36 34 32 30 37 71 55 94 98 89 98 98 89 87 82 84 78 71 69 73 76 84 85 84 87 88 90 91 82 84 90 91 86 81 50 92 96 88 82
80 71 59 66 80 68 56 46 39 35 34 31 30 32 39 51 50 90 100 99 72 83 82 82 84 84 78 72 68 69 70 73 83 84 84 87 85 89 83 78 85 86 80 78 52 68 81 79 84
77 61 56 73 74 65 51 37 36 37 36 30 29 32 30 51 57 94 99 98 99 67 79 77 84 87 94 95 90 90 92 98 88 72 86 85 84 86 88 77 77 75 74 77 66 52 71 76 83
86 74 92 82 78 58 51 44 39 36 36 30 28 37 49 51 51 43 90 95 98 99 77 75 75 82 87 89 89 93 91 92 86 84 76 85 86 85 85 77 81 77 78 82 82 55 57 72 78
58 79 84 70 82 60 51 54 45 39 39 37 32 37 36 30 28 36 57 83 89 98 99 98 73 81 85 86 87 85 81 76 77 77 85 75 84 86 84 82 79 76 79 82 86 78 51 59 73
72 78 69 66 62 58 52 54 52 49 48 47 40 32 28 29 29 39 63 84 90 93 98 99 100 99 88 92 84 80 74 65 64 71 67 80 87 87 83 83 82 78 80 81 82 83 69 53 64
65 74 65 56 53 58 60 60 49 50 56 48 42 40 38 34 36 40 47 64 86 95 92 98 100 100 96 87 84 78 75 66 54 54 49 58 69 84 89 85 84 78 77 81 80 82 83 74 54
72 64 63 64 60 59 58 52 52 51 48 41 41 40 42 45 50 42 41 37 44 82 96 100 99 98 92 88 78 72 74 66 62 57 56 50 51 65 79 90 82 79 75 85 91 81 79 85 60
58 62 62 61 62 59 56 60 58 53 44 39 40 42 45 46 41 32 32 30 36 86 85 91 99 96 89 84 80 70 70 70 67 66 63 62 50 62 70 75 88 83 79 82 89 90 85 84 57
63 65 67 60 57 55 56 49 51 42 40 37 36 37 40 46 43 35 33 32 34 52 81 82 91 88 88 87 85 80 78 65 57 56 60 66 66 65 69 78 84 85 81 83 85 87 90 84 58
62 65 67 59 52 55 50 52 67 50 46 48 44 41 41 44 37 39 34 33 31 30 35 75 79 84 86 82 80 76 62 54 56 56 62 65 65 77 94 82 88 88 91 84 89 88 89 77 59
74 70 78 49 61 55 54 67 50 51 52 54 52 48 46 48 49 38 30 29 27 29 30 29 40 70 72 73 78 68 59 63 59 63 66 71 74 74 87 100 99 86 95 100 90 88 90 79 63
78 92 88 76 58 61 62 78 64 56 50 50 50 50 55 59 54 44 37 34 28 29 28 28 49 68 73 72 71 69 71 72 75 75 74 75 80 80 91 98 100 98 95 92 88 88 93 85 74
69 93 80 85 63 62 71 70 56 51 58 60 59 64 68 69 63 47 34 31 26 29 38 52 66 74 81 82 79 82 85 85 92 93 91 81 81 83 97 97 95 100 99 89 86 92 88 84 78
77 86 92 76 65 72 80 79 71 64 71 81 78 74 77 70 61 57 55 48 39 75 76 73 77 78 85 93 97 100 99 100 93 91 86 99 90 87 100 99 99 100 99 92 81 96 97 86 78
89 96 84 75 69 71 84 85 77 70 74 76 92 90 93 92 91 88 87 85 98 100 98 92 89 92 94 95 95 96 94 92 89 90 87 93 93 87 100 98 98 94 79 79 73 74 93 83 75
84 90 88 86 74 77 91 83 69 73 79 83 91 87 85 94 93 93 89 90 95 99 100 100 100 99 100 99 99 100 100 100 98 94 95 86 92 87 90 100 100 100 96 93 94 92 84 72 73
91 66 71 81 97 97 71 95 71 79 81 82 94 90 95 94 93 92 94 97 99 100 100 99 99 92 90 89 100 98 99 100 98 98 96 90 94 91 86 96 97 100 98 87 75 90 81 77 80
75 66 75 81 95 99 93 95 79 83 84 78 86 85 91 94 96 97 97 100 100 99 100 100 100 99 100 99 99 98 100 94 99 100 98 88 92 100 97 98 97 96 98 100 93 85 71 80 77
66 82 85 87 100 98 84 91 86 91 89 86 83 91 94 92 92 90 95 97 100 100 99 95 95 100 98 100 99 100 98 98 96 100 100 98 100 100 100 100 100 100 100 100 99 95 71 75 76
89 100 95 94 99 93 92 95 83 83 86 88 93 95 92 92 92 94 95 96 98 100 100 100 94 96 90 95 99 99 100 99 99 100 100 99 100 100 100 99 100 97 98 96 93 92 80 76 80
97 98 99 96 97 94 98 98 96 88 85 88 90 90 89 92 92 93 94 97 99 100 99 98 100 90 83 83 86 90 98 100 98 100 100 99 99 100 100 95 100 94 95 94 95 87 88 83 90
96 100 94 100 100 97 94 97 97 94 94 87 89 88 94 95 94 94 94 97 97 98 98 94 87 84 78 74 73 74 76 82 88 87 91 96 97 100 98 100 100 98 99 89 93 94 93 91 97
92 88 100 100 97 96 95 96 100 100 100 100 100 98 94 93 93 93 91 92 90 84 80 80 77 75 71 65 66 67 65 67 70 69 73 78 82 86 86 87 93 99 98 100 100 100 100 100 100
97 91 96 95 99 97 95 96 97 98 99 99 99 96 94 94 93 94 92 83 75 70 68 69 70 72 72 68 67 69 72 73 73 74 73 73 70 71 71 75 76 81 86 89 92 100 100 100 100
60 67 75 87 74 85 81 91 90 94 95 96 96 94 92 93 91 90 86 70 73 73 73 74 74 75 74 66 57 57 57 58 58 62 71 76 79 78 76 72 71 75 77 79 83 86 95 100 100

GFSSGP_925_rhum_099.txt.gz
RH
62 62 61 51 48 60 54 46 67 60 52 38 38 35 32 31 32 41 76 89 88 87 93 91 76 80 78 85 83 85 79 82 85 92 90 87 88 98 95 91 92 93 96 88 85 91 84 86 97
70 63 55 61 54 29 23 64 62 57 43 40 35 34 52 54 69 75 80 87 100 89 89 95 82 85 86 86 82 88 85 84 84 89 89 85 86 97 93 95 94 95 94 83 85 84 86 83 87
66 57 60 66 70 36 30 58 58 46 38 33 28 29 49 83 74 94 97 93 98 97 89 86 83 86 87 84 82 79 83 84 84 87 89 84 82 93 92 90 87 93 94 84 90 88 89 82 80
60 53 59 62 59 60 49 53 54 40 33 30 31 28 45 57 57 88 99 96 99 98 98 86 82 84 84 83 82 81 77 80 82 86 83 87 85 93 94 85 88 93 92 84 90 89 90 87 84
54 52 64 63 62 67 67 58 48 36 34 30 28 27 32 60 68 97 98 99 99 99 98 91 84 80 84 85 84 82 79 80 83 86 87 89 87 90 85 81 91 92 94 82 82 95 95 87 83
68 50 48 42 55 62 53 51 40 34 33 29 28 30 30 51 38 59 90 97 98 100 92 82 84 82 82 78 82 84 85 87 87 85 84 86 85 88 89 75 92 91 93 83 67 95 95 82 77
65 42 38 50 57 59 50 42 37 37 36 31 29 31 26 41 29 31 52 86 95 99 94 83 77 86 86 83 83 83 80 78 78 85 85 82 85 85 84 85 78 90 87 80 62 86 96 80 80
72 60 78 72 66 47 51 43 39 37 36 30 28 33 36 37 28 27 28 57 85 94 97 96 83 82 82 85 80 76 79 81 77 69 68 80 88 85 86 85 75 84 82 84 77 51 81 82 82
60 59 57 58 74 54 50 51 43 41 41 37 32 33 32 29 29 27 29 36 51 80 91 98 97 83 76 73 78 78 76 77 75 73 75 69 77 86 89 90 77 76 79 76 82 64 62 76 81
63 48 49 62 63 59 52 55 51 47 43 41 37 32 32 28 31 40 44 49 56 56 82 90 99 98 94 86 81 76 82 74 68 65 73 80 70 77 86 89 81 78 77 77 83 86 65 64 94
66 58 64 57 56 55 58 55 49 50 52 44 38 36 34 37 36 41 42 42 38 31 56 87 91 98 99 96 92 89 81 71 60 55 62 56 60 68 82 89 87 84 79 78 79 89 91 82 81
67 65 62 61 57 56 54 49 50 48 41 37 36 37 40 38 41 45 38 34 27 26 30 75 89 96 99 96 90 85 79 69 60 56 56 74 66 71 71 71 84 86 81 77 79 85 93 84 70
59 62 59 58 58 58 53 55 51 48 40 36 38 38 40 42 39 34 33 30 28 26 26 58 90 97 99 99 90 84 76 75 68 69 68 65 64 69 74 79 81 78 81 77 77 82 90 90 88
62 63 64 58 56 53 54 51 50 41 37 41 36 36 36 39 39 41 38 37 36 28 23 43 84 92 100 97 92 85 76 75 76 74 71 65 63 65 71 84 86 91 83 78 75 73 85 84 83
61 58 60 52 52 57 48 45 60 42 41 44 42 40 40 40 42 40 39 39 40 33 21 26 36 80 91 92 94 92 88 86 84 75 55 54 54 57 72 80 90 89 95 94 83 80 86 89 89
72 63 54 43 59 54 53 56 38 39 54 53 48 43 43 45 45 46 47 46 39 37 28 19 28 48 67 82 88 88 86 85 79 63 63 66 69 72 94 96 100 99 94 99 95 93 93 96 87
66 66 73 63 56 60 62 68 55 51 50 49 46 47 50 51 52 54 56 48 34 36 31 28 29 34 40 61 77 77 78 79 68 69 71 71 74 79 96 96 96 100 100 100 100 100 99 87 92
72 78 75 76 59 65 73 74 59 53 57 57 55 57 62 65 66 63 62 51 43 39 33 31 37 44 64 82 85 84 83 78 75 71 70 70 72 85 98 97 96 97 97 99 100 100 99 97 96
76 86 96 78 62 73 77 76 68 61 70 74 77 79 80 84 81 82 84 83 67 52 43 41 70 70 87 91 96 99 97 90 95 96 76 78 78 73 98 99 99 97 99 96 100 100 97 97 85
88 92 88 73 66 67 74 77 68 69 77 86 79 80 80 83 83 83 83 86 88 88 97 95 94 94 92 92 92 93 90 91 90 89 89 88 87 92 100 99 98 98 100 98 100 100 97 88 92
88 87 85 87 71 74 84 84 65 69 76 70 84 79 86 91 89 91 90 97 95 95 98 99 99 100 100 99 99 99 100 99 96 93 98 96 89 86 99 97 97 100 100 99 98 98 92 93 96
88 65 69 80 91 94 82 91 70 73 78 71 81 77 84 91 90 90 94 97 100 100 100 100 97 98 100 97 97 99 96 96 94 97 88 86 94 96 95 99 97 95 100 100 100 99 96 88 88
79 60 71 76 99 100 96 97 71 76 77 78 82 83 86 87 92 94 95 99 100 100 100 100 100 100 99 99 99 100 100 97 92 97 98 99 95 99 96 100 100 98 100 92 100 99 99 96 89
64 80 85 91 99 97 84 87 74 84 88 80 81 88 90 88 90 88 94 97 100 100 99 96 94 95 97 100 100 100 100 100 99 100 98 96 99 99 100 100 100 100 99 88 95 96 92 94 98
83 99 96 89 92 90 77 90 74 79 72 84 92 92 90 90 90 90 93 96 98 100 100 99 91 90 90 93 97 100 100 99 100 99 100 100 99 99 100 100 100 100 100 99 100 100 100 96 88
98 99 91 99 95 90 94 91 89 85 86 86 86 86 87 91 90 92 92 97 98 100 98 100 98 85 86 78 81 81 90 90 91 94 97 98 100 100 98 100 100 100 100 98 100 98 97 86 90
96 97 88 98 85 96 84 94 96 93 96 94 96 95 91 93 93 92 93 97 99 100 100 99 100 90 85 83 84 80 80 79 80 80 82 86 89 93 96 98 99 100 99 100 100 100 99 96 88
83 81 97 100 98 92 86 93 98 99 100 100 100 98 96 93 92 92 93 94 95 92 90 90 85 81 76 71 77 79 73 68 69 72 74 74 75 77 84 84 84 87 92 96 93 98 99 100 99
94 93 90 95 99 94 92 88 96 100 99 99 97 96 95 93 93 92 88 85 83 78 74 75 75 72 60 52 48 48 49 44 45 46 50 59 64 68 70 74 76 79 82 85 88 90 88 91 98
63 67 74 87 76 83 82 76 88 93 92 96 94 95 91 90 88 83 72 74 76 73 73 72 74 63 50 39 35 38 38 38 40 39 38 36 35 34 38 48 65 77 79 81 83 88 90 92 93

GFSSGP_925_rhum_102.txt.gz
RH
54 65 62 44 30 26 16 21 33 38 36 29 28 27 24 24 27 39 68 84 89 83 79 88 80 81 85 75 65 70 80 85 87 86 86 86 86 92 98 94 85 94 91 95 90 92 93 82 90
67 63 50 37 26 15 13 30 37 38 32 28 26 25 32 40 55 59 69 84 90 88 81 82 78 82 83 81 74 72 72 82 82 83 83 86 85 89 98 92 84 95 94 88 78 86 81 84 98
67 55 40 33 20 15 17 34 36 35 25 24 25 22 36 53 41 52 69 86 96 92 85 82 84 83 86 84 80 84 80 77 77 77 84 80 79 85 88 96 85 94 92 84 81 81 83 82 92
55 43 35 33 19 29 28 35 36 32 26 21 23 25 42 45 42 62 84 94 99 91 91 86 85 85 85 86 82 84 84 83 83 82 84 83 84 84 83 87 84 94 93 84 85 82 87 64 70
46 37 31 26 24 33 36 37 37 30 26 23 21 24 30 37 39 49 77 94 99 98 99 90 86 85 82 84 83 80 78 81 82 85 84 86 85 87 84 87 84 92 94 86 69 79 84 70 82
40 30 23 21 20 30 31 34 34 29 25 23 23 24 26 34 32 40 47 77 96 96 99 97 88 83 80 82 83 83 83 83 83 84 84 86 88 88 85 85 84 91 94 88 65 92 93 90 91
28 22 18 20 25 27 32 30 27 26 25 23 23 24 22 30 30 40 40 55 85 96 98 99 87 88 86 82 84 89 89 85 81 79 78 84 83 86 87 86 79 84 92 90 71 79 90 93 83
32 22 27 28 26 27 39 34 32 30 26 24 22 21 22 28 29 34 36 42 55 88 91 98 98 88 86 92 76 70 67 64 61 66 74 78 83 87 82 86 88 78 87 87 79 65 90 91 88
43 20 21 27 33 32 38 36 32 31 30 24 22 24 22 22 26 29 35 36 40 48 81 87 97 99 94 89 89 73 72 69 71 70 69 68 84 80 83 84 86 80 80 81 82 73 65 85 89
30 23 22 37 39 38 38 40 35 30 24 23 20 18 18 22 24 28 31 34 38 38 43 84 89 97 100 100 97 90 87 82 77 78 80 83 79 73 74 77 84 83 81 78 77 82 61 68 73
45 30 38 44 44 44 39 34 32 31 29 23 22 17 17 23 25 24 26 33 33 33 36 44 89 90 93 100 100 98 86 84 74 66 71 67 90 84 82 74 86 86 81 84 85 89 92 75 60
39 47 45 47 46 44 38 31 30 26 24 18 19 19 22 25 25 26 26 25 26 32 35 41 60 98 92 95 100 92 91 81 70 58 64 71 93 96 88 71 74 78 75 78 74 72 78 83 65
40 47 47 42 44 39 35 35 30 26 20 19 21 23 25 26 26 24 28 29 30 32 36 38 49 86 99 95 100 94 84 76 74 79 71 65 72 81 89 92 73 76 78 77 81 71 67 72 76
43 45 39 38 36 35 38 31 37 19 22 23 28 28 26 27 28 30 30 28 28 29 33 37 43 70 97 96 97 98 91 83 82 77 80 77 77 82 81 69 82 81 73 75 78 76 68 71 69
46 38 34 38 38 40 40 35 41 23 27 34 32 31 31 29 30 32 33 34 35 35 36 38 35 47 86 100 100 99 100 94 82 79 79 76 71 71 75 79 85 91 89 77 78 82 82 88 86
42 39 31 34 43 48 45 31 25 23 35 39 36 35 34 34 36 37 38 37 37 40 40 38 34 39 60 95 98 100 100 99 96 89 80 76 70 67 71 74 76 80 86 92 94 91 97 100 96
37 52 42 39 44 47 49 45 33 33 40 44 41 39 40 42 47 51 54 50 48 43 39 38 38 40 48 67 75 89 94 93 87 84 77 74 71 72 73 75 76 78 93 95 93 94 99 99 100
56 62 53 51 44 48 55 53 39 39 45 52 52 56 57 59 62 64 68 72 70 62 47 46 41 42 48 58 75 83 87 90 87 85 80 76 73 76 80 77 78 78 81 89 95 98 97 96 99
62 63 71 55 48 61 57 55 46 41 53 57 66 66 63 60 56 60 68 70 73 68 65 51 41 41 59 78 93 89 83 83 85 86 87 84 80 77 79 82 83 86 82 77 81 84 93 98 98
65 66 67 53 52 58 54 56 47 48 60 60 62 71 72 68 60 66 78 88 88 80 73 71 61 71 82 97 96 87 86 86 86 88 91 89 88 87 85 85 87 84 89 82 82 88 93 97 96
60 59 63 78 60 54 60 49 51 52 61 54 55 66 70 79 83 79 84 91 98 98 100 99 100 100 99 98 98 99 98 99 98 96 95 93 96 96 92 94 96 97 92 92 86 90 95 94 97
71 53 58 69 75 77 61 76 50 51 54 56 56 64 71 74 77 79 91 94 100 100 98 100 100 99 99 100 99 98 90 82 82 89 89 86 89 88 89 92 95 95 98 99 96 98 97 96 95
61 53 61 67 78 88 66 95 50 52 54 55 58 65 72 75 85 88 92 95 99 100 99 100 100 100 100 100 99 99 97 94 99 100 99 100 99 100 100 97 97 98 99 100 99 100 100 100 97
54 65 74 68 80 93 62 75 53 59 65 64 66 78 83 84 85 85 90 94 97 100 96 92 87 91 97 100 100 99 100 100 100 99 99 99 100 100 100 98 97 99 97 99 99 93 100 100 100
70 85 84 83 90 79 62 75 55 65 83 87 90 88 86 86 88 88 89 95 98 99 99 92 90 89 92 93 91 97 96 99 99 100 100 100 99 100 99 100 99 100 100 100 100 100 100 98 97
84 98 93 88 74 70 67 83 68 90 87 82 88 87 84 88 88 91 92 96 99 100 100 100 94 92 83 81 83 91 85 97 96 91 96 99 96 100 100 96 98 99 100 100 100 93 100 100 100
96 99 84 98 74 89 63 77 88 89 95 95 95 94 95 90 90 92 92 97 99 100 100 95 98 85 81 84 79 80 72 71 83 74 82 84 80 82 93 93 91 93 98 99 100 100 100 100 98
71 68 91 97 90 74 60 74 89 99 100 97 98 96 96 92 89 89 91 95 95 98 99 95 94 74 72 70 66 65 70 69 62 60 64 61 65 73 80 84 83 80 83 89 93 98 98 96 98
82 76 73 74 78 75 65 60 88 98 98 98 96 95 95 92 88 89 83 74 72 85 74 76 70 62 54 54 56 52 51 52 50 48 49 52 51 48 52 57 70 83 84 88 89 90 89 91 94
54 55 52 68 70 61 61 55 71 86 88 95 91 92 92 84 77 66 66 64 65 62 59 66 68 54 55 46 44 47 43 42 41 45 43 42 42 44 44 45 47 51 62 68 75 80 86 89 91

GFSSGP_925_rhum_105.txt.gz
RH
52 51 46 37 32 22 17 14 17 22 24 20 22 22 20 20 23 48 68 69 70 76 79 85 76 82 78 68 73 78 79 80 84 83 82 83 87 85 95 86 77 95 93 88 97 91 96 91 83
48 51 42 28 33 19 14 19 24 25 25 22 21 22 22 34 42 46 61 64 74 81 77 80 78 78 83 75 67 74 81 84 84 81 79 80 86 88 88 96 87 95 88 86 90 92 85 82 91
57 52 33 28 17 17 20 21 28 27 22 22 21 20 30 42 33 40 54 72 84 85 87 75 83 75 78 81 74 69 74 82 82 81 80 83 79 82 85 94 84 94 92 88 82 83 80 79 97
46 38 30 28 17 22 22 25 28 27 24 21 21 22 36 37 35 37 49 71 86 91 90 86 86 78 79 80 80 78 75 77 80 81 82 82 81 81 80 89 82 87 91 87 80 77 83 76 80
44 30 26 22 18 23 25 27 26 23 22 21 20 22 30 29 30 33 38 57 81 90 94 96 88 81 84 83 82 81 81 83 84 82 81 83 84 85 80 88 83 82 90 86 84 79 85 69 61
37 27 24 22 18 21 23 26 25 22 20 19 20 22 26 30 29 34 33 41 72 89 96 92 90 84 85 81 80 80 80 81 83 82 79 83 84 84 82 86 83 82 91 90 84 71 78 78 68
29 23 17 16 17 20 22 22 19 19 19 18 20 21 26 32 26 32 32 34 42 77 91 98 97 87 82 85 85 84 84 80 78 72 73 73 78 81 82 84 85 84 84 90 84 58 77 80 88
26 19 19 16 18 23 29 25 24 22 18 19 17 15 15 23 21 25 28 34 34 42 68 92 97 91 85 83 84 82 80 77 77 76 74 75 74 78 79 82 85 81 86 85 88 72 69 88 89
28 22 18 21 20 27 28 25 26 24 23 18 17 17 16 16 16 21 25 30 32 34 39 51 92 97 95 91 88 78 76 72 70 67 64 67 81 84 89 87 86 85 78 84 85 79 72 82 87
23 22 20 26 27 27 28 28 24 23 19 17 16 13 13 14 16 20 23 25 28 32 32 34 52 90 97 96 90 89 79 84 80 81 76 77 74 69 65 69 76 86 85 79 81 80 78 76 78
28 26 27 33 33 33 28 24 21 25 24 16 16 14 13 15 17 20 20 24 26 27 29 33 37 64 91 97 95 89 83 84 82 79 80 72 71 74 69 70 81 86 92 91 89 92 93 84 64
32 32 29 34 37 33 29 24 22 19 17 14 15 16 16 17 18 20 22 22 22 25 28 33 35 41 77 95 95 93 83 82 83 76 78 88 78 82 78 66 61 72 74 84 80 84 84 82 68
26 34 35 32 34 29 25 26 23 21 16 14 15 17 19 19 19 20 21 22 24 25 27 31 37 38 56 89 97 93 86 75 73 73 71 67 79 80 79 78 78 74 75 79 74 78 76 78 75
33 34 28 28 28 27 29 24 25 16 17 21 23 23 22 23 24 24 24 24 24 24 24 26 31 36 46 86 96 95 91 79 67 65 69 67 69 75 79 81 78 64 77 76 71 73 72 67 71
33 30 28 29 29 31 34 34 32 20 18 26 27 26 26 26 27 26 28 30 30 29 30 32 33 35 39 61 92 96 91 89 80 72 69 71 65 67 69 72 74 72 72 73 74 71 68 70 70
32 32 30 29 34 38 41 26 21 19 27 30 29 30 30 30 30 33 36 37 35 34 34 33 34 34 32 44 80 97 94 93 88 78 71 67 70 68 65 64 65 66 70 70 72 77 83 81 86
30 54 32 32 35 38 43 35 24 25 31 33 33 36 40 42 43 46 50 52 56 54 47 39 35 35 35 37 55 86 91 93 92 83 75 69 68 67 63 61 61 64 68 76 86 88 90 92 93
43 45 40 36 36 39 45 43 32 28 32 36 37 44 47 46 45 48 54 59 59 60 60 60 48 39 34 38 46 60 71 83 82 73 71 68 66 64 64 65 65 65 66 70 84 86 90 92 95
42 41 45 40 38 53 45 44 37 31 33 42 42 44 48 55 54 62 64 68 72 72 72 64 55 46 37 37 44 55 63 68 73 76 77 74 72 70 68 68 68 68 68 69 71 75 84 87 98
48 47 51 43 43 50 47 48 38 35 40 46 48 49 56 64 60 65 75 81 87 90 94 93 72 54 40 38 64 72 73 73 73 75 77 79 80 79 78 77 76 75 74 73 75 75 76 80 83
47 45 46 66 52 45 54 45 47 42 46 47 42 47 52 62 72 73 79 87 95 98 100 99 100 100 96 86 90 93 91 90 92 90 90 86 84 84 87 89 83 84 82 83 83 82 81 82 82
57 42 50 61 66 71 48 70 44 40 43 47 43 50 57 66 72 75 83 89 96 99 99 98 99 99 99 100 97 99 90 84 76 76 80 84 94 94 92 92 95 89 90 93 91 87 88 88 89
55 49 53 57 70 78 58 84 45 41 41 44 52 61 68 73 80 82 85 91 95 97 95 95 95 98 98 98 100 100 99 100 100 99 99 98 99 99 99 99 99 98 94 92 93 95 96 97 96
47 56 62 61 69 83 56 60 48 48 55 64 66 72 79 80 79 80 85 90 94 96 96 88 87 93 97 100 96 96 99 99 98 98 100 100 100 99 98 100 98 100 100 98 98 98 91 100 99
61 79 87 86 88 75 50 61 49 47 82 83 85 84 84 83 81 84 87 91 95 99 96 89 85 86 86 94 97 99 100 100 97 90 98 98 96 98 99 99 96 100 98 100 99 100 97 98 100
78 84 87 80 73 68 56 80 59 71 80 78 85 90 81 85 84 87 90 94 96 100 100 99 93 88 82 86 88 81 93 98 97 84 94 86 97 89 83 90 92 90 91 95 99 100 100 100 100
85 92 71 98 62 84 62 59 67 76 80 77 85 88 95 88 86 88 86 92 97 98 99 99 92 80 74 66 63 67 70 64 61 66 64 57 56 59 64 70 80 81 82 89 90 95 97 99 100
56 63 89 100 90 75 64 61 72 90 98 95 93 95 95 86 86 87 86 87 84 93 84 83 72 54 56 58 51 50 53 51 48 46 43 43 42 41 41 41 47 57 65 72 80 86 87 87 95
69 66 66 59 65 80 58 58 64 79 94 95 92 94 90 89 88 84 81 65 59 69 61 61 56 50 45 42 44 42 41 41 42 40 38 37 37 39 39 39 39 42 45 46 40 51 64 74 82
48 50 43 59 61 54 54 52 59 70 74 87 84 87 88 84 74 64 58 54 52 47 47 50 54 44 47 39 38 41 39 37 36 35 36 38 37 36 38 41 43 42 45 51 51 47 46 48 51

GFSSGP_925_rhum_108.txt.gz
RH
48 48 47 41 53 42 33 19 21 28 23 24 23 26 27 49 65 88 64 64 75 76 86 84 74 75 77 81 78 78 78 80 82 85 81 86 88 84 83 77 76 95 94 94 93 87 95 90 84
55 45 44 49 52 37 26 23 25 30 28 23 21 23 22 54 37 52 55 64 80 82 84 90 81 70 77 72 76 79 80 80 84 84 83 84 81 88 87 86 80 93 87 84 88 90 89 86 84
58 51 56 52 34 32 35 24 35 27 22 22 22 21 41 46 37 38 41 63 79 85 87 86 84 73 74 79 71 73 77 81 85 83 82 81 78 79 82 82 79 88 90 87 87 85 84 81 80
46 50 48 45 33 28 28 33 29 26 23 21 22 45 42 32 33 34 37 53 77 85 90 93 88 83 76 74 77 74 71 74 79 83 78 78 82 82 80 78 77 75 90 90 86 84 84 79 75
48 51 43 30 28 26 31 29 26 24 24 22 22 26 47 29 32 34 34 40 69 85 92 95 95 88 80 81 81 80 77 76 75 77 75 83 81 83 81 85 87 79 87 88 83 79 77 80 68
54 41 41 40 25 27 28 26 24 21 22 20 21 24 43 29 31 32 32 34 40 71 88 93 99 88 82 83 82 83 80 80 84 82 80 78 81 83 83 83 85 80 79 86 85 85 75 78 52
52 38 31 23 28 24 27 22 21 22 20 24 20 23 44 31 23 24 28 33 34 41 63 87 90 98 88 81 82 83 82 80 78 73 73 74 76 77 78 82 81 83 80 84 86 83 66 69 61
44 31 20 16 22 34 29 24 25 24 25 18 17 20 25 22 15 19 23 27 31 35 38 46 82 88 92 93 89 81 80 78 75 76 75 76 76 78 78 79 80 80 82 86 88 84 62 60 66
32 39 30 24 20 36 27 26 25 23 25 19 17 18 16 14 14 18 22 24 26 30 33 33 42 77 85 92 91 93 83 82 82 78 77 76 74 76 76 74 76 80 81 78 86 88 77 67 78
34 36 39 30 32 34 28 27 24 23 22 20 18 15 14 14 16 19 24 27 26 28 28 29 33 38 75 83 92 93 93 79 73 72 72 76 67 73 76 76 75 74 81 82 81 88 82 77 78
28 41 29 34 38 32 27 25 22 26 29 20 20 19 18 18 18 20 22 24 25 23 24 26 30 34 47 79 81 89 84 85 84 79 80 81 80 75 72 70 73 79 80 87 84 89 86 83 80
33 31 30 34 39 34 31 26 24 23 22 18 17 17 17 20 22 22 22 21 22 23 25 27 28 34 37 60 82 84 85 82 83 81 78 78 74 80 76 72 74 72 80 83 84 85 84 84 87
31 33 32 33 33 30 26 29 26 24 20 17 18 20 23 25 23 23 24 25 24 25 26 26 27 28 32 39 77 83 85 81 83 80 77 74 76 68 73 79 78 81 82 79 84 87 87 84 83
33 34 29 28 28 27 32 29 24 19 19 21 25 28 27 28 28 27 28 28 30 30 30 29 30 32 34 34 58 84 87 84 83 76 70 69 70 67 68 67 66 72 75 82 81 79 81 80 79
33 34 35 31 29 32 37 42 38 24 17 23 29 28 30 32 31 32 33 37 42 44 38 34 33 33 33 34 38 75 86 86 86 75 72 69 68 68 71 73 75 74 72 72 70 77 76 76 75
35 31 39 35 34 41 42 36 29 19 23 32 31 33 41 42 43 44 47 52 56 56 56 56 52 39 36 35 35 45 75 86 87 83 73 68 68 69 68 68 67 68 68 69 72 72 69 72 77
33 73 37 43 35 37 46 45 30 27 29 34 35 44 46 49 50 60 64 67 69 74 70 73 67 60 47 35 36 37 61 77 89 85 82 75 66 67 69 68 65 63 63 66 70 72 80 86 84
56 49 40 37 45 44 50 49 38 33 31 34 38 42 45 57 62 63 72 80 78 81 85 85 81 82 59 44 36 36 47 78 85 87 87 78 71 69 67 66 64 64 64 66 69 76 78 75 87
42 38 49 43 39 54 56 52 44 37 36 40 43 48 57 65 60 62 72 76 81 88 91 90 97 91 88 52 41 40 45 58 75 82 83 76 70 70 69 68 69 69 69 69 69 70 76 82 83
44 45 52 48 43 49 56 57 49 42 44 49 48 52 58 61 61 67 73 83 90 96 99 95 96 91 96 93 76 38 53 60 64 71 78 76 78 79 80 82 82 82 79 77 75 73 75 78 82
50 48 52 66 56 51 56 62 50 44 48 48 46 54 63 70 73 68 75 86 92 97 99 97 98 96 100 92 91 69 64 67 70 75 86 85 89 89 88 88 86 90 93 89 87 85 81 85 84
59 44 49 59 74 91 60 94 56 56 52 49 47 66 76 80 74 71 80 87 94 97 93 94 95 96 99 99 96 93 100 91 93 96 99 99 97 91 91 93 94 96 94 97 100 97 89 87 86
62 51 56 61 63 77 64 89 69 47 48 53 70 79 79 79 74 78 84 88 94 97 97 88 90 92 98 99 99 99 100 100 99 99 96 96 97 97 98 98 99 98 97 98 99 99 99 98 97
47 57 62 59 69 83 71 78 71 62 59 68 72 80 84 80 78 77 83 88 94 95 92 92 89 88 89 97 99 99 100 97 96 90 92 92 93 93 93 95 97 93 90 91 99 99 99 99 98
58 72 84 91 92 90 64 69 68 66 79 80 84 83 82 83 82 84 87 91 94 98 98 94 90 85 79 82 86 97 99 88 87 96 90 76 71 71 71 77 85 91 89 90 93 95 92 99 100
77 81 96 81 84 86 61 86 75 78 76 78 78 79 81 83 82 86 88 92 96 96 93 86 85 76 62 60 57 64 66 61 64 73 80 75 49 53 48 45 57 67 66 74 81 98 92 94 96
88 95 70 92 68 89 81 69 79 80 78 74 79 82 87 89 84 86 85 88 89 92 82 82 69 64 61 52 46 44 44 45 44 45 45 40 34 41 43 38 38 40 47 51 61 76 82 91 94
64 60 90 97 95 90 82 75 87 94 86 85 85 84 84 87 84 87 84 80 74 77 62 62 55 47 43 40 41 42 41 38 39 38 37 37 36 35 35 38 37 37 40 46 44 48 50 70 87
66 67 64 60 71 80 84 82 67 85 79 80 77 74 79 80 85 86 82 69 58 54 53 53 54 44 40 40 38 38 39 37 37 36 36 37 38 37 36 36 36 41 40 45 51 52 53 54 56
50 57 54 76 78 73 66 76 63 74 78 80 76 74 78 81 81 80 73 59 51 47 43 39 46 42 41 39 36 35 35 34 34 36 36 36 37 37 37 36 36 37 40 42 45 54 59 56 55

GFSSGP_925_rhum_111.txt.gz
RH
48 47 53 53 52 57 47 24 28 27 30 27 26 34 60 56 80 93 63 66 71 84 92 92 78 76 77 80 78 78 79 81 87 87 88 86 89 82 73 72 76 87 91 93 88 86 94 85 80
48 47 49 65 65 44 35 35 44 36 29 25 24 26 46 55 48 50 48 57 78 83 88 86 86 76 74 75 77 77 78 79 83 84 86 85 86 86 85 79 64 86 92 88 90 89 91 91 78
54 53 68 69 52 44 45 40 35 29 27 27 25 46 49 50 37 40 38 70 81 87 89 85 87 80 71 73 68 75 79 78 82 84 82 80 83 84 84 82 72 79 87 83 86 85 86 84 80
53 58 58 54 44 35 42 37 30 28 25 24 29 57 44 34 35 34 36 57 78 84 92 95 92 89 80 74 78 73 74 78 80 83 84 79 81 78 85 82 73 63 89 89 82 85 85 84 80
54 65 52 36 31 39 37 31 27 28 28 23 23 42 44 35 32 32 33 37 51 74 87 93 96 93 88 79 77 78 77 75 76 81 84 77 81 82 87 82 82 79 80 88 87 82 81 81 69
64 52 53 46 35 35 30 27 26 25 24 24 25 36 43 31 24 28 29 31 36 45 72 85 93 94 88 84 83 84 82 78 76 78 79 78 82 81 83 82 81 82 71 86 86 82 82 73 66
59 47 40 31 37 35 31 26 30 28 27 28 22 30 42 32 23 24 24 24 31 35 34 46 79 88 86 89 85 80 81 83 80 77 77 78 78 77 80 82 81 82 79 79 86 85 85 66 65
47 38 25 20 30 44 31 28 28 33 29 23 18 25 45 23 20 21 20 21 25 27 34 32 35 71 89 92 87 88 84 79 80 80 77 76 78 79 81 79 78 77 81 81 85 88 84 62 60
34 44 39 44 37 39 29 31 27 25 26 22 19 18 18 17 16 17 19 20 23 25 28 27 29 31 52 81 91 89 89 86 80 80 82 80 80 78 78 75 72 73 76 78 83 88 87 74 61
40 53 41 41 40 37 31 29 24 25 28 23 20 18 16 16 17 20 22 24 25 24 21 23 24 24 31 45 81 91 90 87 83 74 70 70 68 67 67 66 73 73 75 80 78 83 90 85 77
30 45 38 50 40 35 31 28 27 27 28 22 20 21 20 18 19 21 22 22 22 22 24 24 25 26 26 35 50 81 90 89 87 87 86 86 81 82 77 79 78 81 80 82 83 81 86 89 85
38 38 37 40 41 37 34 28 29 25 25 22 20 21 20 23 23 23 23 25 26 26 28 29 28 29 29 29 35 54 77 85 85 84 84 84 86 84 83 83 82 81 84 83 88 87 82 84 82
34 38 36 39 34 32 29 31 32 28 23 20 20 22 25 27 26 28 29 30 32 33 34 33 32 31 31 33 33 38 73 70 81 86 82 79 76 75 73 75 81 86 87 86 85 86 86 86 82
40 40 35 31 29 28 32 34 34 23 22 22 24 30 30 33 36 36 37 46 59 62 62 61 57 42 35 34 33 32 52 72 77 86 89 81 72 72 71 64 68 76 79 82 82 85 86 86 87
32 35 34 33 32 35 41 39 44 28 22 21 31 35 46 45 49 57 69 70 71 70 71 71 69 70 65 48 36 34 34 55 70 84 86 88 74 70 67 64 68 67 72 72 74 74 80 83 84
38 36 46 36 35 39 38 24 34 28 22 31 34 49 52 65 70 76 78 82 78 72 72 73 70 68 73 65 59 36 35 38 70 63 82 86 77 74 70 70 72 69 69 68 67 69 75 77 78
39 76 42 43 39 41 45 43 36 29 36 38 41 52 51 68 71 73 74 74 77 78 83 81 79 77 79 75 64 51 36 36 54 61 70 79 75 74 72 70 71 69 66 65 65 68 70 72 72
58 55 42 39 47 44 52 58 47 40 41 41 48 55 70 70 73 71 72 74 72 79 90 97 94 92 84 77 76 59 48 38 36 62 76 79 78 75 75 75 74 71 65 65 66 70 71 73 73
41 43 50 44 48 50 59 62 53 48 44 51 59 70 69 69 67 68 78 83 84 81 91 94 94 93 89 100 99 83 74 43 38 54 68 75 76 80 90 81 79 75 75 75 74 74 74 75 80
49 47 57 55 50 51 61 63 53 52 50 59 58 70 77 76 75 70 73 80 90 81 87 95 98 96 95 99 99 100 82 68 70 59 66 79 97 99 100 93 85 87 84 83 84 88 89 85 82
52 52 66 69 62 59 64 68 52 50 56 52 52 77 81 84 85 79 75 85 92 95 94 94 95 98 99 99 100 95 72 63 67 74 83 100 99 100 96 90 88 87 91 97 100 99 99 100 94
66 53 56 65 78 90 65 82 72 57 61 60 78 89 88 84 77 74 84 88 94 94 94 89 94 93 91 98 99 100 100 99 100 99 99 99 100 97 94 92 89 90 94 95 97 99 97 99 97
69 56 62 65 72 83 75 92 75 61 62 71 89 89 87 82 81 83 86 88 94 92 92 89 84 84 84 93 98 100 99 99 99 100 97 97 100 97 97 93 91 87 92 93 95 88 92 97 100
55 63 67 61 72 96 76 82 80 68 57 76 86 86 87 85 81 81 87 90 93 90 87 82 74 72 69 74 90 97 97 96 98 95 89 76 68 67 70 78 80 82 82 87 94 95 91 82 90
57 79 94 88 98 91 69 82 75 64 80 80 85 86 86 85 84 87 89 91 94 90 86 85 72 59 56 50 53 57 59 64 71 75 66 55 53 42 41 44 48 48 48 48 66 82 89 97 92
78 77 95 92 98 91 67 83 70 80 84 84 82 78 77 84 84 86 87 88 92 90 82 72 64 54 48 46 43 40 43 44 45 42 39 39 37 42 39 39 39 42 48 52 54 56 55 75 89
85 90 73 93 83 95 86 71 72 84 86 85 80 79 84 84 82 86 84 85 85 85 68 72 52 45 43 40 41 40 37 37 38 37 38 39 38 36 34 36 36 36 38 48 51 56 62 64 70
68 67 86 95 96 80 85 79 84 91 88 86 88 86 82 82 86 85 86 83 76 72 59 57 51 36 37 37 36 37 36 36 35 35 35 35 35 36 36 36 35 34 35 38 42 46 55 57 65
70 76 72 68 74 83 91 81 73 76 86 87 86 79 78 82 84 83 85 80 71 62 48 43 48 41 34 35 36 35 35 36 36 36 37 37 36 37 37 35 34 35 34 37 38 31 41 53 58
63 68 68 85 83 74 82 78 64 75 83 83 83 79 78 76 84 86 84 76 68 56 44 40 40 43 39 37 36 36 36 36 37 39 40 41 40 38 37 37 36 37 36 37 40 37 29 40 53

GFSSGP_925_rhum_114.txt.gz
RH
47 48 50 53 43 56 47 27 35 34 32 28 33 62 65 65 85 90 62 77 80 85 87 90 84 81 78 78 78 79 80 83 88 92 89 89 89 80 68 58 72 84 91 97 91 90 97 87 88
49 54 52 64 58 39 37 42 40 35 29 28 33 48 56 58 49 46 45 82 82 84 83 83 83 82 76 76 77 80 80 81 84 88 88 86 89 86 82 74 58 85 92 94 89 90 93 81 74
53 56 67 58 62 48 53 39 33 29 28 27 38 52 50 51 38 39 41 76 80 79 85 84 78 85 78 72 69 75 79 80 84 85 85 84 84 88 87 84 79 68 88 86 89 86 86 82 80
52 57 54 57 38 43 46 37 30 28 29 26 48 60 40 38 36 35 38 47 68 82 89 91 86 92 87 78 78 70 75 78 82 87 88 84 82 83 83 84 82 61 86 85 87 84 83 82 78
57 60 55 45 41 41 33 31 28 31 26 27 29 55 45 36 32 31 31 34 39 59 81 92 94 91 89 88 81 78 77 74 77 80 84 83 78 80 84 85 83 74 73 87 86 85 85 80 80
66 53 53 45 47 38 31 31 26 29 29 26 28 52 42 34 28 30 26 28 34 34 34 58 88 93 85 87 86 83 80 80 78 78 78 82 77 80 82 85 82 84 80 80 89 87 85 80 78
54 50 50 45 42 38 32 29 34 30 30 28 24 52 40 33 30 29 22 23 26 29 32 31 38 74 93 88 85 83 83 83 81 79 80 82 83 82 81 83 84 81 82 75 84 87 85 85 70
52 40 27 36 41 41 32 30 31 31 29 26 20 44 48 26 27 21 19 19 21 23 26 25 24 28 42 89 94 90 84 80 81 80 77 77 78 78 79 80 80 82 80 82 81 87 86 87 67
33 47 47 44 40 41 30 32 27 26 25 23 21 21 20 19 18 18 19 19 20 21 21 21 23 22 21 30 70 92 93 88 83 79 80 79 78 76 77 78 76 75 77 78 82 85 89 91 78
44 57 46 43 39 37 31 29 27 25 28 24 20 19 19 18 19 22 24 24 23 25 25 26 27 27 26 24 30 60 91 98 92 82 75 76 77 76 74 74 76 76 78 80 81 82 86 91 87
37 49 47 49 38 33 30 29 28 28 26 22 22 22 21 21 22 24 24 26 29 30 31 32 31 29 30 31 30 30 46 80 92 92 88 83 81 77 78 76 72 80 84 84 83 86 88 94 92
43 41 42 47 39 33 34 28 26 26 24 23 21 20 22 27 26 26 29 33 40 56 61 56 47 42 36 33 32 31 30 43 67 83 94 91 86 83 83 85 82 81 75 82 83 84 84 87 93
42 40 43 41 34 32 29 29 29 30 26 24 22 24 29 32 32 38 50 66 66 66 65 62 60 59 58 52 41 37 34 32 45 68 77 94 90 84 81 86 84 84 76 75 79 85 78 86 85
42 44 42 31 30 30 31 33 35 23 23 24 24 31 39 51 61 73 77 80 75 72 66 63 60 60 64 64 60 48 40 36 35 55 63 78 92 88 81 79 78 81 83 78 75 83 78 81 83
38 38 35 33 33 36 41 32 45 28 24 23 31 49 69 79 79 83 81 81 76 73 73 68 65 62 61 62 67 63 52 40 37 36 60 57 77 91 88 76 74 66 75 77 78 78 74 79 76
37 40 38 36 35 39 34 18 32 33 28 27 42 58 77 82 81 76 73 73 72 72 76 78 80 79 78 70 60 70 63 50 39 37 47 61 59 76 91 81 72 67 75 76 74 72 73 76 81
52 60 42 41 39 44 44 32 36 27 38 42 48 59 76 82 78 78 78 77 77 77 83 87 91 93 90 84 78 68 71 60 47 40 37 46 62 77 87 87 77 76 79 76 70 69 70 72 72
52 61 43 41 44 44 50 58 49 43 44 48 53 68 75 79 78 82 78 78 76 79 86 93 96 96 93 96 97 77 64 65 57 43 42 42 66 81 84 84 94 89 86 79 72 70 73 76 77
47 54 48 47 47 51 58 62 56 51 53 54 73 81 74 79 76 74 74 73 74 76 80 88 94 93 100 99 98 99 100 79 70 80 86 81 79 83 98 98 92 92 88 94 92 90 88 83 83
47 57 63 58 53 55 63 66 57 58 57 57 71 79 79 79 80 76 80 80 83 83 81 85 89 88 93 98 100 100 100 98 100 95 90 90 96 99 97 100 100 100 100 100 100 100 99 99 95
60 63 67 68 63 60 66 57 56 56 57 62 76 84 84 83 81 81 82 85 86 86 87 93 87 86 90 98 97 93 99 100 100 98 100 98 90 98 95 97 100 99 100 99 99 94 96 99 96
69 56 60 70 76 68 62 63 63 59 66 66 86 90 87 81 78 80 86 86 89 87 85 85 83 77 80 92 95 95 100 99 100 100 100 100 95 97 98 98 98 99 96 93 99 89 99 100 99
69 56 63 64 74 79 72 89 69 63 67 71 91 91 86 85 83 86 87 87 87 86 85 78 72 65 64 76 86 86 96 100 92 94 98 98 99 94 90 86 82 86 89 93 90 90 90 92 100
55 65 70 75 80 86 71 81 77 71 61 70 90 89 88 87 84 84 86 88 87 87 80 75 58 51 46 48 48 53 59 64 61 56 55 54 51 46 56 51 50 51 51 56 70 78 86 96 96
62 79 91 80 96 79 75 85 75 55 71 72 86 88 86 88 87 87 86 88 87 87 77 67 59 48 46 43 39 40 42 45 48 43 39 38 37 36 35 33 32 37 42 46 51 52 51 58 79
80 78 89 81 97 91 73 89 71 66 78 80 81 82 83 85 89 87 84 86 85 84 73 70 56 48 39 39 39 37 35 35 37 39 40 39 38 36 34 34 34 34 34 44 46 54 60 64 66
78 89 71 89 85 96 88 70 63 86 88 91 90 86 88 88 86 87 85 83 83 78 72 68 58 39 37 34 36 35 34 34 34 35 36 36 37 38 37 37 36 36 34 36 37 36 54 56 64
65 68 88 90 91 92 85 80 81 83 80 87 89 90 84 83 83 88 86 83 78 73 68 55 54 35 34 34 34 34 35 36 36 36 37 37 36 35 34 33 31 31 32 32 36 32 28 30 46
76 84 74 75 88 92 90 73 66 67 66 73 84 85 85 84 84 86 82 79 78 70 64 47 47 43 35 34 36 36 36 36 37 38 39 38 34 34 34 35 35 35 35 32 38 36 38 33 31
68 78 74 86 78 82 83 79 52 68 71 79 79 82 82 81 83 84 82 81 79 71 60 48 40 39 38 36 36 37 38 37 37 40 42 39 35 35 38 38 38 40 40 39 45 49 51 51 47

GFSSGP_925_rhum_117.txt.gz
RH
51 50 51 48 38 48 37 32 41 36 33 39 54 71 79 69 80 71 63 83 85 84 76 78 83 81 78 77 78 79 79 82 89 94 88 92 90 78 68 59 71 84 93 94 92 92 95 93 91
56 54 51 62 39 35 40 42 40 36 32 55 51 55 59 64 49 44 52 80 82 84 79 75 78 84 77 78 80 80 79 82 86 89 88 88 89 86 82 76 67 83 89 92 90 90 91 80 79
56 53 64 58 60 40 52 40 34 30 30 29 53 52 48 51 39 39 43 67 76 82 84 79 78 84 78 75 75 80 80 82 83 86 86 84 86 87 87 86 84 64 85 86 89 87 87 82 78
53 55 53 49 44 45 46 37 32 29 27 32 52 60 41 39 38 36 37 38 56 78 85 90 86 85 88 83 80 73 76 82 84 86 86 85 82 83 86 85 81 72 76 84 88 88 87 84 82
54 54 50 53 48 41 32 31 30 30 27 35 40 54 46 35 34 33 31 34 33 34 40 78 94 92 91 91 84 78 77 74 76 84 85 87 85 84 84 85 82 78 60 84 86 84 86 83 80
67 53 49 53 52 37 32 32 28 31 30 28 44 52 42 36 32 32 27 28 28 28 31 30 52 87 95 92 89 85 82 81 79 78 76 79 83 79 82 84 85 83 84 71 85 88 88 83 76
58 54 50 54 49 38 32 31 33 32 30 28 28 54 40 33 33 26 22 21 21 22 22 23 23 26 45 90 93 90 86 84 82 83 78 80 81 79 80 79 80 84 82 83 77 85 88 85 84
52 42 32 42 46 40 33 31 32 29 27 25 23 55 47 28 29 20 19 20 20 20 21 22 22 22 21 23 63 91 96 93 88 82 81 80 82 79 79 79 78 77 78 80 81 78 85 88 87
34 50 49 43 42 40 32 32 27 27 24 24 22 24 22 21 19 19 20 23 26 27 28 30 30 28 27 25 23 33 76 97 98 94 87 84 82 82 82 80 78 79 80 78 82 84 83 86 88
46 57 47 44 39 38 31 29 28 24 26 25 21 20 20 20 23 26 27 30 32 38 40 41 36 33 31 32 31 28 28 55 87 97 96 87 82 80 81 82 80 79 80 81 84 84 86 89 93
41 51 49 46 37 32 30 29 29 28 25 23 22 21 21 25 28 31 36 43 57 66 58 57 55 50 42 37 35 34 32 29 33 68 85 94 94 89 80 75 75 77 74 77 84 86 88 90 94
45 44 44 44 36 32 31 28 24 27 24 24 22 20 26 32 37 46 69 74 72 70 66 62 61 60 58 57 52 43 37 36 34 30 54 74 94 94 90 87 84 85 80 77 77 80 83 84 84
46 46 45 41 34 34 29 29 29 30 26 25 22 28 36 50 70 76 78 74 71 67 66 61 60 59 57 56 60 59 52 41 38 36 34 62 71 85 93 90 86 88 87 80 79 75 78 84 80
44 48 42 32 32 35 29 33 34 22 24 24 26 45 65 76 81 80 76 74 70 68 67 66 66 68 65 60 57 55 64 62 48 39 37 36 61 69 71 92 90 83 85 83 78 73 74 75 76
39 42 36 37 33 41 40 28 37 27 25 26 43 66 85 87 82 82 80 79 74 69 70 69 73 74 70 66 64 61 57 71 65 52 40 37 38 72 71 73 90 87 81 82 82 78 86 85 78
37 41 35 37 35 43 27 15 25 33 28 26 48 78 87 85 83 80 78 75 73 71 74 79 83 85 76 74 73 69 62 68 68 61 51 42 38 44 58 71 81 87 88 85 83 86 85 85 74
50 54 40 42 38 46 40 25 33 31 33 41 43 79 89 87 83 83 77 73 72 74 79 87 92 93 83 93 96 87 75 70 75 70 59 45 46 54 88 91 92 96 89 91 95 90 85 80 76
45 67 44 45 45 45 49 56 47 44 41 46 49 73 88 86 84 82 76 73 72 75 78 83 88 87 94 97 97 98 97 92 98 96 94 93 82 86 82 90 99 99 97 93 94 89 85 83 82
50 50 50 52 48 53 59 62 57 50 51 55 57 78 88 86 84 79 79 74 73 75 81 87 85 85 91 90 96 99 98 98 99 100 100 99 95 86 99 98 96 100 100 99 100 94 94 92 93
50 55 64 61 53 59 67 70 62 59 59 60 68 86 86 85 81 79 78 75 80 81 84 85 83 82 83 93 96 100 98 96 99 98 95 99 99 92 87 99 99 100 100 96 99 96 99 100 99
66 65 66 63 63 62 70 50 54 56 59 71 73 80 83 85 83 80 81 81 82 81 83 82 80 72 76 90 87 89 95 95 98 98 99 99 100 100 100 100 100 100 97 96 98 100 94 98 97
65 58 65 68 71 58 66 57 50 59 65 68 89 91 89 85 79 81 84 85 86 81 81 74 68 63 66 82 85 88 98 100 99 99 97 92 92 90 83 84 92 98 99 100 98 98 99 94 100
67 58 65 66 79 77 68 86 66 65 69 74 86 92 91 87 86 85 84 85 83 81 79 66 56 51 48 51 60 63 64 67 61 54 49 45 41 50 59 51 49 48 54 73 88 88 92 94 99
59 69 72 82 80 79 66 82 72 69 61 56 82 91 91 91 88 85 83 83 86 84 74 68 52 48 43 42 42 44 44 42 40 38 37 38 37 39 40 38 38 42 43 48 47 46 51 60 88
67 78 83 63 86 70 74 87 75 52 58 63 74 91 90 89 90 89 89 88 86 86 74 66 57 45 42 40 36 38 37 38 39 39 39 38 39 37 37 36 36 36 39 42 43 55 55 62 69
79 73 78 43 94 92 77 92 67 59 73 77 77 80 85 87 90 90 87 85 85 83 76 69 58 43 36 36 38 36 34 35 35 35 36 36 36 36 32 30 30 32 31 34 31 44 37 52 58
71 88 72 89 87 95 89 71 61 79 81 85 86 86 86 88 91 91 85 82 80 81 74 60 59 35 36 34 35 34 34 34 34 34 33 33 31 30 28 26 26 28 28 32 33 33 29 30 38
65 72 84 88 90 93 86 80 77 73 70 77 89 92 88 87 90 90 87 81 78 80 73 63 52 43 34 35 35 34 34 35 36 37 38 37 33 31 30 30 30 30 30 29 34 36 39 33 32
81 83 77 79 84 91 88 64 63 64 63 60 75 85 87 88 89 89 87 80 79 77 69 63 48 47 37 34 36 36 36 36 36 37 39 36 32 31 34 37 37 38 38 38 43 46 52 51 45
70 78 77 86 76 86 84 77 49 69 62 72 70 75 82 85 85 87 84 81 81 77 70 65 51 41 41 38 37 37 38 38 38 39 40 36 33 34 38 39 39 41 41 41 43 54 58 61 62

GFSSGP_925_rhum_120.txt.gz
RH
54 53 54 42 27 38 36 32 42 37 57 67 59 68 82 75 72 63 67 78 82 85 82 77 79 80 77 78 80 79 76 79 83 88 87 92 91 80 69 59 67 80 86 92 93 93 92 87 94
59 54 46 58 35 29 38 38 41 37 56 61 58 57 63 68 50 46 56 70 82 87 84 78 77 79 77 74 80 82 80 80 85 90 89 88 89 89 83 78 65 72 84 85 86 88 84 83 84
60 55 57 59 44 27 50 42 36 32 35 34 56 49 49 52 41 41 43 50 71 75 88 90 83 87 84 75 73 78 81 81 83 85 85 84 84 86 90 91 86 76 68 82 85 84 87 79 77
58 53 51 44 44 46 46 39 34 32 28 42 52 57 42 40 39 39 37 37 36 52 58 89 92 88 83 88 82 79 75 81 83 84 84 82 82 82 81 86 84 80 65 78 83 86 88 84 81
48 52 53 56 52 42 33 32 31 30 34 43 45 53 46 37 38 33 32 30 28 29 31 31 74 87 96 94 93 88 84 80 79 80 79 79 82 82 82 82 83 81 77 65 86 89 88 86 81
63 50 54 63 53 37 32 33 28 32 30 28 53 49 44 37 34 28 25 22 22 21 21 22 23 30 63 93 94 91 89 87 87 84 80 79 81 85 81 80 80 81 78 80 72 83 86 86 85
54 54 50 62 52 39 32 32 32 32 29 28 40 53 41 33 35 24 20 20 22 22 21 21 21 22 23 26 65 88 94 92 88 89 88 86 85 86 86 84 83 80 80 80 81 78 81 86 86
51 44 48 48 51 42 33 32 32 28 27 25 31 50 43 31 28 20 20 23 28 28 29 29 27 25 24 24 25 29 56 91 97 94 90 88 88 86 84 83 84 83 81 82 81 81 79 83 88
35 47 53 49 46 39 33 32 27 27 26 25 24 27 26 23 20 21 26 30 32 42 44 42 37 33 30 28 27 26 27 31 67 92 97 96 90 88 87 85 83 82 83 83 83 81 83 84 86
46 50 45 42 40 41 33 29 28 25 26 24 22 21 22 23 27 32 38 48 61 61 61 60 58 55 48 40 34 31 29 28 29 37 65 87 93 92 86 84 84 82 80 82 84 85 82 86 89
42 46 48 44 37 31 31 30 28 30 26 24 23 21 22 31 36 46 64 72 77 71 63 61 58 58 57 55 54 46 40 35 31 30 31 47 72 89 96 93 90 88 83 80 77 76 81 85 88
50 47 44 44 34 30 29 28 26 27 24 23 22 23 31 44 59 79 82 78 73 69 66 61 56 55 55 53 50 52 54 51 43 36 35 35 41 65 76 89 93 90 87 89 87 83 81 83 81
48 48 47 39 37 35 28 31 28 26 27 25 23 36 48 72 85 84 80 76 71 65 63 61 64 64 61 58 55 51 48 52 60 54 42 39 38 37 58 69 72 90 91 87 88 86 82 81 78
48 49 39 37 37 40 26 32 35 21 25 28 29 53 70 84 84 83 77 74 68 66 64 66 68 72 68 62 60 61 56 54 61 64 60 47 41 39 41 67 70 68 82 87 86 88 84 84 86
39 40 38 43 36 42 41 26 30 24 27 34 51 77 89 90 84 86 81 75 71 66 68 70 77 81 73 70 72 72 75 72 72 72 65 58 48 42 40 46 52 66 79 87 90 83 88 94 96
37 38 33 38 37 44 26 13 27 31 29 35 60 87 91 87 87 84 78 73 71 70 72 76 79 81 73 78 80 76 83 87 93 91 82 70 53 47 52 66 84 82 82 93 96 88 90 97 95
50 52 40 40 40 45 39 20 30 34 31 36 49 86 91 88 87 81 73 70 69 73 77 82 83 80 81 86 88 86 92 99 99 98 99 99 99 99 92 89 93 94 97 97 94 97 99 96 93
43 60 43 43 44 47 49 53 45 42 37 40 51 70 94 91 86 80 73 69 68 71 75 79 79 76 80 81 85 94 97 95 90 92 99 100 95 94 97 99 91 90 94 99 100 98 100 98 92
54 49 50 55 50 56 57 63 57 51 52 55 53 64 92 91 86 79 75 72 72 73 74 80 79 76 78 85 94 97 88 93 89 92 90 92 100 99 100 98 92 98 98 98 98 99 98 100 98
51 54 67 62 55 62 67 71 60 59 59 58 57 64 87 89 91 81 77 76 78 78 79 76 79 73 82 92 94 99 98 95 99 99 99 97 100 100 100 99 99 98 99 100 95 94 90 90 88
70 62 63 60 62 62 71 47 42 59 62 68 66 72 86 90 90 83 78 80 80 82 78 73 69 64 76 87 85 88 91 92 98 88 86 80 82 77 76 81 91 97 98 99 99 100 99 99 98
58 62 68 68 65 53 64 55 39 53 65 70 79 86 89 88 84 82 81 82 83 85 77 66 57 52 54 67 69 79 93 82 69 62 52 42 47 53 47 42 42 46 59 74 91 95 96 98 99
68 62 70 70 80 75 65 79 53 65 64 67 82 89 90 89 88 88 84 79 86 83 74 57 49 44 42 42 49 50 50 47 41 40 37 36 36 36 34 34 36 38 43 46 54 55 54 86 99
63 70 67 79 78 73 64 80 63 60 58 52 68 86 89 91 90 86 82 82 87 82 71 61 48 44 39 37 38 39 39 40 38 38 38 38 36 33 32 31 31 31 32 36 45 52 54 55 60
67 76 74 58 80 68 74 89 70 51 54 54 57 76 89 91 92 91 89 86 87 82 70 63 55 43 40 36 35 34 33 35 36 35 34 35 37 35 32 30 29 28 29 28 34 39 39 56 64
78 69 72 32 75 88 82 95 68 56 72 72 74 76 88 91 92 91 86 84 84 83 77 68 65 45 37 34 34 33 32 32 32 34 34 32 31 31 30 28 28 28 26 27 26 24 20 24 38
79 84 69 88 90 92 87 71 59 62 74 81 83 86 88 89 89 91 86 83 80 82 80 69 61 41 33 31 33 32 33 34 32 32 32 31 28 28 30 32 33 34 34 36 37 37 33 27 23
65 71 82 91 77 84 81 77 74 66 66 75 84 89 87 85 88 91 87 81 78 78 78 74 52 47 30 33 34 34 34 34 35 34 33 32 28 26 25 27 29 32 34 36 42 47 51 47 43
85 83 82 81 83 88 84 54 62 60 58 54 62 75 82 85 87 89 86 77 74 76 79 73 61 45 41 33 34 35 35 37 38 38 39 35 29 25 25 29 31 33 35 36 39 46 53 56 57
71 75 77 83 74 88 87 75 46 63 60 61 64 68 74 82 85 88 83 79 79 80 80 73 65 50 42 38 34 34 36 39 40 40 40 35 29 29 33 36 37 38 39 39 44 54 60 64 64

GFSSGP_925_rhum_123.txt.gz
RH
56 56 57 36 25 29 34 33 38 38 64 68 58 57 64 69 66 62 69 69 82 86 87 81 76 80 76 74 79 79 78 81 84 84 81 89 87 81 73 63 68 79 84 90 95 94 86 84 91
60 56 43 44 29 23 30 36 42 38 63 57 51 54 59 69 47 49 56 59 65 79 91 86 85 87 79 76 78 79 80 80 82 86 87 87 87 88 82 80 73 69 82 83 85 87 81 78 84
61 55 49 41 30 20 36 43 37 36 60 41 49 44 49 50 40 42 43 40 43 50 81 93 88 88 89 83 80 78 81 82 82 83 83 84 85 85 85 86 84 81 70 68 80 87 86 81 75
60 51 44 33 36 42 43 38 34 34 36 45 48 51 41 42 41 40 39 33 32 32 30 58 86 94 95 94 89 88 85 82 84 84 83 81 80 80 81 83 84 81 76 59 73 84 86 86 83
43 45 49 54 52 45 35 32 32 30 40 44 43 51 42 40 38 32 28 23 22 22 23 26 33 53 82 95 94 91 87 86 87 85 82 82 82 82 83 81 82 83 82 75 63 84 88 86 85
57 44 49 54 51 37 32 32 29 32 30 32 46 45 43 38 34 25 23 24 23 22 22 22 23 26 28 57 81 88 89 89 87 86 88 86 83 84 84 82 82 83 85 82 82 74 86 85 85
54 48 50 59 48 39 33 32 30 30 28 29 45 44 40 36 32 25 24 27 28 29 27 28 27 25 25 27 29 35 66 87 93 92 89 89 90 88 87 86 85 84 82 83 84 83 81 82 86
50 50 56 53 47 43 35 33 31 27 28 25 32 42 38 34 26 23 28 33 38 38 37 36 34 32 29 27 26 28 29 32 68 90 95 94 90 87 86 86 85 84 82 81 80 82 83 83 82
37 51 59 54 49 41 35 32 28 27 25 23 24 29 31 26 23 24 31 42 48 52 52 52 48 45 41 36 32 29 27 27 28 37 58 83 91 93 89 86 86 85 85 84 84 82 82 81 84
44 49 48 43 40 41 35 30 28 26 25 24 23 24 25 27 30 38 55 72 65 61 59 57 53 50 49 47 45 42 37 32 31 31 32 35 54 77 91 94 89 83 80 78 78 78 81 83 95
47 44 47 42 37 33 33 31 28 29 28 25 24 24 28 39 49 68 77 78 74 68 63 61 58 54 51 47 45 42 42 42 40 37 34 33 33 38 64 78 87 93 90 88 86 86 86 83 92
51 50 45 43 34 30 30 29 29 26 25 23 24 26 34 48 70 80 83 76 69 65 61 57 58 59 57 55 51 50 46 43 44 48 49 41 35 34 34 66 79 71 79 92 90 87 86 89 88
51 49 41 39 38 34 29 33 27 25 27 26 32 39 46 71 86 88 79 74 69 64 61 59 62 64 64 60 59 58 56 52 49 52 55 56 49 41 38 34 35 53 60 65 80 92 89 84 90
50 46 39 40 40 43 25 31 30 22 25 27 38 49 64 77 83 86 79 75 67 64 64 64 66 70 68 65 66 68 70 68 67 66 65 60 59 52 46 42 43 58 67 63 67 79 93 95 98
39 39 37 44 39 44 44 21 26 24 29 30 46 68 81 85 85 83 80 72 66 66 68 70 79 76 72 74 77 79 82 86 94 98 93 79 69 60 54 56 64 75 79 95 95 96 87 91 89
36 35 32 38 39 48 22 17 27 29 34 45 58 79 85 83 84 84 73 67 67 68 70 73 76 73 75 80 86 92 96 100 97 97 98 98 99 99 98 99 100 98 97 98 98 99 99 94 94
48 50 37 39 42 44 33 20 24 34 32 34 53 75 83 84 86 83 73 70 70 72 73 74 74 73 73 76 84 94 100 93 90 85 98 99 100 100 100 98 93 88 89 89 92 94 99 100 100
44 51 42 40 45 46 47 45 42 39 35 33 42 53 82 83 79 82 74 70 71 72 74 74 74 72 71 78 81 87 88 84 82 85 88 89 97 98 99 96 84 83 83 89 79 91 97 99 98
52 43 50 56 53 57 52 58 48 43 48 47 42 43 62 83 81 80 74 70 69 70 69 69 72 69 74 78 92 96 100 99 91 85 86 85 94 96 99 100 97 100 100 99 98 91 93 97 85
51 53 70 62 58 60 68 62 52 52 53 50 45 45 49 82 85 82 76 71 71 73 73 70 67 64 75 84 91 99 97 99 97 90 85 81 76 74 80 87 91 95 99 97 92 97 100 99 91
75 58 59 55 60 60 66 42 32 53 63 64 64 60 60 73 84 81 80 74 75 76 71 67 60 55 67 78 82 93 96 80 71 60 53 58 59 55 51 50 53 60 68 77 92 90 98 100 99
66 65 68 66 53 45 60 50 36 43 58 66 68 76 75 83 82 79 80 80 78 77 72 62 52 47 49 60 60 64 70 80 64 51 41 37 36 36 37 39 41 44 46 49 52 53 77 99 99
74 67 71 71 74 65 58 67 42 60 52 53 65 75 79 82 81 80 82 78 78 80 74 54 46 43 42 43 48 48 45 42 40 39 36 34 32 32 31 30 30 32 33 49 54 51 56 76 84
70 64 65 72 70 63 67 66 47 45 47 49 60 73 80 84 83 82 80 80 81 83 74 57 48 44 38 36 37 38 38 42 40 39 38 36 32 28 25 24 23 23 24 27 45 33 45 63 75
66 66 72 64 74 62 73 85 53 44 48 52 52 63 77 82 84 84 86 88 84 85 74 68 60 46 39 34 31 31 33 34 34 34 34 32 31 30 27 23 20 18 19 19 20 21 23 30 68
80 62 70 44 53 73 81 87 54 53 71 66 71 74 76 84 86 86 85 84 79 82 80 68 60 46 38 32 30 30 30 30 32 34 35 33 32 29 25 22 21 21 20 20 21 22 23 23 26
81 83 65 87 90 90 71 64 52 61 61 71 76 79 80 84 84 84 84 81 78 81 80 73 64 56 34 30 29 30 30 31 32 35 36 34 28 26 27 28 28 29 30 31 32 32 31 31 28
64 70 73 83 71 69 69 69 70 57 64 64 70 77 79 81 82 82 84 81 76 75 76 79 70 47 37 28 29 29 30 32 34 36 35 34 30 26 25 27 30 32 33 34 38 42 47 50 50
85 86 83 76 76 76 72 44 57 57 52 50 57 63 72 78 81 80 82 78 74 70 73 77 76 63 45 35 28 31 33 34 35 36 38 36 30 25 26 29 31 33 36 36 40 46 53 56 58
71 76 74 71 75 84 80 61 43 55 68 62 63 64 66 74 77 78 80 78 77 74 73 76 76 72 53 39 36 33 34 36 38 38 40 37 31 25 24 26 28 31 33 34 38 45 54 60 63

GFSSGP_925_rhum_126.txt.gz
RH
62 61 56 29 15 13 16 21 23 28 36 40 39 39 42 49 48 58 60 61 58 71 84 86 86 86 80 77 80 79 81 84 87 85 84 87 86 80 72 64 63 75 83 89 98 92 79 84 92
62 57 39 21 13 10 15 23 26 33 46 41 41 43 45 57 48 49 46 50 47 54 74 81 88 86 82 81 82 84 82 83 84 86 86 86 87 87 82 81 76 70 73 80 80 86 86 71 82
62 55 28 15 12 8 16 25 26 46 36 37 40 37 46 52 38 37 40 43 42 36 49 80 90 91 92 89 84 82 86 87 85 84 85 85 86 87 89 90 90 86 81 65 70 84 88 81 75
51 35 26 16 11 24 26 26 31 40 33 35 35 43 36 38 34 35 37 33 32 32 34 41 66 87 95 97 94 88 85 84 84 87 87 87 86 84 84 83 83 87 84 78 64 81 87 87 82
42 30 21 19 26 31 27 26 32 28 30 36 33 40 40 36 34 34 30 29 29 32 37 34 28 35 62 88 91 90 89 85 84 85 82 82 86 86 87 87 85 85 86 85 77 80 90 88 88
37 26 17 19 26 29 26 24 25 25 30 34 32 32 34 35 29 32 32 36 45 46 44 40 28 26 29 32 48 66 83 87 88 88 87 87 87 84 81 81 82 82 84 85 85 84 79 87 88
32 26 18 21 29 31 26 23 23 24 27 32 28 32 32 32 34 34 37 47 54 58 55 54 52 31 31 28 30 32 33 52 80 90 92 90 87 87 85 85 83 84 83 83 83 84 84 83 83
32 27 32 26 28 30 26 24 23 22 25 25 27 29 33 30 30 37 45 53 57 60 62 64 61 54 50 53 30 27 27 30 32 46 74 88 90 92 89 83 91 86 84 83 82 82 81 83 84
28 29 28 35 28 30 25 25 23 20 21 19 22 25 28 30 28 34 44 54 56 60 64 68 64 61 57 57 50 40 33 27 28 33 40 48 73 89 92 92 86 84 83 83 83 83 82 82 82
29 29 32 30 27 28 25 22 21 20 20 22 24 23 25 26 28 36 45 52 59 63 66 69 72 69 64 58 62 57 55 56 55 54 51 43 50 62 75 83 86 91 89 86 82 79 77 76 78
38 31 36 34 29 25 25 24 22 21 23 20 23 21 24 28 36 43 57 63 67 70 68 70 72 74 71 68 65 60 58 59 56 60 62 56 48 48 47 53 69 84 84 90 88 86 83 76 78
39 40 34 35 30 25 25 22 22 20 22 17 17 18 24 30 40 50 55 62 66 68 70 72 74 76 74 72 70 66 62 67 62 64 68 65 58 55 48 41 43 56 70 78 86 87 83 84 84
38 36 32 30 28 26 23 24 21 21 20 18 21 25 26 37 49 59 62 64 64 63 70 75 77 77 75 76 77 73 71 68 72 73 76 75 68 64 57 49 47 46 46 60 70 81 89 94 80
38 31 30 28 30 30 22 23 22 19 20 22 27 30 35 43 51 61 61 60 59 63 67 74 75 80 79 80 84 82 78 80 84 92 92 83 79 76 70 66 58 54 51 53 59 68 79 87 96
28 31 26 31 30 33 27 20 20 18 20 22 28 34 44 52 59 53 64 62 61 62 69 71 72 78 81 82 85 84 87 90 94 99 98 100 98 92 95 92 83 74 68 66 63 67 79 92 92
26 25 32 30 31 38 24 18 20 20 20 20 26 40 51 56 57 65 63 60 64 64 66 71 73 76 78 82 86 85 88 94 94 85 99 100 100 100 99 97 83 83 75 71 71 72 86 90 85
28 48 31 32 35 34 25 16 19 23 22 21 26 38 48 52 62 64 64 66 64 66 68 69 73 74 74 81 84 87 86 91 87 82 86 95 99 99 99 96 84 85 83 83 90 79 81 96 91
34 39 28 29 37 35 31 21 21 25 22 19 21 28 42 49 55 60 63 68 70 70 71 71 70 72 73 80 82 81 82 91 95 88 88 92 92 97 99 100 100 100 91 94 93 89 85 94 91
28 28 36 42 48 42 31 33 25 22 28 23 18 21 29 43 50 66 67 68 71 72 72 70 69 68 72 78 81 82 96 99 93 93 85 85 84 87 89 97 99 100 100 93 90 89 94 92 93
25 29 43 48 50 41 39 31 22 21 25 24 22 20 22 30 50 65 68 67 68 72 74 71 67 66 72 80 87 97 100 98 97 85 79 75 71 77 73 78 80 83 89 89 92 94 92 96 98
38 26 37 50 47 43 40 19 23 26 30 33 32 30 29 31 36 54 65 65 69 71 74 71 67 62 68 77 85 95 97 85 76 70 63 59 59 61 63 65 70 73 70 69 67 71 81 95 91
39 51 45 43 32 30 42 33 20 21 26 41 39 44 42 45 41 50 61 64 69 72 79 72 64 61 56 67 70 76 72 66 64 61 57 56 53 53 55 55 58 61 70 70 65 64 67 64 62
56 50 48 45 40 42 37 51 17 29 21 24 30 41 45 50 53 56 62 64 68 76 78 72 60 56 55 58 64 62 59 59 58 55 54 54 52 51 50 44 47 50 52 63 64 62 62 65 61
52 46 49 46 45 50 50 42 22 24 28 35 40 39 48 54 57 59 62 68 69 77 80 74 59 54 52 50 51 56 56 54 51 50 47 47 44 43 40 41 42 44 46 50 49 51 53 54 61
50 48 82 72 84 51 60 55 23 28 32 37 42 42 47 54 57 59 64 68 69 74 79 75 65 57 51 46 45 48 49 50 48 48 46 44 42 40 42 43 42 41 46 49 49 50 50 50 53
56 49 68 81 42 48 62 56 31 39 51 41 46 50 54 55 58 60 64 67 70 71 77 73 68 61 52 42 42 46 47 46 46 48 46 43 42 41 40 42 43 42 43 45 48 51 51 53 58
58 59 50 66 64 54 38 36 33 39 43 39 48 55 52 56 58 61 63 68 69 69 73 77 69 65 57 44 41 39 41 44 44 44 43 44 44 37 38 40 44 44 44 47 50 52 52 53 57
54 51 57 60 60 44 41 43 51 54 52 42 43 45 46 52 57 58 61 64 67 67 70 77 75 64 56 44 37 35 36 39 41 41 41 42 39 36 39 40 43 44 46 47 51 52 57 56 59
62 62 58 50 56 49 34 23 32 40 44 43 37 40 42 46 50 53 56 59 62 64 66 69 73 70 62 50 36 36 36 38 38 38 40 42 40 37 36 36 38 39 40 40 43 47 52 55 57
58 54 45 42 57 55 50 29 30 36 44 47 40 41 41 44 44 45 50 53 55 59 60 62 67 70 68 57 44 36 36 39 40 39 41 42 41 38 35 37 39 40 42 43 42 42 48 54 57